<?xml version="1.0" encoding="UTF-8" standalone="no" ?>
<gpx xmlns="http://www.topografix.com/GPX/1/1" xmlns:xsi="http://www.w3.org/2001/XMLSchema-instance" xsi:schemaLocation="http://www.topografix.com/GPX/1/1 http://www.topografix.com/GPX/1/1/gpx.xsd" version="1.1" creator="VisuGPX - https://www.visugpx.com">
  <metadata>
    <name>La Sauve facile</name>
    <desc><![CDATA[Randonnée VTT]]></desc>
  </metadata>
  <trk>
    <name><![CDATA[Colinneau Sauve Creon debutants]]></name>
    <trkseg>
      <trkpt lat="44.75572" lon="-0.31204">
        <ele>104</ele>
        <time>2013-03-02T13:57:18Z</time>
      </trkpt>
      <trkpt lat="44.75586" lon="-0.31201">
        <ele>105</ele>
        <time>2013-03-02T13:57:25Z</time>
      </trkpt>
      <trkpt lat="44.75597" lon="-0.31199">
        <ele>105</ele>
        <time>2013-03-02T13:57:31Z</time>
      </trkpt>
      <trkpt lat="44.75611" lon="-0.31198">
        <ele>105</ele>
        <time>2013-03-02T13:57:38Z</time>
      </trkpt>
      <trkpt lat="44.75629" lon="-0.31198">
        <ele>106</ele>
        <time>2013-03-02T13:57:47Z</time>
      </trkpt>
      <trkpt lat="44.75637" lon="-0.31194">
        <ele>106</ele>
        <time>2013-03-02T13:57:52Z</time>
      </trkpt>
      <trkpt lat="44.75639" lon="-0.31179">
        <ele>106</ele>
        <time>2013-03-02T13:57:59Z</time>
      </trkpt>
      <trkpt lat="44.75639" lon="-0.31162">
        <ele>107</ele>
        <time>2013-03-02T13:58:06Z</time>
      </trkpt>
      <trkpt lat="44.7564" lon="-0.31158">
        <ele>107</ele>
        <time>2013-03-02T13:58:08Z</time>
      </trkpt>
      <trkpt lat="44.75646" lon="-0.31155">
        <ele>107</ele>
        <time>2013-03-02T13:58:12Z</time>
      </trkpt>
      <trkpt lat="44.75649" lon="-0.31155">
        <ele>107</ele>
        <time>2013-03-02T13:58:14Z</time>
      </trkpt>
      <trkpt lat="44.75657" lon="-0.31156">
        <ele>107</ele>
        <time>2013-03-02T13:58:18Z</time>
      </trkpt>
      <trkpt lat="44.75675" lon="-0.31157">
        <ele>107</ele>
        <time>2013-03-02T13:58:27Z</time>
      </trkpt>
      <trkpt lat="44.75694" lon="-0.31158">
        <ele>108</ele>
        <time>2013-03-02T13:58:36Z</time>
      </trkpt>
      <trkpt lat="44.75714" lon="-0.31159">
        <ele>109</ele>
        <time>2013-03-02T13:58:46Z</time>
      </trkpt>
      <trkpt lat="44.75731" lon="-0.31155">
        <ele>109</ele>
        <time>2013-03-02T13:58:54Z</time>
      </trkpt>
      <trkpt lat="44.7573" lon="-0.31143">
        <ele>110</ele>
        <time>2013-03-02T13:59:00Z</time>
      </trkpt>
      <trkpt lat="44.7573" lon="-0.31138">
        <ele>110</ele>
        <time>2013-03-02T13:59:02Z</time>
      </trkpt>
      <trkpt lat="44.75724" lon="-0.31115">
        <ele>110</ele>
        <time>2013-03-02T13:59:12Z</time>
      </trkpt>
      <trkpt lat="44.75721" lon="-0.31102">
        <ele>110</ele>
        <time>2013-03-02T13:59:19Z</time>
      </trkpt>
      <trkpt lat="44.75718" lon="-0.3109">
        <ele>110</ele>
        <time>2013-03-02T13:59:26Z</time>
      </trkpt>
      <trkpt lat="44.75716" lon="-0.31073">
        <ele>110</ele>
        <time>2013-03-02T13:59:34Z</time>
      </trkpt>
      <trkpt lat="44.75715" lon="-0.3106">
        <ele>110</ele>
        <time>2013-03-02T13:59:40Z</time>
      </trkpt>
      <trkpt lat="44.75713" lon="-0.31047">
        <ele>110</ele>
        <time>2013-03-02T13:59:46Z</time>
      </trkpt>
      <trkpt lat="44.75712" lon="-0.31038">
        <ele>110</ele>
        <time>2013-03-02T13:59:50Z</time>
      </trkpt>
      <trkpt lat="44.75709" lon="-0.31019">
        <ele>110</ele>
        <time>2013-03-02T13:59:58Z</time>
      </trkpt>
      <trkpt lat="44.75708" lon="-0.31012">
        <ele>110</ele>
        <time>2013-03-02T14:00:01Z</time>
      </trkpt>
      <trkpt lat="44.75706" lon="-0.31006">
        <ele>110</ele>
        <time>2013-03-02T14:00:04Z</time>
      </trkpt>
      <trkpt lat="44.75705" lon="-0.30984">
        <ele>110</ele>
        <time>2013-03-02T14:00:13Z</time>
      </trkpt>
      <trkpt lat="44.75709" lon="-0.30956">
        <ele>110</ele>
        <time>2013-03-02T14:00:24Z</time>
      </trkpt>
      <trkpt lat="44.75717" lon="-0.30942">
        <ele>110</ele>
        <time>2013-03-02T14:00:30Z</time>
      </trkpt>
      <trkpt lat="44.75717" lon="-0.30935">
        <ele>110</ele>
        <time>2013-03-02T14:00:32Z</time>
      </trkpt>
      <trkpt lat="44.75717" lon="-0.30914">
        <ele>110</ele>
        <time>2013-03-02T14:00:40Z</time>
      </trkpt>
      <trkpt lat="44.75716" lon="-0.309">
        <ele>110</ele>
        <time>2013-03-02T14:00:45Z</time>
      </trkpt>
      <trkpt lat="44.75721" lon="-0.30891">
        <ele>110</ele>
        <time>2013-03-02T14:00:50Z</time>
      </trkpt>
      <trkpt lat="44.75727" lon="-0.3089">
        <ele>111</ele>
        <time>2013-03-02T14:00:54Z</time>
      </trkpt>
      <trkpt lat="44.75744" lon="-0.3089">
        <ele>111</ele>
        <time>2013-03-02T14:01:02Z</time>
      </trkpt>
      <trkpt lat="44.7576" lon="-0.30887">
        <ele>111</ele>
        <time>2013-03-02T14:01:10Z</time>
      </trkpt>
      <trkpt lat="44.75774" lon="-0.30887">
        <ele>111</ele>
        <time>2013-03-02T14:01:16Z</time>
      </trkpt>
      <trkpt lat="44.75791" lon="-0.30894">
        <ele>111</ele>
        <time>2013-03-02T14:01:25Z</time>
      </trkpt>
      <trkpt lat="44.75795" lon="-0.309">
        <ele>111</ele>
        <time>2013-03-02T14:01:28Z</time>
      </trkpt>
      <trkpt lat="44.75802" lon="-0.3091">
        <ele>111</ele>
        <time>2013-03-02T14:01:33Z</time>
      </trkpt>
      <trkpt lat="44.75816" lon="-0.30929">
        <ele>111</ele>
        <time>2013-03-02T14:01:42Z</time>
      </trkpt>
      <trkpt lat="44.75828" lon="-0.30946">
        <ele>111</ele>
        <time>2013-03-02T14:01:50Z</time>
      </trkpt>
      <trkpt lat="44.75838" lon="-0.30962">
        <ele>111</ele>
        <time>2013-03-02T14:01:58Z</time>
      </trkpt>
      <trkpt lat="44.75845" lon="-0.30985">
        <ele>111</ele>
        <time>2013-03-02T14:02:06Z</time>
      </trkpt>
      <trkpt lat="44.75847" lon="-0.30994">
        <ele>111</ele>
        <time>2013-03-02T14:02:09Z</time>
      </trkpt>
      <trkpt lat="44.75853" lon="-0.31001">
        <ele>111</ele>
        <time>2013-03-02T14:02:13Z</time>
      </trkpt>
      <trkpt lat="44.75861" lon="-0.31006">
        <ele>110</ele>
        <time>2013-03-02T14:02:18Z</time>
      </trkpt>
      <trkpt lat="44.75864" lon="-0.31015">
        <ele>110</ele>
        <time>2013-03-02T14:02:22Z</time>
      </trkpt>
      <trkpt lat="44.75867" lon="-0.31032">
        <ele>111</ele>
        <time>2013-03-02T14:02:30Z</time>
      </trkpt>
      <trkpt lat="44.7587" lon="-0.31044">
        <ele>111</ele>
        <time>2013-03-02T14:02:36Z</time>
      </trkpt>
      <trkpt lat="44.75871" lon="-0.31046">
        <ele>111</ele>
        <time>2013-03-02T14:02:37Z</time>
      </trkpt>
      <trkpt lat="44.7588" lon="-0.31047">
        <ele>110</ele>
        <time>2013-03-02T14:02:43Z</time>
      </trkpt>
      <trkpt lat="44.75878" lon="-0.31036">
        <ele>110</ele>
        <time>2013-03-02T14:02:47Z</time>
      </trkpt>
      <trkpt lat="44.75876" lon="-0.31028">
        <ele>110</ele>
        <time>2013-03-02T14:02:51Z</time>
      </trkpt>
      <trkpt lat="44.75876" lon="-0.31021">
        <ele>110</ele>
        <time>2013-03-02T14:02:54Z</time>
      </trkpt>
      <trkpt lat="44.75891" lon="-0.31012">
        <ele>109</ele>
        <time>2013-03-02T14:03:02Z</time>
      </trkpt>
      <trkpt lat="44.75907" lon="-0.31003">
        <ele>108</ele>
        <time>2013-03-02T14:03:08Z</time>
      </trkpt>
      <trkpt lat="44.75924" lon="-0.30993">
        <ele>106</ele>
        <time>2013-03-02T14:03:16Z</time>
      </trkpt>
      <trkpt lat="44.75939" lon="-0.30985">
        <ele>105</ele>
        <time>2013-03-02T14:03:23Z</time>
      </trkpt>
      <trkpt lat="44.75956" lon="-0.30987">
        <ele>105</ele>
        <time>2013-03-02T14:03:30Z</time>
      </trkpt>
      <trkpt lat="44.75971" lon="-0.30995">
        <ele>105</ele>
        <time>2013-03-02T14:03:38Z</time>
      </trkpt>
      <trkpt lat="44.75976" lon="-0.31016">
        <ele>106</ele>
        <time>2013-03-02T14:03:46Z</time>
      </trkpt>
      <trkpt lat="44.75978" lon="-0.31021">
        <ele>107</ele>
        <time>2013-03-02T14:03:48Z</time>
      </trkpt>
      <trkpt lat="44.75987" lon="-0.31023">
        <ele>106</ele>
        <time>2013-03-02T14:03:53Z</time>
      </trkpt>
      <trkpt lat="44.76008" lon="-0.3102">
        <ele>106</ele>
        <time>2013-03-02T14:04:02Z</time>
      </trkpt>
      <trkpt lat="44.76024" lon="-0.3102">
        <ele>106</ele>
        <time>2013-03-02T14:04:09Z</time>
      </trkpt>
      <trkpt lat="44.76041" lon="-0.31023">
        <ele>106</ele>
        <time>2013-03-02T14:04:16Z</time>
      </trkpt>
      <trkpt lat="44.76056" lon="-0.31026">
        <ele>106</ele>
        <time>2013-03-02T14:04:22Z</time>
      </trkpt>
      <trkpt lat="44.76071" lon="-0.31031">
        <ele>107</ele>
        <time>2013-03-02T14:04:29Z</time>
      </trkpt>
      <trkpt lat="44.76073" lon="-0.31031">
        <ele>106</ele>
        <time>2013-03-02T14:04:30Z</time>
      </trkpt>
      <trkpt lat="44.76087" lon="-0.31036">
        <ele>106</ele>
        <time>2013-03-02T14:04:37Z</time>
      </trkpt>
      <trkpt lat="44.76098" lon="-0.31037">
        <ele>106</ele>
        <time>2013-03-02T14:04:42Z</time>
      </trkpt>
      <trkpt lat="44.76103" lon="-0.31025">
        <ele>106</ele>
        <time>2013-03-02T14:04:49Z</time>
      </trkpt>
      <trkpt lat="44.76103" lon="-0.31026">
        <ele>106</ele>
        <time>2013-03-02T14:05:01Z</time>
      </trkpt>
      <trkpt lat="44.76103" lon="-0.31026">
        <ele>106</ele>
        <time>2013-03-02T14:05:10Z</time>
      </trkpt>
      <trkpt lat="44.76103" lon="-0.31026">
        <ele>106</ele>
        <time>2013-03-02T14:05:21Z</time>
      </trkpt>
      <trkpt lat="44.76102" lon="-0.31025">
        <ele>106</ele>
        <time>2013-03-02T14:05:40Z</time>
      </trkpt>
      <trkpt lat="44.76103" lon="-0.31025">
        <ele>106</ele>
        <time>2013-03-02T14:05:56Z</time>
      </trkpt>
      <trkpt lat="44.76103" lon="-0.31024">
        <ele>106</ele>
        <time>2013-03-02T14:06:03Z</time>
      </trkpt>
      <trkpt lat="44.76102" lon="-0.31013">
        <ele>106</ele>
        <time>2013-03-02T14:06:08Z</time>
      </trkpt>
      <trkpt lat="44.761" lon="-0.30994">
        <ele>105</ele>
        <time>2013-03-02T14:06:14Z</time>
      </trkpt>
      <trkpt lat="44.76109" lon="-0.30987">
        <ele>105</ele>
        <time>2013-03-02T14:06:19Z</time>
      </trkpt>
      <trkpt lat="44.76114" lon="-0.3099">
        <ele>105</ele>
        <time>2013-03-02T14:06:21Z</time>
      </trkpt>
      <trkpt lat="44.76122" lon="-0.30992">
        <ele>105</ele>
        <time>2013-03-02T14:06:24Z</time>
      </trkpt>
      <trkpt lat="44.76138" lon="-0.30997">
        <ele>104</ele>
        <time>2013-03-02T14:06:28Z</time>
      </trkpt>
      <trkpt lat="44.76147" lon="-0.30998">
        <ele>104</ele>
        <time>2013-03-02T14:06:30Z</time>
      </trkpt>
      <trkpt lat="44.76167" lon="-0.30989">
        <ele>102</ele>
        <time>2013-03-02T14:06:35Z</time>
      </trkpt>
      <trkpt lat="44.7617" lon="-0.30979">
        <ele>102</ele>
        <time>2013-03-02T14:06:37Z</time>
      </trkpt>
      <trkpt lat="44.76171" lon="-0.30966">
        <ele>102</ele>
        <time>2013-03-02T14:06:40Z</time>
      </trkpt>
      <trkpt lat="44.76179" lon="-0.30963">
        <ele>102</ele>
        <time>2013-03-02T14:06:44Z</time>
      </trkpt>
      <trkpt lat="44.76197" lon="-0.30972">
        <ele>100</ele>
        <time>2013-03-02T14:06:49Z</time>
      </trkpt>
      <trkpt lat="44.76219" lon="-0.3098">
        <ele>98</ele>
        <time>2013-03-02T14:06:56Z</time>
      </trkpt>
      <trkpt lat="44.7622" lon="-0.3098">
        <ele>98</ele>
        <time>2013-03-02T14:07:04Z</time>
      </trkpt>
      <trkpt lat="44.76223" lon="-0.30982">
        <ele>98</ele>
        <time>2013-03-02T14:07:16Z</time>
      </trkpt>
      <trkpt lat="44.76243" lon="-0.30993">
        <ele>96</ele>
        <time>2013-03-02T14:07:22Z</time>
      </trkpt>
      <trkpt lat="44.76272" lon="-0.31001">
        <ele>93</ele>
        <time>2013-03-02T14:07:30Z</time>
      </trkpt>
      <trkpt lat="44.76295" lon="-0.31012">
        <ele>92</ele>
        <time>2013-03-02T14:07:38Z</time>
      </trkpt>
      <trkpt lat="44.76298" lon="-0.31013">
        <ele>92</ele>
        <time>2013-03-02T14:07:39Z</time>
      </trkpt>
      <trkpt lat="44.76307" lon="-0.30999">
        <ele>91</ele>
        <time>2013-03-02T14:07:44Z</time>
      </trkpt>
      <trkpt lat="44.76308" lon="-0.30996">
        <ele>91</ele>
        <time>2013-03-02T14:07:45Z</time>
      </trkpt>
      <trkpt lat="44.76315" lon="-0.30972">
        <ele>90</ele>
        <time>2013-03-02T14:07:53Z</time>
      </trkpt>
      <trkpt lat="44.76316" lon="-0.30968">
        <ele>90</ele>
        <time>2013-03-02T14:07:57Z</time>
      </trkpt>
      <trkpt lat="44.76319" lon="-0.3097">
        <ele>90</ele>
        <time>2013-03-02T14:08:04Z</time>
      </trkpt>
      <trkpt lat="44.76325" lon="-0.30976">
        <ele>90</ele>
        <time>2013-03-02T14:08:13Z</time>
      </trkpt>
      <trkpt lat="44.76327" lon="-0.30976">
        <ele>90</ele>
        <time>2013-03-02T14:08:19Z</time>
      </trkpt>
      <trkpt lat="44.76328" lon="-0.30977">
        <ele>90</ele>
        <time>2013-03-02T14:08:26Z</time>
      </trkpt>
      <trkpt lat="44.7633" lon="-0.30977">
        <ele>90</ele>
        <time>2013-03-02T14:08:30Z</time>
      </trkpt>
      <trkpt lat="44.76332" lon="-0.30977">
        <ele>90</ele>
        <time>2013-03-02T14:08:36Z</time>
      </trkpt>
      <trkpt lat="44.76333" lon="-0.30977">
        <ele>90</ele>
        <time>2013-03-02T14:08:45Z</time>
      </trkpt>
      <trkpt lat="44.76333" lon="-0.30977">
        <ele>90</ele>
        <time>2013-03-02T14:08:58Z</time>
      </trkpt>
      <trkpt lat="44.76333" lon="-0.30976">
        <ele>90</ele>
        <time>2013-03-02T14:09:09Z</time>
      </trkpt>
      <trkpt lat="44.76333" lon="-0.30976">
        <ele>90</ele>
        <time>2013-03-02T14:09:29Z</time>
      </trkpt>
      <trkpt lat="44.76333" lon="-0.30976">
        <ele>90</ele>
        <time>2013-03-02T14:09:38Z</time>
      </trkpt>
      <trkpt lat="44.76333" lon="-0.30977">
        <ele>90</ele>
        <time>2013-03-02T14:09:44Z</time>
      </trkpt>
      <trkpt lat="44.76336" lon="-0.30985">
        <ele>90</ele>
        <time>2013-03-02T14:09:51Z</time>
      </trkpt>
      <trkpt lat="44.76337" lon="-0.30988">
        <ele>90</ele>
        <time>2013-03-02T14:09:54Z</time>
      </trkpt>
      <trkpt lat="44.76334" lon="-0.30998">
        <ele>91</ele>
        <time>2013-03-02T14:10:02Z</time>
      </trkpt>
      <trkpt lat="44.7634" lon="-0.31009">
        <ele>92</ele>
        <time>2013-03-02T14:10:10Z</time>
      </trkpt>
      <trkpt lat="44.76343" lon="-0.31013">
        <ele>92</ele>
        <time>2013-03-02T14:10:19Z</time>
      </trkpt>
      <trkpt lat="44.76345" lon="-0.31017">
        <ele>93</ele>
        <time>2013-03-02T14:10:26Z</time>
      </trkpt>
      <trkpt lat="44.76347" lon="-0.31028">
        <ele>94</ele>
        <time>2013-03-02T14:10:34Z</time>
      </trkpt>
      <trkpt lat="44.76352" lon="-0.31031">
        <ele>95</ele>
        <time>2013-03-02T14:10:41Z</time>
      </trkpt>
      <trkpt lat="44.76357" lon="-0.31034">
        <ele>96</ele>
        <time>2013-03-02T14:10:48Z</time>
      </trkpt>
      <trkpt lat="44.76362" lon="-0.31036">
        <ele>96</ele>
        <time>2013-03-02T14:10:56Z</time>
      </trkpt>
      <trkpt lat="44.76367" lon="-0.31037">
        <ele>96</ele>
        <time>2013-03-02T14:11:06Z</time>
      </trkpt>
      <trkpt lat="44.76375" lon="-0.31045">
        <ele>98</ele>
        <time>2013-03-02T14:11:11Z</time>
      </trkpt>
      <trkpt lat="44.76387" lon="-0.31058">
        <ele>100</ele>
        <time>2013-03-02T14:11:18Z</time>
      </trkpt>
      <trkpt lat="44.76389" lon="-0.31059">
        <ele>100</ele>
        <time>2013-03-02T14:11:19Z</time>
      </trkpt>
      <trkpt lat="44.76394" lon="-0.31059">
        <ele>100</ele>
        <time>2013-03-02T14:11:22Z</time>
      </trkpt>
      <trkpt lat="44.764" lon="-0.31066">
        <ele>100</ele>
        <time>2013-03-02T14:11:26Z</time>
      </trkpt>
      <trkpt lat="44.76404" lon="-0.31078">
        <ele>101</ele>
        <time>2013-03-02T14:11:30Z</time>
      </trkpt>
      <trkpt lat="44.76414" lon="-0.31085">
        <ele>102</ele>
        <time>2013-03-02T14:11:37Z</time>
      </trkpt>
      <trkpt lat="44.76427" lon="-0.31082">
        <ele>101</ele>
        <time>2013-03-02T14:11:44Z</time>
      </trkpt>
      <trkpt lat="44.76436" lon="-0.31077">
        <ele>101</ele>
        <time>2013-03-02T14:11:50Z</time>
      </trkpt>
      <trkpt lat="44.76438" lon="-0.31076">
        <ele>101</ele>
        <time>2013-03-02T14:11:51Z</time>
      </trkpt>
      <trkpt lat="44.76446" lon="-0.31073">
        <ele>101</ele>
        <time>2013-03-02T14:11:55Z</time>
      </trkpt>
      <trkpt lat="44.76454" lon="-0.31069">
        <ele>100</ele>
        <time>2013-03-02T14:12:01Z</time>
      </trkpt>
      <trkpt lat="44.76455" lon="-0.31068">
        <ele>100</ele>
        <time>2013-03-02T14:12:06Z</time>
      </trkpt>
      <trkpt lat="44.76464" lon="-0.31065">
        <ele>99</ele>
        <time>2013-03-02T14:12:14Z</time>
      </trkpt>
      <trkpt lat="44.76467" lon="-0.31064">
        <ele>99</ele>
        <time>2013-03-02T14:12:20Z</time>
      </trkpt>
      <trkpt lat="44.76471" lon="-0.31063">
        <ele>99</ele>
        <time>2013-03-02T14:12:23Z</time>
      </trkpt>
      <trkpt lat="44.76473" lon="-0.31062">
        <ele>99</ele>
        <time>2013-03-02T14:12:25Z</time>
      </trkpt>
      <trkpt lat="44.76475" lon="-0.31062">
        <ele>99</ele>
        <time>2013-03-02T14:12:32Z</time>
      </trkpt>
      <trkpt lat="44.76475" lon="-0.31062">
        <ele>99</ele>
        <time>2013-03-02T14:12:44Z</time>
      </trkpt>
      <trkpt lat="44.76476" lon="-0.31061">
        <ele>99</ele>
        <time>2013-03-02T14:12:51Z</time>
      </trkpt>
      <trkpt lat="44.76476" lon="-0.31061">
        <ele>99</ele>
        <time>2013-03-02T14:12:53Z</time>
      </trkpt>
      <trkpt lat="44.76485" lon="-0.31056">
        <ele>99</ele>
        <time>2013-03-02T14:12:59Z</time>
      </trkpt>
      <trkpt lat="44.76504" lon="-0.31059">
        <ele>99</ele>
        <time>2013-03-02T14:13:07Z</time>
      </trkpt>
      <trkpt lat="44.76518" lon="-0.31055">
        <ele>99</ele>
        <time>2013-03-02T14:13:14Z</time>
      </trkpt>
      <trkpt lat="44.76522" lon="-0.31054">
        <ele>99</ele>
        <time>2013-03-02T14:13:16Z</time>
      </trkpt>
      <trkpt lat="44.76533" lon="-0.31062">
        <ele>100</ele>
        <time>2013-03-02T14:13:21Z</time>
      </trkpt>
      <trkpt lat="44.76552" lon="-0.31067">
        <ele>101</ele>
        <time>2013-03-02T14:13:30Z</time>
      </trkpt>
      <trkpt lat="44.7657" lon="-0.3107">
        <ele>101</ele>
        <time>2013-03-02T14:13:39Z</time>
      </trkpt>
      <trkpt lat="44.76581" lon="-0.31067">
        <ele>101</ele>
        <time>2013-03-02T14:13:44Z</time>
      </trkpt>
      <trkpt lat="44.76591" lon="-0.31061">
        <ele>101</ele>
        <time>2013-03-02T14:13:50Z</time>
      </trkpt>
      <trkpt lat="44.76591" lon="-0.31061">
        <ele>101</ele>
        <time>2013-03-02T14:14:00Z</time>
      </trkpt>
      <trkpt lat="44.76592" lon="-0.31061">
        <ele>101</ele>
        <time>2013-03-02T14:14:12Z</time>
      </trkpt>
      <trkpt lat="44.76592" lon="-0.31061">
        <ele>101</ele>
        <time>2013-03-02T14:14:21Z</time>
      </trkpt>
      <trkpt lat="44.76592" lon="-0.31061">
        <ele>101</ele>
        <time>2013-03-02T14:14:32Z</time>
      </trkpt>
      <trkpt lat="44.76592" lon="-0.31062">
        <ele>101</ele>
        <time>2013-03-02T14:14:39Z</time>
      </trkpt>
      <trkpt lat="44.76593" lon="-0.31061">
        <ele>101</ele>
        <time>2013-03-02T14:14:56Z</time>
      </trkpt>
      <trkpt lat="44.76593" lon="-0.31061">
        <ele>101</ele>
        <time>2013-03-02T14:15:02Z</time>
      </trkpt>
      <trkpt lat="44.76593" lon="-0.31061">
        <ele>101</ele>
        <time>2013-03-02T14:15:08Z</time>
      </trkpt>
      <trkpt lat="44.76593" lon="-0.31061">
        <ele>101</ele>
        <time>2013-03-02T14:15:21Z</time>
      </trkpt>
      <trkpt lat="44.76593" lon="-0.31061">
        <ele>101</ele>
        <time>2013-03-02T14:15:27Z</time>
      </trkpt>
      <trkpt lat="44.76591" lon="-0.31058">
        <ele>101</ele>
        <time>2013-03-02T14:15:32Z</time>
      </trkpt>
      <trkpt lat="44.76591" lon="-0.31058">
        <ele>101</ele>
        <time>2013-03-02T14:15:55Z</time>
      </trkpt>
      <trkpt lat="44.76591" lon="-0.31058">
        <ele>101</ele>
        <time>2013-03-02T14:16:19Z</time>
      </trkpt>
      <trkpt lat="44.76591" lon="-0.31057">
        <ele>101</ele>
        <time>2013-03-02T14:16:42Z</time>
      </trkpt>
      <trkpt lat="44.76591" lon="-0.31058">
        <ele>101</ele>
        <time>2013-03-02T14:17:02Z</time>
      </trkpt>
      <trkpt lat="44.76591" lon="-0.31058">
        <ele>101</ele>
        <time>2013-03-02T14:17:24Z</time>
      </trkpt>
      <trkpt lat="44.76591" lon="-0.31057">
        <ele>101</ele>
        <time>2013-03-02T14:17:46Z</time>
      </trkpt>
      <trkpt lat="44.76591" lon="-0.31058">
        <ele>101</ele>
        <time>2013-03-02T14:18:08Z</time>
      </trkpt>
      <trkpt lat="44.76591" lon="-0.31057">
        <ele>101</ele>
        <time>2013-03-02T14:18:30Z</time>
      </trkpt>
      <trkpt lat="44.76591" lon="-0.31058">
        <ele>101</ele>
        <time>2013-03-02T14:18:47Z</time>
      </trkpt>
      <trkpt lat="44.76591" lon="-0.31058">
        <ele>101</ele>
        <time>2013-03-02T14:19:08Z</time>
      </trkpt>
      <trkpt lat="44.7659" lon="-0.31057">
        <ele>101</ele>
        <time>2013-03-02T14:19:32Z</time>
      </trkpt>
      <trkpt lat="44.7659" lon="-0.31057">
        <ele>101</ele>
        <time>2013-03-02T14:19:56Z</time>
      </trkpt>
      <trkpt lat="44.7659" lon="-0.31057">
        <ele>101</ele>
        <time>2013-03-02T14:20:21Z</time>
      </trkpt>
      <trkpt lat="44.76589" lon="-0.31058">
        <ele>101</ele>
        <time>2013-03-02T14:20:43Z</time>
      </trkpt>
      <trkpt lat="44.76589" lon="-0.31058">
        <ele>101</ele>
        <time>2013-03-02T14:21:05Z</time>
      </trkpt>
      <trkpt lat="44.76587" lon="-0.31059">
        <ele>101</ele>
        <time>2013-03-02T14:21:29Z</time>
      </trkpt>
      <trkpt lat="44.76587" lon="-0.31058">
        <ele>101</ele>
        <time>2013-03-02T14:21:52Z</time>
      </trkpt>
      <trkpt lat="44.76588" lon="-0.31058">
        <ele>101</ele>
        <time>2013-03-02T14:22:14Z</time>
      </trkpt>
      <trkpt lat="44.76589" lon="-0.3106">
        <ele>101</ele>
        <time>2013-03-02T14:22:35Z</time>
      </trkpt>
      <trkpt lat="44.76589" lon="-0.31059">
        <ele>101</ele>
        <time>2013-03-02T14:22:56Z</time>
      </trkpt>
      <trkpt lat="44.76589" lon="-0.31058">
        <ele>101</ele>
        <time>2013-03-02T14:23:14Z</time>
      </trkpt>
      <trkpt lat="44.7659" lon="-0.31058">
        <ele>101</ele>
        <time>2013-03-02T14:23:35Z</time>
      </trkpt>
      <trkpt lat="44.7659" lon="-0.31058">
        <ele>101</ele>
        <time>2013-03-02T14:23:58Z</time>
      </trkpt>
      <trkpt lat="44.7659" lon="-0.31057">
        <ele>101</ele>
        <time>2013-03-02T14:24:19Z</time>
      </trkpt>
      <trkpt lat="44.76591" lon="-0.31057">
        <ele>101</ele>
        <time>2013-03-02T14:24:40Z</time>
      </trkpt>
      <trkpt lat="44.76591" lon="-0.31057">
        <ele>101</ele>
        <time>2013-03-02T14:25:01Z</time>
      </trkpt>
      <trkpt lat="44.7659" lon="-0.31058">
        <ele>101</ele>
        <time>2013-03-02T14:25:23Z</time>
      </trkpt>
      <trkpt lat="44.7659" lon="-0.31058">
        <ele>101</ele>
        <time>2013-03-02T14:25:44Z</time>
      </trkpt>
      <trkpt lat="44.76589" lon="-0.31059">
        <ele>101</ele>
        <time>2013-03-02T14:26:03Z</time>
      </trkpt>
      <trkpt lat="44.76589" lon="-0.31059">
        <ele>101</ele>
        <time>2013-03-02T14:26:25Z</time>
      </trkpt>
      <trkpt lat="44.76589" lon="-0.31059">
        <ele>101</ele>
        <time>2013-03-02T14:26:44Z</time>
      </trkpt>
      <trkpt lat="44.76589" lon="-0.31058">
        <ele>101</ele>
        <time>2013-03-02T14:27:03Z</time>
      </trkpt>
      <trkpt lat="44.7659" lon="-0.31057">
        <ele>101</ele>
        <time>2013-03-02T14:27:28Z</time>
      </trkpt>
      <trkpt lat="44.7659" lon="-0.31059">
        <ele>101</ele>
        <time>2013-03-02T14:27:50Z</time>
      </trkpt>
      <trkpt lat="44.7659" lon="-0.31059">
        <ele>101</ele>
        <time>2013-03-02T14:28:11Z</time>
      </trkpt>
      <trkpt lat="44.7659" lon="-0.3106">
        <ele>101</ele>
        <time>2013-03-02T14:28:33Z</time>
      </trkpt>
      <trkpt lat="44.7659" lon="-0.31059">
        <ele>101</ele>
        <time>2013-03-02T14:28:55Z</time>
      </trkpt>
      <trkpt lat="44.7659" lon="-0.31059">
        <ele>101</ele>
        <time>2013-03-02T14:29:17Z</time>
      </trkpt>
      <trkpt lat="44.76591" lon="-0.31059">
        <ele>101</ele>
        <time>2013-03-02T14:29:43Z</time>
      </trkpt>
      <trkpt lat="44.76591" lon="-0.31058">
        <ele>101</ele>
        <time>2013-03-02T14:30:09Z</time>
      </trkpt>
      <trkpt lat="44.7659" lon="-0.31058">
        <ele>101</ele>
        <time>2013-03-02T14:30:36Z</time>
      </trkpt>
      <trkpt lat="44.7659" lon="-0.31058">
        <ele>101</ele>
        <time>2013-03-02T14:31:00Z</time>
      </trkpt>
      <trkpt lat="44.7659" lon="-0.31058">
        <ele>101</ele>
        <time>2013-03-02T14:31:29Z</time>
      </trkpt>
      <trkpt lat="44.76589" lon="-0.31058">
        <ele>101</ele>
        <time>2013-03-02T14:31:56Z</time>
      </trkpt>
      <trkpt lat="44.76589" lon="-0.31058">
        <ele>101</ele>
        <time>2013-03-02T14:32:21Z</time>
      </trkpt>
      <trkpt lat="44.76589" lon="-0.31058">
        <ele>101</ele>
        <time>2013-03-02T14:32:48Z</time>
      </trkpt>
      <trkpt lat="44.76589" lon="-0.31058">
        <ele>101</ele>
        <time>2013-03-02T14:33:14Z</time>
      </trkpt>
      <trkpt lat="44.76589" lon="-0.31057">
        <ele>101</ele>
        <time>2013-03-02T14:33:42Z</time>
      </trkpt>
      <trkpt lat="44.76588" lon="-0.31057">
        <ele>101</ele>
        <time>2013-03-02T14:34:09Z</time>
      </trkpt>
      <trkpt lat="44.76588" lon="-0.31058">
        <ele>101</ele>
        <time>2013-03-02T14:34:37Z</time>
      </trkpt>
      <trkpt lat="44.76588" lon="-0.31058">
        <ele>101</ele>
        <time>2013-03-02T14:35:03Z</time>
      </trkpt>
      <trkpt lat="44.76588" lon="-0.31057">
        <ele>101</ele>
        <time>2013-03-02T14:35:31Z</time>
      </trkpt>
      <trkpt lat="44.76589" lon="-0.31058">
        <ele>101</ele>
        <time>2013-03-02T14:35:56Z</time>
      </trkpt>
      <trkpt lat="44.76589" lon="-0.3106">
        <ele>101</ele>
        <time>2013-03-02T14:36:06Z</time>
      </trkpt>
      <trkpt lat="44.76589" lon="-0.31061">
        <ele>101</ele>
        <time>2013-03-02T14:36:07Z</time>
      </trkpt>
      <trkpt lat="44.76592" lon="-0.31063">
        <ele>101</ele>
        <time>2013-03-02T14:36:14Z</time>
      </trkpt>
      <trkpt lat="44.76601" lon="-0.31059">
        <ele>101</ele>
        <time>2013-03-02T14:36:21Z</time>
      </trkpt>
      <trkpt lat="44.76607" lon="-0.31054">
        <ele>100</ele>
        <time>2013-03-02T14:36:25Z</time>
      </trkpt>
      <trkpt lat="44.76623" lon="-0.31042">
        <ele>100</ele>
        <time>2013-03-02T14:36:35Z</time>
      </trkpt>
      <trkpt lat="44.76632" lon="-0.31045">
        <ele>100</ele>
        <time>2013-03-02T14:36:39Z</time>
      </trkpt>
      <trkpt lat="44.76643" lon="-0.31059">
        <ele>101</ele>
        <time>2013-03-02T14:36:46Z</time>
      </trkpt>
      <trkpt lat="44.76649" lon="-0.31077">
        <ele>103</ele>
        <time>2013-03-02T14:36:52Z</time>
      </trkpt>
      <trkpt lat="44.76655" lon="-0.31092">
        <ele>103</ele>
        <time>2013-03-02T14:36:58Z</time>
      </trkpt>
      <trkpt lat="44.76672" lon="-0.31091">
        <ele>103</ele>
        <time>2013-03-02T14:37:04Z</time>
      </trkpt>
      <trkpt lat="44.76704" lon="-0.31091">
        <ele>103</ele>
        <time>2013-03-02T14:37:13Z</time>
      </trkpt>
      <trkpt lat="44.76737" lon="-0.31105">
        <ele>102</ele>
        <time>2013-03-02T14:37:22Z</time>
      </trkpt>
      <trkpt lat="44.76749" lon="-0.31124">
        <ele>102</ele>
        <time>2013-03-02T14:37:28Z</time>
      </trkpt>
      <trkpt lat="44.76749" lon="-0.31131">
        <ele>102</ele>
        <time>2013-03-02T14:37:33Z</time>
      </trkpt>
      <trkpt lat="44.76749" lon="-0.31132">
        <ele>102</ele>
        <time>2013-03-02T14:37:47Z</time>
      </trkpt>
      <trkpt lat="44.76748" lon="-0.31133">
        <ele>102</ele>
        <time>2013-03-02T14:37:57Z</time>
      </trkpt>
      <trkpt lat="44.76748" lon="-0.31134">
        <ele>102</ele>
        <time>2013-03-02T14:38:15Z</time>
      </trkpt>
      <trkpt lat="44.76748" lon="-0.31133">
        <ele>102</ele>
        <time>2013-03-02T14:38:30Z</time>
      </trkpt>
      <trkpt lat="44.76748" lon="-0.31133">
        <ele>102</ele>
        <time>2013-03-02T14:38:43Z</time>
      </trkpt>
      <trkpt lat="44.76748" lon="-0.31133">
        <ele>102</ele>
        <time>2013-03-02T14:38:44Z</time>
      </trkpt>
      <trkpt lat="44.76747" lon="-0.31146">
        <ele>102</ele>
        <time>2013-03-02T14:38:50Z</time>
      </trkpt>
      <trkpt lat="44.76745" lon="-0.31159">
        <ele>101</ele>
        <time>2013-03-02T14:38:53Z</time>
      </trkpt>
      <trkpt lat="44.7674" lon="-0.31192">
        <ele>100</ele>
        <time>2013-03-02T14:39:00Z</time>
      </trkpt>
      <trkpt lat="44.76742" lon="-0.31203">
        <ele>100</ele>
        <time>2013-03-02T14:39:04Z</time>
      </trkpt>
      <trkpt lat="44.76747" lon="-0.31251">
        <ele>98</ele>
        <time>2013-03-02T14:39:14Z</time>
      </trkpt>
      <trkpt lat="44.76745" lon="-0.31264">
        <ele>98</ele>
        <time>2013-03-02T14:39:17Z</time>
      </trkpt>
      <trkpt lat="44.76752" lon="-0.31271">
        <ele>97</ele>
        <time>2013-03-02T14:39:21Z</time>
      </trkpt>
      <trkpt lat="44.7678" lon="-0.31272">
        <ele>94</ele>
        <time>2013-03-02T14:39:27Z</time>
      </trkpt>
      <trkpt lat="44.76814" lon="-0.31273">
        <ele>91</ele>
        <time>2013-03-02T14:39:34Z</time>
      </trkpt>
      <trkpt lat="44.76845" lon="-0.31278">
        <ele>88</ele>
        <time>2013-03-02T14:39:40Z</time>
      </trkpt>
      <trkpt lat="44.76871" lon="-0.31283">
        <ele>86</ele>
        <time>2013-03-02T14:39:45Z</time>
      </trkpt>
      <trkpt lat="44.76886" lon="-0.31277">
        <ele>86</ele>
        <time>2013-03-02T14:39:50Z</time>
      </trkpt>
      <trkpt lat="44.76887" lon="-0.31272">
        <ele>87</ele>
        <time>2013-03-02T14:39:51Z</time>
      </trkpt>
      <trkpt lat="44.76888" lon="-0.31268">
        <ele>87</ele>
        <time>2013-03-02T14:39:52Z</time>
      </trkpt>
      <trkpt lat="44.76889" lon="-0.31265">
        <ele>88</ele>
        <time>2013-03-02T14:39:53Z</time>
      </trkpt>
      <trkpt lat="44.7689" lon="-0.31262">
        <ele>88</ele>
        <time>2013-03-02T14:39:54Z</time>
      </trkpt>
      <trkpt lat="44.7689" lon="-0.31258">
        <ele>88</ele>
        <time>2013-03-02T14:39:55Z</time>
      </trkpt>
      <trkpt lat="44.76891" lon="-0.31255">
        <ele>89</ele>
        <time>2013-03-02T14:39:56Z</time>
      </trkpt>
      <trkpt lat="44.76891" lon="-0.31252">
        <ele>89</ele>
        <time>2013-03-02T14:39:57Z</time>
      </trkpt>
      <trkpt lat="44.76893" lon="-0.31249">
        <ele>89</ele>
        <time>2013-03-02T14:39:58Z</time>
      </trkpt>
      <trkpt lat="44.76893" lon="-0.31246">
        <ele>90</ele>
        <time>2013-03-02T14:39:59Z</time>
      </trkpt>
      <trkpt lat="44.76894" lon="-0.31243">
        <ele>90</ele>
        <time>2013-03-02T14:40:00Z</time>
      </trkpt>
      <trkpt lat="44.76896" lon="-0.3124">
        <ele>90</ele>
        <time>2013-03-02T14:40:01Z</time>
      </trkpt>
      <trkpt lat="44.769" lon="-0.3123">
        <ele>91</ele>
        <time>2013-03-02T14:40:07Z</time>
      </trkpt>
      <trkpt lat="44.76901" lon="-0.31229">
        <ele>91</ele>
        <time>2013-03-02T14:40:08Z</time>
      </trkpt>
      <trkpt lat="44.76905" lon="-0.31228">
        <ele>91</ele>
        <time>2013-03-02T14:40:11Z</time>
      </trkpt>
      <trkpt lat="44.76906" lon="-0.31227">
        <ele>91</ele>
        <time>2013-03-02T14:40:17Z</time>
      </trkpt>
      <trkpt lat="44.76907" lon="-0.31227">
        <ele>91</ele>
        <time>2013-03-02T14:40:28Z</time>
      </trkpt>
      <trkpt lat="44.76908" lon="-0.31227">
        <ele>90</ele>
        <time>2013-03-02T14:40:41Z</time>
      </trkpt>
      <trkpt lat="44.76908" lon="-0.31227">
        <ele>90</ele>
        <time>2013-03-02T14:40:43Z</time>
      </trkpt>
      <trkpt lat="44.76922" lon="-0.31224">
        <ele>89</ele>
        <time>2013-03-02T14:40:49Z</time>
      </trkpt>
      <trkpt lat="44.76924" lon="-0.31222">
        <ele>89</ele>
        <time>2013-03-02T14:40:50Z</time>
      </trkpt>
      <trkpt lat="44.76926" lon="-0.31218">
        <ele>89</ele>
        <time>2013-03-02T14:40:51Z</time>
      </trkpt>
      <trkpt lat="44.76928" lon="-0.31214">
        <ele>88</ele>
        <time>2013-03-02T14:40:52Z</time>
      </trkpt>
      <trkpt lat="44.7693" lon="-0.3121">
        <ele>88</ele>
        <time>2013-03-02T14:40:53Z</time>
      </trkpt>
      <trkpt lat="44.76931" lon="-0.31206">
        <ele>88</ele>
        <time>2013-03-02T14:40:54Z</time>
      </trkpt>
      <trkpt lat="44.76933" lon="-0.31199">
        <ele>88</ele>
        <time>2013-03-02T14:40:56Z</time>
      </trkpt>
      <trkpt lat="44.76933" lon="-0.31194">
        <ele>88</ele>
        <time>2013-03-02T14:40:57Z</time>
      </trkpt>
      <trkpt lat="44.76933" lon="-0.3119">
        <ele>88</ele>
        <time>2013-03-02T14:40:58Z</time>
      </trkpt>
      <trkpt lat="44.76929" lon="-0.3116">
        <ele>89</ele>
        <time>2013-03-02T14:41:06Z</time>
      </trkpt>
      <trkpt lat="44.76929" lon="-0.31135">
        <ele>89</ele>
        <time>2013-03-02T14:41:13Z</time>
      </trkpt>
      <trkpt lat="44.76933" lon="-0.31111">
        <ele>88</ele>
        <time>2013-03-02T14:41:20Z</time>
      </trkpt>
      <trkpt lat="44.76943" lon="-0.31098">
        <ele>86</ele>
        <time>2013-03-02T14:41:25Z</time>
      </trkpt>
      <trkpt lat="44.76953" lon="-0.31084">
        <ele>85</ele>
        <time>2013-03-02T14:41:30Z</time>
      </trkpt>
      <trkpt lat="44.76957" lon="-0.31076">
        <ele>84</ele>
        <time>2013-03-02T14:41:32Z</time>
      </trkpt>
      <trkpt lat="44.76986" lon="-0.3104">
        <ele>82</ele>
        <time>2013-03-02T14:41:40Z</time>
      </trkpt>
      <trkpt lat="44.77005" lon="-0.31016">
        <ele>81</ele>
        <time>2013-03-02T14:41:46Z</time>
      </trkpt>
      <trkpt lat="44.77015" lon="-0.31006">
        <ele>80</ele>
        <time>2013-03-02T14:41:51Z</time>
      </trkpt>
      <trkpt lat="44.77019" lon="-0.31006">
        <ele>80</ele>
        <time>2013-03-02T14:41:52Z</time>
      </trkpt>
      <trkpt lat="44.77022" lon="-0.31009">
        <ele>80</ele>
        <time>2013-03-02T14:41:53Z</time>
      </trkpt>
      <trkpt lat="44.77032" lon="-0.3102">
        <ele>79</ele>
        <time>2013-03-02T14:41:56Z</time>
      </trkpt>
      <trkpt lat="44.77037" lon="-0.31024">
        <ele>79</ele>
        <time>2013-03-02T14:41:57Z</time>
      </trkpt>
      <trkpt lat="44.77041" lon="-0.31028">
        <ele>79</ele>
        <time>2013-03-02T14:41:58Z</time>
      </trkpt>
      <trkpt lat="44.77079" lon="-0.31054">
        <ele>76</ele>
        <time>2013-03-02T14:42:05Z</time>
      </trkpt>
      <trkpt lat="44.77129" lon="-0.3109">
        <ele>72</ele>
        <time>2013-03-02T14:42:13Z</time>
      </trkpt>
      <trkpt lat="44.7719" lon="-0.31135">
        <ele>68</ele>
        <time>2013-03-02T14:42:22Z</time>
      </trkpt>
      <trkpt lat="44.77242" lon="-0.31169">
        <ele>66</ele>
        <time>2013-03-02T14:42:30Z</time>
      </trkpt>
      <trkpt lat="44.77248" lon="-0.3117">
        <ele>66</ele>
        <time>2013-03-02T14:42:31Z</time>
      </trkpt>
      <trkpt lat="44.77254" lon="-0.31169">
        <ele>66</ele>
        <time>2013-03-02T14:42:32Z</time>
      </trkpt>
      <trkpt lat="44.7726" lon="-0.31168">
        <ele>66</ele>
        <time>2013-03-02T14:42:33Z</time>
      </trkpt>
      <trkpt lat="44.77265" lon="-0.31165">
        <ele>66</ele>
        <time>2013-03-02T14:42:34Z</time>
      </trkpt>
      <trkpt lat="44.7727" lon="-0.31162">
        <ele>66</ele>
        <time>2013-03-02T14:42:35Z</time>
      </trkpt>
      <trkpt lat="44.77274" lon="-0.31157">
        <ele>66</ele>
        <time>2013-03-02T14:42:36Z</time>
      </trkpt>
      <trkpt lat="44.77282" lon="-0.31148">
        <ele>67</ele>
        <time>2013-03-02T14:42:38Z</time>
      </trkpt>
      <trkpt lat="44.77285" lon="-0.31143">
        <ele>67</ele>
        <time>2013-03-02T14:42:39Z</time>
      </trkpt>
      <trkpt lat="44.77298" lon="-0.31114">
        <ele>68</ele>
        <time>2013-03-02T14:42:45Z</time>
      </trkpt>
      <trkpt lat="44.773" lon="-0.31108">
        <ele>68</ele>
        <time>2013-03-02T14:42:46Z</time>
      </trkpt>
      <trkpt lat="44.77317" lon="-0.31072">
        <ele>68</ele>
        <time>2013-03-02T14:42:54Z</time>
      </trkpt>
      <trkpt lat="44.7733" lon="-0.31048">
        <ele>68</ele>
        <time>2013-03-02T14:43:01Z</time>
      </trkpt>
      <trkpt lat="44.77341" lon="-0.31027">
        <ele>69</ele>
        <time>2013-03-02T14:43:07Z</time>
      </trkpt>
      <trkpt lat="44.77354" lon="-0.31003">
        <ele>69</ele>
        <time>2013-03-02T14:43:14Z</time>
      </trkpt>
      <trkpt lat="44.7737" lon="-0.3099">
        <ele>70</ele>
        <time>2013-03-02T14:43:20Z</time>
      </trkpt>
      <trkpt lat="44.77395" lon="-0.30986">
        <ele>72</ele>
        <time>2013-03-02T14:43:28Z</time>
      </trkpt>
      <trkpt lat="44.77408" lon="-0.30985">
        <ele>73</ele>
        <time>2013-03-02T14:43:33Z</time>
      </trkpt>
      <trkpt lat="44.77421" lon="-0.30984">
        <ele>74</ele>
        <time>2013-03-02T14:43:39Z</time>
      </trkpt>
      <trkpt lat="44.7744" lon="-0.30981">
        <ele>75</ele>
        <time>2013-03-02T14:43:46Z</time>
      </trkpt>
      <trkpt lat="44.77467" lon="-0.30978">
        <ele>76</ele>
        <time>2013-03-02T14:43:56Z</time>
      </trkpt>
      <trkpt lat="44.77485" lon="-0.30971">
        <ele>77</ele>
        <time>2013-03-02T14:44:03Z</time>
      </trkpt>
      <trkpt lat="44.77506" lon="-0.30956">
        <ele>77</ele>
        <time>2013-03-02T14:44:11Z</time>
      </trkpt>
      <trkpt lat="44.77524" lon="-0.3094">
        <ele>77</ele>
        <time>2013-03-02T14:44:18Z</time>
      </trkpt>
      <trkpt lat="44.77547" lon="-0.30921">
        <ele>77</ele>
        <time>2013-03-02T14:44:27Z</time>
      </trkpt>
      <trkpt lat="44.77569" lon="-0.30905">
        <ele>78</ele>
        <time>2013-03-02T14:44:36Z</time>
      </trkpt>
      <trkpt lat="44.77591" lon="-0.30889">
        <ele>78</ele>
        <time>2013-03-02T14:44:45Z</time>
      </trkpt>
      <trkpt lat="44.77607" lon="-0.30877">
        <ele>79</ele>
        <time>2013-03-02T14:44:52Z</time>
      </trkpt>
      <trkpt lat="44.77617" lon="-0.30869">
        <ele>80</ele>
        <time>2013-03-02T14:44:57Z</time>
      </trkpt>
      <trkpt lat="44.77627" lon="-0.30862">
        <ele>81</ele>
        <time>2013-03-02T14:45:02Z</time>
      </trkpt>
      <trkpt lat="44.77638" lon="-0.30853">
        <ele>82</ele>
        <time>2013-03-02T14:45:08Z</time>
      </trkpt>
      <trkpt lat="44.77644" lon="-0.30848">
        <ele>82</ele>
        <time>2013-03-02T14:45:11Z</time>
      </trkpt>
      <trkpt lat="44.77646" lon="-0.30844">
        <ele>82</ele>
        <time>2013-03-02T14:45:12Z</time>
      </trkpt>
      <trkpt lat="44.77648" lon="-0.30841">
        <ele>82</ele>
        <time>2013-03-02T14:45:13Z</time>
      </trkpt>
      <trkpt lat="44.7765" lon="-0.30838">
        <ele>82</ele>
        <time>2013-03-02T14:45:14Z</time>
      </trkpt>
      <trkpt lat="44.77652" lon="-0.30835">
        <ele>82</ele>
        <time>2013-03-02T14:45:15Z</time>
      </trkpt>
      <trkpt lat="44.7767" lon="-0.30816">
        <ele>82</ele>
        <time>2013-03-02T14:45:23Z</time>
      </trkpt>
      <trkpt lat="44.77689" lon="-0.308">
        <ele>82</ele>
        <time>2013-03-02T14:45:30Z</time>
      </trkpt>
      <trkpt lat="44.77708" lon="-0.30785">
        <ele>81</ele>
        <time>2013-03-02T14:45:36Z</time>
      </trkpt>
      <trkpt lat="44.77727" lon="-0.3077">
        <ele>82</ele>
        <time>2013-03-02T14:45:43Z</time>
      </trkpt>
      <trkpt lat="44.77738" lon="-0.30763">
        <ele>82</ele>
        <time>2013-03-02T14:45:48Z</time>
      </trkpt>
      <trkpt lat="44.77759" lon="-0.30758">
        <ele>82</ele>
        <time>2013-03-02T14:45:55Z</time>
      </trkpt>
      <trkpt lat="44.77777" lon="-0.30757">
        <ele>83</ele>
        <time>2013-03-02T14:46:01Z</time>
      </trkpt>
      <trkpt lat="44.77796" lon="-0.30757">
        <ele>83</ele>
        <time>2013-03-02T14:46:08Z</time>
      </trkpt>
      <trkpt lat="44.77816" lon="-0.30752">
        <ele>84</ele>
        <time>2013-03-02T14:46:15Z</time>
      </trkpt>
      <trkpt lat="44.77831" lon="-0.30753">
        <ele>85</ele>
        <time>2013-03-02T14:46:21Z</time>
      </trkpt>
      <trkpt lat="44.77843" lon="-0.3076">
        <ele>85</ele>
        <time>2013-03-02T14:46:28Z</time>
      </trkpt>
      <trkpt lat="44.77851" lon="-0.30759">
        <ele>85</ele>
        <time>2013-03-02T14:46:31Z</time>
      </trkpt>
      <trkpt lat="44.77853" lon="-0.30757">
        <ele>85</ele>
        <time>2013-03-02T14:46:32Z</time>
      </trkpt>
      <trkpt lat="44.77855" lon="-0.30755">
        <ele>86</ele>
        <time>2013-03-02T14:46:33Z</time>
      </trkpt>
      <trkpt lat="44.77857" lon="-0.30754">
        <ele>86</ele>
        <time>2013-03-02T14:46:34Z</time>
      </trkpt>
      <trkpt lat="44.77858" lon="-0.30753">
        <ele>86</ele>
        <time>2013-03-02T14:46:35Z</time>
      </trkpt>
      <trkpt lat="44.7786" lon="-0.30752">
        <ele>86</ele>
        <time>2013-03-02T14:46:36Z</time>
      </trkpt>
      <trkpt lat="44.77861" lon="-0.30751">
        <ele>86</ele>
        <time>2013-03-02T14:46:37Z</time>
      </trkpt>
      <trkpt lat="44.77863" lon="-0.3075">
        <ele>87</ele>
        <time>2013-03-02T14:46:38Z</time>
      </trkpt>
      <trkpt lat="44.77865" lon="-0.30749">
        <ele>87</ele>
        <time>2013-03-02T14:46:39Z</time>
      </trkpt>
      <trkpt lat="44.77866" lon="-0.30748">
        <ele>87</ele>
        <time>2013-03-02T14:46:40Z</time>
      </trkpt>
      <trkpt lat="44.77868" lon="-0.30747">
        <ele>87</ele>
        <time>2013-03-02T14:46:41Z</time>
      </trkpt>
      <trkpt lat="44.77877" lon="-0.30738">
        <ele>88</ele>
        <time>2013-03-02T14:46:50Z</time>
      </trkpt>
      <trkpt lat="44.77881" lon="-0.30734">
        <ele>89</ele>
        <time>2013-03-02T14:46:56Z</time>
      </trkpt>
      <trkpt lat="44.77885" lon="-0.30728">
        <ele>89</ele>
        <time>2013-03-02T14:47:03Z</time>
      </trkpt>
      <trkpt lat="44.77888" lon="-0.30724">
        <ele>90</ele>
        <time>2013-03-02T14:47:09Z</time>
      </trkpt>
      <trkpt lat="44.77892" lon="-0.30721">
        <ele>90</ele>
        <time>2013-03-02T14:47:12Z</time>
      </trkpt>
      <trkpt lat="44.77893" lon="-0.30719">
        <ele>90</ele>
        <time>2013-03-02T14:47:13Z</time>
      </trkpt>
      <trkpt lat="44.779" lon="-0.30712">
        <ele>90</ele>
        <time>2013-03-02T14:47:20Z</time>
      </trkpt>
      <trkpt lat="44.77905" lon="-0.30708">
        <ele>91</ele>
        <time>2013-03-02T14:47:25Z</time>
      </trkpt>
      <trkpt lat="44.7791" lon="-0.30704">
        <ele>91</ele>
        <time>2013-03-02T14:47:31Z</time>
      </trkpt>
      <trkpt lat="44.77911" lon="-0.30701">
        <ele>91</ele>
        <time>2013-03-02T14:47:32Z</time>
      </trkpt>
      <trkpt lat="44.77914" lon="-0.30698">
        <ele>91</ele>
        <time>2013-03-02T14:47:35Z</time>
      </trkpt>
      <trkpt lat="44.77918" lon="-0.30692">
        <ele>92</ele>
        <time>2013-03-02T14:47:40Z</time>
      </trkpt>
      <trkpt lat="44.77928" lon="-0.30684">
        <ele>92</ele>
        <time>2013-03-02T14:47:46Z</time>
      </trkpt>
      <trkpt lat="44.77929" lon="-0.30682">
        <ele>92</ele>
        <time>2013-03-02T14:47:47Z</time>
      </trkpt>
      <trkpt lat="44.7793" lon="-0.30679">
        <ele>92</ele>
        <time>2013-03-02T14:47:49Z</time>
      </trkpt>
      <trkpt lat="44.77931" lon="-0.30677">
        <ele>92</ele>
        <time>2013-03-02T14:47:50Z</time>
      </trkpt>
      <trkpt lat="44.77933" lon="-0.30675">
        <ele>92</ele>
        <time>2013-03-02T14:47:51Z</time>
      </trkpt>
      <trkpt lat="44.77935" lon="-0.30674">
        <ele>92</ele>
        <time>2013-03-02T14:47:52Z</time>
      </trkpt>
      <trkpt lat="44.77937" lon="-0.30674">
        <ele>92</ele>
        <time>2013-03-02T14:47:53Z</time>
      </trkpt>
      <trkpt lat="44.77942" lon="-0.3067">
        <ele>92</ele>
        <time>2013-03-02T14:47:58Z</time>
      </trkpt>
      <trkpt lat="44.77943" lon="-0.30669">
        <ele>92</ele>
        <time>2013-03-02T14:48:10Z</time>
      </trkpt>
      <trkpt lat="44.77944" lon="-0.30669">
        <ele>92</ele>
        <time>2013-03-02T14:48:23Z</time>
      </trkpt>
      <trkpt lat="44.77945" lon="-0.30669">
        <ele>92</ele>
        <time>2013-03-02T14:48:31Z</time>
      </trkpt>
      <trkpt lat="44.77945" lon="-0.3067">
        <ele>92</ele>
        <time>2013-03-02T14:48:44Z</time>
      </trkpt>
      <trkpt lat="44.77945" lon="-0.3067">
        <ele>92</ele>
        <time>2013-03-02T14:48:59Z</time>
      </trkpt>
      <trkpt lat="44.77948" lon="-0.30669">
        <ele>92</ele>
        <time>2013-03-02T14:49:08Z</time>
      </trkpt>
      <trkpt lat="44.77953" lon="-0.30662">
        <ele>92</ele>
        <time>2013-03-02T14:49:15Z</time>
      </trkpt>
      <trkpt lat="44.77955" lon="-0.30662">
        <ele>92</ele>
        <time>2013-03-02T14:49:17Z</time>
      </trkpt>
      <trkpt lat="44.77957" lon="-0.30661">
        <ele>92</ele>
        <time>2013-03-02T14:49:18Z</time>
      </trkpt>
      <trkpt lat="44.77958" lon="-0.30662">
        <ele>91</ele>
        <time>2013-03-02T14:49:20Z</time>
      </trkpt>
      <trkpt lat="44.7796" lon="-0.30659">
        <ele>92</ele>
        <time>2013-03-02T14:49:22Z</time>
      </trkpt>
      <trkpt lat="44.77961" lon="-0.30657">
        <ele>92</ele>
        <time>2013-03-02T14:49:23Z</time>
      </trkpt>
      <trkpt lat="44.77962" lon="-0.30655">
        <ele>92</ele>
        <time>2013-03-02T14:49:24Z</time>
      </trkpt>
      <trkpt lat="44.77968" lon="-0.30646">
        <ele>92</ele>
        <time>2013-03-02T14:49:30Z</time>
      </trkpt>
      <trkpt lat="44.77969" lon="-0.30644">
        <ele>92</ele>
        <time>2013-03-02T14:49:31Z</time>
      </trkpt>
      <trkpt lat="44.7797" lon="-0.30643">
        <ele>92</ele>
        <time>2013-03-02T14:49:32Z</time>
      </trkpt>
      <trkpt lat="44.77972" lon="-0.30641">
        <ele>92</ele>
        <time>2013-03-02T14:49:33Z</time>
      </trkpt>
      <trkpt lat="44.77973" lon="-0.3064">
        <ele>92</ele>
        <time>2013-03-02T14:49:34Z</time>
      </trkpt>
      <trkpt lat="44.77975" lon="-0.30639">
        <ele>92</ele>
        <time>2013-03-02T14:49:35Z</time>
      </trkpt>
      <trkpt lat="44.77977" lon="-0.30638">
        <ele>92</ele>
        <time>2013-03-02T14:49:36Z</time>
      </trkpt>
      <trkpt lat="44.77979" lon="-0.30637">
        <ele>92</ele>
        <time>2013-03-02T14:49:37Z</time>
      </trkpt>
      <trkpt lat="44.77981" lon="-0.30635">
        <ele>92</ele>
        <time>2013-03-02T14:49:38Z</time>
      </trkpt>
      <trkpt lat="44.77983" lon="-0.30635">
        <ele>92</ele>
        <time>2013-03-02T14:49:39Z</time>
      </trkpt>
      <trkpt lat="44.77986" lon="-0.30634">
        <ele>91</ele>
        <time>2013-03-02T14:49:41Z</time>
      </trkpt>
      <trkpt lat="44.7799" lon="-0.3063">
        <ele>91</ele>
        <time>2013-03-02T14:49:44Z</time>
      </trkpt>
      <trkpt lat="44.77991" lon="-0.30627">
        <ele>92</ele>
        <time>2013-03-02T14:49:45Z</time>
      </trkpt>
      <trkpt lat="44.77993" lon="-0.30626">
        <ele>92</ele>
        <time>2013-03-02T14:49:46Z</time>
      </trkpt>
      <trkpt lat="44.77995" lon="-0.30625">
        <ele>91</ele>
        <time>2013-03-02T14:49:47Z</time>
      </trkpt>
      <trkpt lat="44.77997" lon="-0.30623">
        <ele>91</ele>
        <time>2013-03-02T14:49:48Z</time>
      </trkpt>
      <trkpt lat="44.78001" lon="-0.30622">
        <ele>91</ele>
        <time>2013-03-02T14:49:50Z</time>
      </trkpt>
      <trkpt lat="44.78003" lon="-0.30621">
        <ele>91</ele>
        <time>2013-03-02T14:49:52Z</time>
      </trkpt>
      <trkpt lat="44.78006" lon="-0.3062">
        <ele>91</ele>
        <time>2013-03-02T14:49:53Z</time>
      </trkpt>
      <trkpt lat="44.78007" lon="-0.30619">
        <ele>91</ele>
        <time>2013-03-02T14:49:54Z</time>
      </trkpt>
      <trkpt lat="44.78009" lon="-0.30614">
        <ele>91</ele>
        <time>2013-03-02T14:49:59Z</time>
      </trkpt>
      <trkpt lat="44.78009" lon="-0.30612">
        <ele>91</ele>
        <time>2013-03-02T14:50:00Z</time>
      </trkpt>
      <trkpt lat="44.7801" lon="-0.30611">
        <ele>92</ele>
        <time>2013-03-02T14:50:01Z</time>
      </trkpt>
      <trkpt lat="44.78012" lon="-0.30611">
        <ele>91</ele>
        <time>2013-03-02T14:50:02Z</time>
      </trkpt>
      <trkpt lat="44.78014" lon="-0.30611">
        <ele>91</ele>
        <time>2013-03-02T14:50:03Z</time>
      </trkpt>
      <trkpt lat="44.78016" lon="-0.3061">
        <ele>91</ele>
        <time>2013-03-02T14:50:04Z</time>
      </trkpt>
      <trkpt lat="44.78018" lon="-0.3061">
        <ele>91</ele>
        <time>2013-03-02T14:50:05Z</time>
      </trkpt>
      <trkpt lat="44.7802" lon="-0.30609">
        <ele>91</ele>
        <time>2013-03-02T14:50:12Z</time>
      </trkpt>
      <trkpt lat="44.78021" lon="-0.30607">
        <ele>91</ele>
        <time>2013-03-02T14:50:18Z</time>
      </trkpt>
      <trkpt lat="44.78022" lon="-0.30606">
        <ele>91</ele>
        <time>2013-03-02T14:50:20Z</time>
      </trkpt>
      <trkpt lat="44.78022" lon="-0.30604">
        <ele>92</ele>
        <time>2013-03-02T14:50:21Z</time>
      </trkpt>
      <trkpt lat="44.78023" lon="-0.30596">
        <ele>92</ele>
        <time>2013-03-02T14:50:27Z</time>
      </trkpt>
      <trkpt lat="44.78025" lon="-0.30589">
        <ele>93</ele>
        <time>2013-03-02T14:50:34Z</time>
      </trkpt>
      <trkpt lat="44.78026" lon="-0.30588">
        <ele>93</ele>
        <time>2013-03-02T14:50:40Z</time>
      </trkpt>
      <trkpt lat="44.78026" lon="-0.30587">
        <ele>93</ele>
        <time>2013-03-02T14:50:49Z</time>
      </trkpt>
      <trkpt lat="44.78026" lon="-0.30588">
        <ele>93</ele>
        <time>2013-03-02T14:50:54Z</time>
      </trkpt>
      <trkpt lat="44.78026" lon="-0.30594">
        <ele>92</ele>
        <time>2013-03-02T14:51:01Z</time>
      </trkpt>
      <trkpt lat="44.78027" lon="-0.30597">
        <ele>92</ele>
        <time>2013-03-02T14:51:07Z</time>
      </trkpt>
      <trkpt lat="44.78026" lon="-0.30599">
        <ele>92</ele>
        <time>2013-03-02T14:51:17Z</time>
      </trkpt>
      <trkpt lat="44.78026" lon="-0.30603">
        <ele>91</ele>
        <time>2013-03-02T14:51:21Z</time>
      </trkpt>
      <trkpt lat="44.78027" lon="-0.30607">
        <ele>91</ele>
        <time>2013-03-02T14:51:28Z</time>
      </trkpt>
      <trkpt lat="44.78026" lon="-0.30608">
        <ele>91</ele>
        <time>2013-03-02T14:51:39Z</time>
      </trkpt>
      <trkpt lat="44.78029" lon="-0.30608">
        <ele>91</ele>
        <time>2013-03-02T14:51:44Z</time>
      </trkpt>
      <trkpt lat="44.7803" lon="-0.30608">
        <ele>91</ele>
        <time>2013-03-02T14:51:45Z</time>
      </trkpt>
      <trkpt lat="44.78031" lon="-0.30606">
        <ele>91</ele>
        <time>2013-03-02T14:51:46Z</time>
      </trkpt>
      <trkpt lat="44.78032" lon="-0.30605">
        <ele>91</ele>
        <time>2013-03-02T14:51:47Z</time>
      </trkpt>
      <trkpt lat="44.78033" lon="-0.30604">
        <ele>91</ele>
        <time>2013-03-02T14:51:48Z</time>
      </trkpt>
      <trkpt lat="44.78035" lon="-0.30602">
        <ele>91</ele>
        <time>2013-03-02T14:51:50Z</time>
      </trkpt>
      <trkpt lat="44.78036" lon="-0.30601">
        <ele>91</ele>
        <time>2013-03-02T14:51:51Z</time>
      </trkpt>
      <trkpt lat="44.78038" lon="-0.306">
        <ele>91</ele>
        <time>2013-03-02T14:51:52Z</time>
      </trkpt>
      <trkpt lat="44.7804" lon="-0.306">
        <ele>91</ele>
        <time>2013-03-02T14:51:53Z</time>
      </trkpt>
      <trkpt lat="44.78041" lon="-0.30599">
        <ele>91</ele>
        <time>2013-03-02T14:51:54Z</time>
      </trkpt>
      <trkpt lat="44.78043" lon="-0.30599">
        <ele>91</ele>
        <time>2013-03-02T14:51:55Z</time>
      </trkpt>
      <trkpt lat="44.78044" lon="-0.30597">
        <ele>91</ele>
        <time>2013-03-02T14:51:56Z</time>
      </trkpt>
      <trkpt lat="44.78049" lon="-0.30593">
        <ele>91</ele>
        <time>2013-03-02T14:52:01Z</time>
      </trkpt>
      <trkpt lat="44.78051" lon="-0.30589">
        <ele>92</ele>
        <time>2013-03-02T14:52:03Z</time>
      </trkpt>
      <trkpt lat="44.78049" lon="-0.30583">
        <ele>92</ele>
        <time>2013-03-02T14:52:06Z</time>
      </trkpt>
      <trkpt lat="44.78044" lon="-0.30568">
        <ele>94</ele>
        <time>2013-03-02T14:52:12Z</time>
      </trkpt>
      <trkpt lat="44.78043" lon="-0.3055">
        <ele>96</ele>
        <time>2013-03-02T14:52:19Z</time>
      </trkpt>
      <trkpt lat="44.78044" lon="-0.30544">
        <ele>97</ele>
        <time>2013-03-02T14:52:21Z</time>
      </trkpt>
      <trkpt lat="44.78041" lon="-0.30539">
        <ele>98</ele>
        <time>2013-03-02T14:52:26Z</time>
      </trkpt>
      <trkpt lat="44.78041" lon="-0.30538">
        <ele>98</ele>
        <time>2013-03-02T14:52:35Z</time>
      </trkpt>
      <trkpt lat="44.78039" lon="-0.30539">
        <ele>98</ele>
        <time>2013-03-02T14:52:55Z</time>
      </trkpt>
      <trkpt lat="44.78038" lon="-0.3054">
        <ele>98</ele>
        <time>2013-03-02T14:53:11Z</time>
      </trkpt>
      <trkpt lat="44.78038" lon="-0.30538">
        <ele>98</ele>
        <time>2013-03-02T14:53:26Z</time>
      </trkpt>
      <trkpt lat="44.78038" lon="-0.30538">
        <ele>98</ele>
        <time>2013-03-02T14:53:33Z</time>
      </trkpt>
      <trkpt lat="44.7804" lon="-0.30536">
        <ele>98</ele>
        <time>2013-03-02T14:53:45Z</time>
      </trkpt>
      <trkpt lat="44.78043" lon="-0.30527">
        <ele>99</ele>
        <time>2013-03-02T14:53:51Z</time>
      </trkpt>
      <trkpt lat="44.78046" lon="-0.30522">
        <ele>99</ele>
        <time>2013-03-02T14:53:54Z</time>
      </trkpt>
      <trkpt lat="44.78055" lon="-0.30503">
        <ele>100</ele>
        <time>2013-03-02T14:54:01Z</time>
      </trkpt>
      <trkpt lat="44.78062" lon="-0.30486">
        <ele>100</ele>
        <time>2013-03-02T14:54:09Z</time>
      </trkpt>
      <trkpt lat="44.78063" lon="-0.30484">
        <ele>100</ele>
        <time>2013-03-02T14:54:10Z</time>
      </trkpt>
      <trkpt lat="44.78072" lon="-0.30465">
        <ele>101</ele>
        <time>2013-03-02T14:54:18Z</time>
      </trkpt>
      <trkpt lat="44.78076" lon="-0.30452">
        <ele>101</ele>
        <time>2013-03-02T14:54:24Z</time>
      </trkpt>
      <trkpt lat="44.78077" lon="-0.30443">
        <ele>101</ele>
        <time>2013-03-02T14:54:28Z</time>
      </trkpt>
      <trkpt lat="44.78079" lon="-0.30423">
        <ele>101</ele>
        <time>2013-03-02T14:54:35Z</time>
      </trkpt>
      <trkpt lat="44.78081" lon="-0.30411">
        <ele>102</ele>
        <time>2013-03-02T14:54:39Z</time>
      </trkpt>
      <trkpt lat="44.78084" lon="-0.30391">
        <ele>102</ele>
        <time>2013-03-02T14:54:46Z</time>
      </trkpt>
      <trkpt lat="44.78086" lon="-0.3038">
        <ele>102</ele>
        <time>2013-03-02T14:54:50Z</time>
      </trkpt>
      <trkpt lat="44.78089" lon="-0.30364">
        <ele>102</ele>
        <time>2013-03-02T14:54:55Z</time>
      </trkpt>
      <trkpt lat="44.78096" lon="-0.30342">
        <ele>102</ele>
        <time>2013-03-02T14:55:02Z</time>
      </trkpt>
      <trkpt lat="44.781" lon="-0.3032">
        <ele>102</ele>
        <time>2013-03-02T14:55:08Z</time>
      </trkpt>
      <trkpt lat="44.78107" lon="-0.30299">
        <ele>101</ele>
        <time>2013-03-02T14:55:15Z</time>
      </trkpt>
      <trkpt lat="44.7811" lon="-0.30289">
        <ele>101</ele>
        <time>2013-03-02T14:55:22Z</time>
      </trkpt>
      <trkpt lat="44.7811" lon="-0.30288">
        <ele>101</ele>
        <time>2013-03-02T14:55:37Z</time>
      </trkpt>
      <trkpt lat="44.78112" lon="-0.30278">
        <ele>100</ele>
        <time>2013-03-02T14:55:44Z</time>
      </trkpt>
      <trkpt lat="44.78121" lon="-0.30256">
        <ele>100</ele>
        <time>2013-03-02T14:55:51Z</time>
      </trkpt>
      <trkpt lat="44.7813" lon="-0.30238">
        <ele>99</ele>
        <time>2013-03-02T14:55:57Z</time>
      </trkpt>
      <trkpt lat="44.78139" lon="-0.30218">
        <ele>98</ele>
        <time>2013-03-02T14:56:03Z</time>
      </trkpt>
      <trkpt lat="44.78146" lon="-0.30199">
        <ele>98</ele>
        <time>2013-03-02T14:56:08Z</time>
      </trkpt>
      <trkpt lat="44.78153" lon="-0.30168">
        <ele>96</ele>
        <time>2013-03-02T14:56:14Z</time>
      </trkpt>
      <trkpt lat="44.78165" lon="-0.30137">
        <ele>94</ele>
        <time>2013-03-02T14:56:20Z</time>
      </trkpt>
      <trkpt lat="44.78175" lon="-0.30115">
        <ele>93</ele>
        <time>2013-03-02T14:56:26Z</time>
      </trkpt>
      <trkpt lat="44.78188" lon="-0.30093">
        <ele>93</ele>
        <time>2013-03-02T14:56:32Z</time>
      </trkpt>
      <trkpt lat="44.78204" lon="-0.30075">
        <ele>93</ele>
        <time>2013-03-02T14:56:38Z</time>
      </trkpt>
      <trkpt lat="44.78221" lon="-0.30055">
        <ele>91</ele>
        <time>2013-03-02T14:56:45Z</time>
      </trkpt>
      <trkpt lat="44.78224" lon="-0.30048">
        <ele>90</ele>
        <time>2013-03-02T14:56:49Z</time>
      </trkpt>
      <trkpt lat="44.78229" lon="-0.30042">
        <ele>90</ele>
        <time>2013-03-02T14:56:55Z</time>
      </trkpt>
      <trkpt lat="44.78231" lon="-0.30037">
        <ele>90</ele>
        <time>2013-03-02T14:57:00Z</time>
      </trkpt>
      <trkpt lat="44.78247" lon="-0.30035">
        <ele>89</ele>
        <time>2013-03-02T14:57:06Z</time>
      </trkpt>
      <trkpt lat="44.7825" lon="-0.30034">
        <ele>89</ele>
        <time>2013-03-02T14:57:07Z</time>
      </trkpt>
      <trkpt lat="44.78279" lon="-0.30023">
        <ele>87</ele>
        <time>2013-03-02T14:57:15Z</time>
      </trkpt>
      <trkpt lat="44.78304" lon="-0.30007">
        <ele>86</ele>
        <time>2013-03-02T14:57:21Z</time>
      </trkpt>
      <trkpt lat="44.78308" lon="-0.30004">
        <ele>86</ele>
        <time>2013-03-02T14:57:22Z</time>
      </trkpt>
      <trkpt lat="44.78312" lon="-0.30001">
        <ele>86</ele>
        <time>2013-03-02T14:57:23Z</time>
      </trkpt>
      <trkpt lat="44.78347" lon="-0.29967">
        <ele>86</ele>
        <time>2013-03-02T14:57:31Z</time>
      </trkpt>
      <trkpt lat="44.78383" lon="-0.29931">
        <ele>85</ele>
        <time>2013-03-02T14:57:40Z</time>
      </trkpt>
      <trkpt lat="44.78419" lon="-0.29898">
        <ele>83</ele>
        <time>2013-03-02T14:57:49Z</time>
      </trkpt>
      <trkpt lat="44.78435" lon="-0.29886">
        <ele>83</ele>
        <time>2013-03-02T14:57:53Z</time>
      </trkpt>
      <trkpt lat="44.78439" lon="-0.29883">
        <ele>83</ele>
        <time>2013-03-02T14:57:54Z</time>
      </trkpt>
      <trkpt lat="44.78443" lon="-0.2988">
        <ele>82</ele>
        <time>2013-03-02T14:57:55Z</time>
      </trkpt>
      <trkpt lat="44.78463" lon="-0.29868">
        <ele>82</ele>
        <time>2013-03-02T14:58:00Z</time>
      </trkpt>
      <trkpt lat="44.78467" lon="-0.29865">
        <ele>82</ele>
        <time>2013-03-02T14:58:01Z</time>
      </trkpt>
      <trkpt lat="44.78471" lon="-0.29863">
        <ele>82</ele>
        <time>2013-03-02T14:58:02Z</time>
      </trkpt>
      <trkpt lat="44.78475" lon="-0.2986">
        <ele>82</ele>
        <time>2013-03-02T14:58:03Z</time>
      </trkpt>
      <trkpt lat="44.78478" lon="-0.29857">
        <ele>82</ele>
        <time>2013-03-02T14:58:04Z</time>
      </trkpt>
      <trkpt lat="44.78494" lon="-0.29845">
        <ele>82</ele>
        <time>2013-03-02T14:58:08Z</time>
      </trkpt>
      <trkpt lat="44.78498" lon="-0.29842">
        <ele>82</ele>
        <time>2013-03-02T14:58:09Z</time>
      </trkpt>
      <trkpt lat="44.78529" lon="-0.29823">
        <ele>81</ele>
        <time>2013-03-02T14:58:16Z</time>
      </trkpt>
      <trkpt lat="44.78534" lon="-0.29821">
        <ele>81</ele>
        <time>2013-03-02T14:58:17Z</time>
      </trkpt>
      <trkpt lat="44.78571" lon="-0.29799">
        <ele>81</ele>
        <time>2013-03-02T14:58:26Z</time>
      </trkpt>
      <trkpt lat="44.78575" lon="-0.29796">
        <ele>81</ele>
        <time>2013-03-02T14:58:27Z</time>
      </trkpt>
      <trkpt lat="44.78609" lon="-0.29773">
        <ele>82</ele>
        <time>2013-03-02T14:58:36Z</time>
      </trkpt>
      <trkpt lat="44.78619" lon="-0.29765">
        <ele>82</ele>
        <time>2013-03-02T14:58:39Z</time>
      </trkpt>
      <trkpt lat="44.78623" lon="-0.29762">
        <ele>82</ele>
        <time>2013-03-02T14:58:40Z</time>
      </trkpt>
      <trkpt lat="44.78626" lon="-0.29759">
        <ele>82</ele>
        <time>2013-03-02T14:58:41Z</time>
      </trkpt>
      <trkpt lat="44.78662" lon="-0.29739">
        <ele>84</ele>
        <time>2013-03-02T14:58:51Z</time>
      </trkpt>
      <trkpt lat="44.78676" lon="-0.29744">
        <ele>84</ele>
        <time>2013-03-02T14:58:57Z</time>
      </trkpt>
      <trkpt lat="44.7868" lon="-0.29752">
        <ele>84</ele>
        <time>2013-03-02T14:59:00Z</time>
      </trkpt>
      <trkpt lat="44.78686" lon="-0.29784">
        <ele>84</ele>
        <time>2013-03-02T14:59:09Z</time>
      </trkpt>
      <trkpt lat="44.78688" lon="-0.29829">
        <ele>82</ele>
        <time>2013-03-02T14:59:18Z</time>
      </trkpt>
      <trkpt lat="44.78692" lon="-0.29872">
        <ele>81</ele>
        <time>2013-03-02T14:59:26Z</time>
      </trkpt>
      <trkpt lat="44.78693" lon="-0.2991">
        <ele>81</ele>
        <time>2013-03-02T14:59:33Z</time>
      </trkpt>
      <trkpt lat="44.78698" lon="-0.29955">
        <ele>80</ele>
        <time>2013-03-02T14:59:40Z</time>
      </trkpt>
      <trkpt lat="44.78702" lon="-0.30013">
        <ele>79</ele>
        <time>2013-03-02T14:59:49Z</time>
      </trkpt>
      <trkpt lat="44.78704" lon="-0.30042">
        <ele>78</ele>
        <time>2013-03-02T14:59:53Z</time>
      </trkpt>
      <trkpt lat="44.78704" lon="-0.30072">
        <ele>77</ele>
        <time>2013-03-02T14:59:57Z</time>
      </trkpt>
      <trkpt lat="44.78699" lon="-0.30114">
        <ele>76</ele>
        <time>2013-03-02T15:00:03Z</time>
      </trkpt>
      <trkpt lat="44.78701" lon="-0.3016">
        <ele>75</ele>
        <time>2013-03-02T15:00:10Z</time>
      </trkpt>
      <trkpt lat="44.78702" lon="-0.30212">
        <ele>75</ele>
        <time>2013-03-02T15:00:18Z</time>
      </trkpt>
      <trkpt lat="44.78705" lon="-0.30258">
        <ele>74</ele>
        <time>2013-03-02T15:00:26Z</time>
      </trkpt>
      <trkpt lat="44.78707" lon="-0.30268">
        <ele>74</ele>
        <time>2013-03-02T15:00:29Z</time>
      </trkpt>
      <trkpt lat="44.78715" lon="-0.30276">
        <ele>74</ele>
        <time>2013-03-02T15:00:36Z</time>
      </trkpt>
      <trkpt lat="44.78716" lon="-0.30278">
        <ele>74</ele>
        <time>2013-03-02T15:00:37Z</time>
      </trkpt>
      <trkpt lat="44.78718" lon="-0.30286">
        <ele>74</ele>
        <time>2013-03-02T15:00:43Z</time>
      </trkpt>
      <trkpt lat="44.78721" lon="-0.30287">
        <ele>74</ele>
        <time>2013-03-02T15:00:50Z</time>
      </trkpt>
      <trkpt lat="44.78724" lon="-0.30287">
        <ele>74</ele>
        <time>2013-03-02T15:00:56Z</time>
      </trkpt>
      <trkpt lat="44.78726" lon="-0.30288">
        <ele>74</ele>
        <time>2013-03-02T15:01:09Z</time>
      </trkpt>
      <trkpt lat="44.78728" lon="-0.30289">
        <ele>74</ele>
        <time>2013-03-02T15:01:16Z</time>
      </trkpt>
      <trkpt lat="44.78728" lon="-0.30289">
        <ele>74</ele>
        <time>2013-03-02T15:01:27Z</time>
      </trkpt>
      <trkpt lat="44.78726" lon="-0.30289">
        <ele>74</ele>
        <time>2013-03-02T15:01:34Z</time>
      </trkpt>
      <trkpt lat="44.78725" lon="-0.3029">
        <ele>74</ele>
        <time>2013-03-02T15:01:40Z</time>
      </trkpt>
      <trkpt lat="44.78726" lon="-0.30297">
        <ele>74</ele>
        <time>2013-03-02T15:01:48Z</time>
      </trkpt>
      <trkpt lat="44.78726" lon="-0.30299">
        <ele>74</ele>
        <time>2013-03-02T15:01:56Z</time>
      </trkpt>
      <trkpt lat="44.78726" lon="-0.30305">
        <ele>74</ele>
        <time>2013-03-02T15:02:04Z</time>
      </trkpt>
      <trkpt lat="44.78726" lon="-0.30311">
        <ele>73</ele>
        <time>2013-03-02T15:02:12Z</time>
      </trkpt>
      <trkpt lat="44.78726" lon="-0.30317">
        <ele>73</ele>
        <time>2013-03-02T15:02:20Z</time>
      </trkpt>
      <trkpt lat="44.78726" lon="-0.30318">
        <ele>73</ele>
        <time>2013-03-02T15:02:35Z</time>
      </trkpt>
      <trkpt lat="44.78727" lon="-0.30328">
        <ele>73</ele>
        <time>2013-03-02T15:02:41Z</time>
      </trkpt>
      <trkpt lat="44.78727" lon="-0.30336">
        <ele>73</ele>
        <time>2013-03-02T15:02:47Z</time>
      </trkpt>
      <trkpt lat="44.78726" lon="-0.30346">
        <ele>73</ele>
        <time>2013-03-02T15:02:54Z</time>
      </trkpt>
      <trkpt lat="44.78726" lon="-0.30347">
        <ele>73</ele>
        <time>2013-03-02T15:03:05Z</time>
      </trkpt>
      <trkpt lat="44.78726" lon="-0.30347">
        <ele>73</ele>
        <time>2013-03-02T15:03:22Z</time>
      </trkpt>
      <trkpt lat="44.78726" lon="-0.30348">
        <ele>73</ele>
        <time>2013-03-02T15:03:30Z</time>
      </trkpt>
      <trkpt lat="44.78725" lon="-0.3035">
        <ele>73</ele>
        <time>2013-03-02T15:03:36Z</time>
      </trkpt>
      <trkpt lat="44.78725" lon="-0.30351">
        <ele>73</ele>
        <time>2013-03-02T15:03:41Z</time>
      </trkpt>
      <trkpt lat="44.78725" lon="-0.30353">
        <ele>73</ele>
        <time>2013-03-02T15:03:49Z</time>
      </trkpt>
      <trkpt lat="44.78725" lon="-0.30355">
        <ele>73</ele>
        <time>2013-03-02T15:03:50Z</time>
      </trkpt>
      <trkpt lat="44.78725" lon="-0.30376">
        <ele>73</ele>
        <time>2013-03-02T15:03:57Z</time>
      </trkpt>
      <trkpt lat="44.78725" lon="-0.30399">
        <ele>73</ele>
        <time>2013-03-02T15:04:05Z</time>
      </trkpt>
      <trkpt lat="44.78726" lon="-0.30425">
        <ele>73</ele>
        <time>2013-03-02T15:04:13Z</time>
      </trkpt>
      <trkpt lat="44.78729" lon="-0.30452">
        <ele>72</ele>
        <time>2013-03-02T15:04:21Z</time>
      </trkpt>
      <trkpt lat="44.78729" lon="-0.30481">
        <ele>72</ele>
        <time>2013-03-02T15:04:30Z</time>
      </trkpt>
      <trkpt lat="44.78728" lon="-0.30498">
        <ele>72</ele>
        <time>2013-03-02T15:04:35Z</time>
      </trkpt>
      <trkpt lat="44.78728" lon="-0.30525">
        <ele>72</ele>
        <time>2013-03-02T15:04:42Z</time>
      </trkpt>
      <trkpt lat="44.78728" lon="-0.30558">
        <ele>72</ele>
        <time>2013-03-02T15:04:49Z</time>
      </trkpt>
      <trkpt lat="44.78728" lon="-0.30596">
        <ele>71</ele>
        <time>2013-03-02T15:04:57Z</time>
      </trkpt>
      <trkpt lat="44.78727" lon="-0.3063">
        <ele>71</ele>
        <time>2013-03-02T15:05:04Z</time>
      </trkpt>
      <trkpt lat="44.78723" lon="-0.30669">
        <ele>72</ele>
        <time>2013-03-02T15:05:13Z</time>
      </trkpt>
      <trkpt lat="44.78721" lon="-0.30699">
        <ele>72</ele>
        <time>2013-03-02T15:05:22Z</time>
      </trkpt>
      <trkpt lat="44.78719" lon="-0.30721">
        <ele>72</ele>
        <time>2013-03-02T15:05:29Z</time>
      </trkpt>
      <trkpt lat="44.78717" lon="-0.30751">
        <ele>71</ele>
        <time>2013-03-02T15:05:36Z</time>
      </trkpt>
      <trkpt lat="44.78714" lon="-0.3079">
        <ele>71</ele>
        <time>2013-03-02T15:05:44Z</time>
      </trkpt>
      <trkpt lat="44.78711" lon="-0.30832">
        <ele>71</ele>
        <time>2013-03-02T15:05:52Z</time>
      </trkpt>
      <trkpt lat="44.7871" lon="-0.30872">
        <ele>70</ele>
        <time>2013-03-02T15:06:00Z</time>
      </trkpt>
      <trkpt lat="44.78707" lon="-0.30915">
        <ele>70</ele>
        <time>2013-03-02T15:06:08Z</time>
      </trkpt>
      <trkpt lat="44.78703" lon="-0.30952">
        <ele>70</ele>
        <time>2013-03-02T15:06:15Z</time>
      </trkpt>
      <trkpt lat="44.78699" lon="-0.31002">
        <ele>70</ele>
        <time>2013-03-02T15:06:24Z</time>
      </trkpt>
      <trkpt lat="44.78694" lon="-0.31064">
        <ele>69</ele>
        <time>2013-03-02T15:06:34Z</time>
      </trkpt>
      <trkpt lat="44.7869" lon="-0.31126">
        <ele>69</ele>
        <time>2013-03-02T15:06:44Z</time>
      </trkpt>
      <trkpt lat="44.78689" lon="-0.31155">
        <ele>70</ele>
        <time>2013-03-02T15:06:49Z</time>
      </trkpt>
      <trkpt lat="44.78689" lon="-0.31167">
        <ele>70</ele>
        <time>2013-03-02T15:06:51Z</time>
      </trkpt>
      <trkpt lat="44.78689" lon="-0.31173">
        <ele>70</ele>
        <time>2013-03-02T15:06:52Z</time>
      </trkpt>
      <trkpt lat="44.78689" lon="-0.31179">
        <ele>70</ele>
        <time>2013-03-02T15:06:53Z</time>
      </trkpt>
      <trkpt lat="44.78688" lon="-0.31222">
        <ele>71</ele>
        <time>2013-03-02T15:07:01Z</time>
      </trkpt>
      <trkpt lat="44.78687" lon="-0.31258">
        <ele>72</ele>
        <time>2013-03-02T15:07:08Z</time>
      </trkpt>
      <trkpt lat="44.78686" lon="-0.31293">
        <ele>72</ele>
        <time>2013-03-02T15:07:15Z</time>
      </trkpt>
      <trkpt lat="44.78687" lon="-0.31299">
        <ele>72</ele>
        <time>2013-03-02T15:07:16Z</time>
      </trkpt>
      <trkpt lat="44.78686" lon="-0.31337">
        <ele>72</ele>
        <time>2013-03-02T15:07:23Z</time>
      </trkpt>
      <trkpt lat="44.78687" lon="-0.3136">
        <ele>72</ele>
        <time>2013-03-02T15:07:27Z</time>
      </trkpt>
      <trkpt lat="44.78689" lon="-0.31384">
        <ele>72</ele>
        <time>2013-03-02T15:07:31Z</time>
      </trkpt>
      <trkpt lat="44.7869" lon="-0.31419">
        <ele>72</ele>
        <time>2013-03-02T15:07:36Z</time>
      </trkpt>
      <trkpt lat="44.78693" lon="-0.31448">
        <ele>71</ele>
        <time>2013-03-02T15:07:40Z</time>
      </trkpt>
      <trkpt lat="44.78697" lon="-0.31488">
        <ele>70</ele>
        <time>2013-03-02T15:07:46Z</time>
      </trkpt>
      <trkpt lat="44.78697" lon="-0.31494">
        <ele>70</ele>
        <time>2013-03-02T15:07:47Z</time>
      </trkpt>
      <trkpt lat="44.78696" lon="-0.31551">
        <ele>69</ele>
        <time>2013-03-02T15:07:56Z</time>
      </trkpt>
      <trkpt lat="44.78695" lon="-0.31585">
        <ele>68</ele>
        <time>2013-03-02T15:08:01Z</time>
      </trkpt>
      <trkpt lat="44.78694" lon="-0.31596">
        <ele>68</ele>
        <time>2013-03-02T15:08:03Z</time>
      </trkpt>
      <trkpt lat="44.78692" lon="-0.31607">
        <ele>68</ele>
        <time>2013-03-02T15:08:05Z</time>
      </trkpt>
      <trkpt lat="44.78685" lon="-0.31646">
        <ele>67</ele>
        <time>2013-03-02T15:08:12Z</time>
      </trkpt>
      <trkpt lat="44.78679" lon="-0.3168">
        <ele>66</ele>
        <time>2013-03-02T15:08:19Z</time>
      </trkpt>
      <trkpt lat="44.78672" lon="-0.31711">
        <ele>66</ele>
        <time>2013-03-02T15:08:25Z</time>
      </trkpt>
      <trkpt lat="44.78664" lon="-0.31746">
        <ele>66</ele>
        <time>2013-03-02T15:08:32Z</time>
      </trkpt>
      <trkpt lat="44.78655" lon="-0.31784">
        <ele>66</ele>
        <time>2013-03-02T15:08:40Z</time>
      </trkpt>
      <trkpt lat="44.78652" lon="-0.31806">
        <ele>66</ele>
        <time>2013-03-02T15:08:46Z</time>
      </trkpt>
      <trkpt lat="44.78651" lon="-0.31807">
        <ele>66</ele>
        <time>2013-03-02T15:08:47Z</time>
      </trkpt>
      <trkpt lat="44.7865" lon="-0.31807">
        <ele>66</ele>
        <time>2013-03-02T15:08:48Z</time>
      </trkpt>
      <trkpt lat="44.78649" lon="-0.31806">
        <ele>66</ele>
        <time>2013-03-02T15:08:53Z</time>
      </trkpt>
      <trkpt lat="44.78649" lon="-0.31806">
        <ele>66</ele>
        <time>2013-03-02T15:08:58Z</time>
      </trkpt>
      <trkpt lat="44.78647" lon="-0.31806">
        <ele>66</ele>
        <time>2013-03-02T15:08:59Z</time>
      </trkpt>
      <trkpt lat="44.78634" lon="-0.31803">
        <ele>65</ele>
        <time>2013-03-02T15:09:07Z</time>
      </trkpt>
      <trkpt lat="44.78622" lon="-0.31802">
        <ele>65</ele>
        <time>2013-03-02T15:09:13Z</time>
      </trkpt>
      <trkpt lat="44.786" lon="-0.318">
        <ele>64</ele>
        <time>2013-03-02T15:09:22Z</time>
      </trkpt>
      <trkpt lat="44.78577" lon="-0.31794">
        <ele>63</ele>
        <time>2013-03-02T15:09:30Z</time>
      </trkpt>
      <trkpt lat="44.78557" lon="-0.31788">
        <ele>63</ele>
        <time>2013-03-02T15:09:37Z</time>
      </trkpt>
      <trkpt lat="44.78545" lon="-0.31781">
        <ele>62</ele>
        <time>2013-03-02T15:09:42Z</time>
      </trkpt>
      <trkpt lat="44.78524" lon="-0.31771">
        <ele>61</ele>
        <time>2013-03-02T15:09:50Z</time>
      </trkpt>
      <trkpt lat="44.78501" lon="-0.31762">
        <ele>61</ele>
        <time>2013-03-02T15:09:59Z</time>
      </trkpt>
      <trkpt lat="44.78479" lon="-0.31756">
        <ele>60</ele>
        <time>2013-03-02T15:10:05Z</time>
      </trkpt>
      <trkpt lat="44.78458" lon="-0.31751">
        <ele>60</ele>
        <time>2013-03-02T15:10:12Z</time>
      </trkpt>
      <trkpt lat="44.78437" lon="-0.31746">
        <ele>60</ele>
        <time>2013-03-02T15:10:19Z</time>
      </trkpt>
      <trkpt lat="44.78424" lon="-0.31749">
        <ele>60</ele>
        <time>2013-03-02T15:10:23Z</time>
      </trkpt>
      <trkpt lat="44.78415" lon="-0.31752">
        <ele>61</ele>
        <time>2013-03-02T15:10:26Z</time>
      </trkpt>
      <trkpt lat="44.78403" lon="-0.31758">
        <ele>62</ele>
        <time>2013-03-02T15:10:29Z</time>
      </trkpt>
      <trkpt lat="44.78387" lon="-0.31763">
        <ele>63</ele>
        <time>2013-03-02T15:10:32Z</time>
      </trkpt>
      <trkpt lat="44.78353" lon="-0.31763">
        <ele>64</ele>
        <time>2013-03-02T15:10:39Z</time>
      </trkpt>
      <trkpt lat="44.78332" lon="-0.31763">
        <ele>65</ele>
        <time>2013-03-02T15:10:45Z</time>
      </trkpt>
      <trkpt lat="44.7831" lon="-0.31761">
        <ele>66</ele>
        <time>2013-03-02T15:10:51Z</time>
      </trkpt>
      <trkpt lat="44.78302" lon="-0.31758">
        <ele>66</ele>
        <time>2013-03-02T15:10:55Z</time>
      </trkpt>
      <trkpt lat="44.78302" lon="-0.31758">
        <ele>66</ele>
        <time>2013-03-02T15:11:02Z</time>
      </trkpt>
      <trkpt lat="44.78302" lon="-0.3176">
        <ele>66</ele>
        <time>2013-03-02T15:11:09Z</time>
      </trkpt>
      <trkpt lat="44.78302" lon="-0.3176">
        <ele>66</ele>
        <time>2013-03-02T15:11:27Z</time>
      </trkpt>
      <trkpt lat="44.78303" lon="-0.3176">
        <ele>66</ele>
        <time>2013-03-02T15:11:41Z</time>
      </trkpt>
      <trkpt lat="44.78302" lon="-0.3176">
        <ele>66</ele>
        <time>2013-03-02T15:11:58Z</time>
      </trkpt>
      <trkpt lat="44.78302" lon="-0.31759">
        <ele>66</ele>
        <time>2013-03-02T15:12:05Z</time>
      </trkpt>
      <trkpt lat="44.78292" lon="-0.31755">
        <ele>66</ele>
        <time>2013-03-02T15:12:11Z</time>
      </trkpt>
      <trkpt lat="44.78275" lon="-0.31754">
        <ele>67</ele>
        <time>2013-03-02T15:12:17Z</time>
      </trkpt>
      <trkpt lat="44.78267" lon="-0.31753">
        <ele>67</ele>
        <time>2013-03-02T15:12:21Z</time>
      </trkpt>
      <trkpt lat="44.78251" lon="-0.31749">
        <ele>67</ele>
        <time>2013-03-02T15:12:30Z</time>
      </trkpt>
      <trkpt lat="44.78243" lon="-0.31747">
        <ele>67</ele>
        <time>2013-03-02T15:12:36Z</time>
      </trkpt>
      <trkpt lat="44.78232" lon="-0.31751">
        <ele>67</ele>
        <time>2013-03-02T15:12:41Z</time>
      </trkpt>
      <trkpt lat="44.78228" lon="-0.31748">
        <ele>67</ele>
        <time>2013-03-02T15:12:43Z</time>
      </trkpt>
      <trkpt lat="44.78211" lon="-0.31745">
        <ele>67</ele>
        <time>2013-03-02T15:12:50Z</time>
      </trkpt>
      <trkpt lat="44.78195" lon="-0.31739">
        <ele>67</ele>
        <time>2013-03-02T15:12:57Z</time>
      </trkpt>
      <trkpt lat="44.78177" lon="-0.31738">
        <ele>67</ele>
        <time>2013-03-02T15:13:05Z</time>
      </trkpt>
      <trkpt lat="44.78151" lon="-0.3174">
        <ele>67</ele>
        <time>2013-03-02T15:13:15Z</time>
      </trkpt>
      <trkpt lat="44.78131" lon="-0.31742">
        <ele>67</ele>
        <time>2013-03-02T15:13:24Z</time>
      </trkpt>
      <trkpt lat="44.7812" lon="-0.31743">
        <ele>67</ele>
        <time>2013-03-02T15:13:30Z</time>
      </trkpt>
      <trkpt lat="44.78114" lon="-0.31744">
        <ele>67</ele>
        <time>2013-03-02T15:13:37Z</time>
      </trkpt>
      <trkpt lat="44.78114" lon="-0.31744">
        <ele>67</ele>
        <time>2013-03-02T15:13:46Z</time>
      </trkpt>
      <trkpt lat="44.78114" lon="-0.31744">
        <ele>67</ele>
        <time>2013-03-02T15:14:02Z</time>
      </trkpt>
      <trkpt lat="44.78113" lon="-0.31744">
        <ele>67</ele>
        <time>2013-03-02T15:14:18Z</time>
      </trkpt>
      <trkpt lat="44.78113" lon="-0.31744">
        <ele>66</ele>
        <time>2013-03-02T15:14:29Z</time>
      </trkpt>
      <trkpt lat="44.78113" lon="-0.31744">
        <ele>66</ele>
        <time>2013-03-02T15:14:42Z</time>
      </trkpt>
      <trkpt lat="44.78113" lon="-0.31744">
        <ele>66</ele>
        <time>2013-03-02T15:14:59Z</time>
      </trkpt>
      <trkpt lat="44.78113" lon="-0.31744">
        <ele>66</ele>
        <time>2013-03-02T15:15:06Z</time>
      </trkpt>
      <trkpt lat="44.78111" lon="-0.31743">
        <ele>66</ele>
        <time>2013-03-02T15:15:08Z</time>
      </trkpt>
      <trkpt lat="44.78108" lon="-0.31742">
        <ele>66</ele>
        <time>2013-03-02T15:15:14Z</time>
      </trkpt>
      <trkpt lat="44.78108" lon="-0.31742">
        <ele>66</ele>
        <time>2013-03-02T15:15:26Z</time>
      </trkpt>
      <trkpt lat="44.78108" lon="-0.31742">
        <ele>66</ele>
        <time>2013-03-02T15:15:39Z</time>
      </trkpt>
      <trkpt lat="44.78107" lon="-0.31742">
        <ele>66</ele>
        <time>2013-03-02T15:15:49Z</time>
      </trkpt>
      <trkpt lat="44.78107" lon="-0.31742">
        <ele>66</ele>
        <time>2013-03-02T15:15:54Z</time>
      </trkpt>
      <trkpt lat="44.78108" lon="-0.3175">
        <ele>66</ele>
        <time>2013-03-02T15:15:58Z</time>
      </trkpt>
      <trkpt lat="44.78112" lon="-0.31763">
        <ele>66</ele>
        <time>2013-03-02T15:16:04Z</time>
      </trkpt>
      <trkpt lat="44.78115" lon="-0.31771">
        <ele>66</ele>
        <time>2013-03-02T15:16:08Z</time>
      </trkpt>
      <trkpt lat="44.78125" lon="-0.31798">
        <ele>66</ele>
        <time>2013-03-02T15:16:17Z</time>
      </trkpt>
      <trkpt lat="44.78134" lon="-0.31827">
        <ele>66</ele>
        <time>2013-03-02T15:16:25Z</time>
      </trkpt>
      <trkpt lat="44.78144" lon="-0.31851">
        <ele>65</ele>
        <time>2013-03-02T15:16:31Z</time>
      </trkpt>
      <trkpt lat="44.78158" lon="-0.31888">
        <ele>64</ele>
        <time>2013-03-02T15:16:39Z</time>
      </trkpt>
      <trkpt lat="44.78175" lon="-0.31935">
        <ele>63</ele>
        <time>2013-03-02T15:16:48Z</time>
      </trkpt>
      <trkpt lat="44.78178" lon="-0.3194">
        <ele>63</ele>
        <time>2013-03-02T15:16:49Z</time>
      </trkpt>
      <trkpt lat="44.7818" lon="-0.31945">
        <ele>63</ele>
        <time>2013-03-02T15:16:50Z</time>
      </trkpt>
      <trkpt lat="44.78195" lon="-0.31988">
        <ele>62</ele>
        <time>2013-03-02T15:16:58Z</time>
      </trkpt>
      <trkpt lat="44.78208" lon="-0.32023">
        <ele>60</ele>
        <time>2013-03-02T15:17:05Z</time>
      </trkpt>
      <trkpt lat="44.78221" lon="-0.32057">
        <ele>60</ele>
        <time>2013-03-02T15:17:12Z</time>
      </trkpt>
      <trkpt lat="44.78222" lon="-0.32063">
        <ele>60</ele>
        <time>2013-03-02T15:17:13Z</time>
      </trkpt>
      <trkpt lat="44.78224" lon="-0.32068">
        <ele>60</ele>
        <time>2013-03-02T15:17:14Z</time>
      </trkpt>
      <trkpt lat="44.78226" lon="-0.32074">
        <ele>60</ele>
        <time>2013-03-02T15:17:15Z</time>
      </trkpt>
      <trkpt lat="44.78238" lon="-0.32104">
        <ele>59</ele>
        <time>2013-03-02T15:17:21Z</time>
      </trkpt>
      <trkpt lat="44.78252" lon="-0.32136">
        <ele>59</ele>
        <time>2013-03-02T15:17:28Z</time>
      </trkpt>
      <trkpt lat="44.78264" lon="-0.32169">
        <ele>59</ele>
        <time>2013-03-02T15:17:35Z</time>
      </trkpt>
      <trkpt lat="44.78274" lon="-0.32193">
        <ele>60</ele>
        <time>2013-03-02T15:17:40Z</time>
      </trkpt>
      <trkpt lat="44.78286" lon="-0.32225">
        <ele>61</ele>
        <time>2013-03-02T15:17:47Z</time>
      </trkpt>
      <trkpt lat="44.78306" lon="-0.32273">
        <ele>63</ele>
        <time>2013-03-02T15:17:57Z</time>
      </trkpt>
      <trkpt lat="44.78321" lon="-0.32315">
        <ele>65</ele>
        <time>2013-03-02T15:18:06Z</time>
      </trkpt>
      <trkpt lat="44.78331" lon="-0.32342">
        <ele>66</ele>
        <time>2013-03-02T15:18:12Z</time>
      </trkpt>
      <trkpt lat="44.78344" lon="-0.32377">
        <ele>67</ele>
        <time>2013-03-02T15:18:20Z</time>
      </trkpt>
      <trkpt lat="44.78356" lon="-0.32407">
        <ele>67</ele>
        <time>2013-03-02T15:18:27Z</time>
      </trkpt>
      <trkpt lat="44.7837" lon="-0.32445">
        <ele>67</ele>
        <time>2013-03-02T15:18:36Z</time>
      </trkpt>
      <trkpt lat="44.78381" lon="-0.32475">
        <ele>67</ele>
        <time>2013-03-02T15:18:44Z</time>
      </trkpt>
      <trkpt lat="44.78388" lon="-0.32488">
        <ele>67</ele>
        <time>2013-03-02T15:18:51Z</time>
      </trkpt>
      <trkpt lat="44.78389" lon="-0.32491">
        <ele>67</ele>
        <time>2013-03-02T15:18:57Z</time>
      </trkpt>
      <trkpt lat="44.7839" lon="-0.32493">
        <ele>67</ele>
        <time>2013-03-02T15:19:04Z</time>
      </trkpt>
      <trkpt lat="44.78392" lon="-0.32496">
        <ele>67</ele>
        <time>2013-03-02T15:19:06Z</time>
      </trkpt>
      <trkpt lat="44.78392" lon="-0.32499">
        <ele>67</ele>
        <time>2013-03-02T15:19:07Z</time>
      </trkpt>
      <trkpt lat="44.78397" lon="-0.32515">
        <ele>68</ele>
        <time>2013-03-02T15:19:14Z</time>
      </trkpt>
      <trkpt lat="44.78405" lon="-0.32535">
        <ele>68</ele>
        <time>2013-03-02T15:19:20Z</time>
      </trkpt>
      <trkpt lat="44.78415" lon="-0.32562">
        <ele>68</ele>
        <time>2013-03-02T15:19:27Z</time>
      </trkpt>
      <trkpt lat="44.78423" lon="-0.32587">
        <ele>69</ele>
        <time>2013-03-02T15:19:33Z</time>
      </trkpt>
      <trkpt lat="44.78432" lon="-0.32615">
        <ele>71</ele>
        <time>2013-03-02T15:19:40Z</time>
      </trkpt>
      <trkpt lat="44.78441" lon="-0.32646">
        <ele>72</ele>
        <time>2013-03-02T15:19:47Z</time>
      </trkpt>
      <trkpt lat="44.78449" lon="-0.32677">
        <ele>73</ele>
        <time>2013-03-02T15:19:53Z</time>
      </trkpt>
      <trkpt lat="44.78455" lon="-0.32706">
        <ele>73</ele>
        <time>2013-03-02T15:19:59Z</time>
      </trkpt>
      <trkpt lat="44.78461" lon="-0.32741">
        <ele>74</ele>
        <time>2013-03-02T15:20:06Z</time>
      </trkpt>
      <trkpt lat="44.78466" lon="-0.3277">
        <ele>74</ele>
        <time>2013-03-02T15:20:12Z</time>
      </trkpt>
      <trkpt lat="44.7847" lon="-0.328">
        <ele>74</ele>
        <time>2013-03-02T15:20:18Z</time>
      </trkpt>
      <trkpt lat="44.78474" lon="-0.32829">
        <ele>74</ele>
        <time>2013-03-02T15:20:24Z</time>
      </trkpt>
      <trkpt lat="44.78478" lon="-0.32872">
        <ele>74</ele>
        <time>2013-03-02T15:20:32Z</time>
      </trkpt>
      <trkpt lat="44.7848" lon="-0.32911">
        <ele>74</ele>
        <time>2013-03-02T15:20:39Z</time>
      </trkpt>
      <trkpt lat="44.78481" lon="-0.32931">
        <ele>74</ele>
        <time>2013-03-02T15:20:43Z</time>
      </trkpt>
      <trkpt lat="44.78482" lon="-0.32935">
        <ele>74</ele>
        <time>2013-03-02T15:20:44Z</time>
      </trkpt>
      <trkpt lat="44.78482" lon="-0.32941">
        <ele>74</ele>
        <time>2013-03-02T15:20:45Z</time>
      </trkpt>
      <trkpt lat="44.78482" lon="-0.32947">
        <ele>74</ele>
        <time>2013-03-02T15:20:46Z</time>
      </trkpt>
      <trkpt lat="44.78482" lon="-0.32952">
        <ele>74</ele>
        <time>2013-03-02T15:20:47Z</time>
      </trkpt>
      <trkpt lat="44.78481" lon="-0.32978">
        <ele>74</ele>
        <time>2013-03-02T15:20:52Z</time>
      </trkpt>
      <trkpt lat="44.7848" lon="-0.32998">
        <ele>75</ele>
        <time>2013-03-02T15:20:56Z</time>
      </trkpt>
      <trkpt lat="44.78481" lon="-0.33001">
        <ele>75</ele>
        <time>2013-03-02T15:20:57Z</time>
      </trkpt>
      <trkpt lat="44.78482" lon="-0.33026">
        <ele>74</ele>
        <time>2013-03-02T15:21:03Z</time>
      </trkpt>
      <trkpt lat="44.7848" lon="-0.33053">
        <ele>74</ele>
        <time>2013-03-02T15:21:09Z</time>
      </trkpt>
      <trkpt lat="44.78481" lon="-0.33066">
        <ele>73</ele>
        <time>2013-03-02T15:21:12Z</time>
      </trkpt>
      <trkpt lat="44.78481" lon="-0.33071">
        <ele>73</ele>
        <time>2013-03-02T15:21:13Z</time>
      </trkpt>
      <trkpt lat="44.7848" lon="-0.33076">
        <ele>73</ele>
        <time>2013-03-02T15:21:14Z</time>
      </trkpt>
      <trkpt lat="44.7848" lon="-0.33081">
        <ele>73</ele>
        <time>2013-03-02T15:21:15Z</time>
      </trkpt>
      <trkpt lat="44.78476" lon="-0.33116">
        <ele>73</ele>
        <time>2013-03-02T15:21:22Z</time>
      </trkpt>
      <trkpt lat="44.78474" lon="-0.3313">
        <ele>73</ele>
        <time>2013-03-02T15:21:25Z</time>
      </trkpt>
      <trkpt lat="44.78474" lon="-0.33135">
        <ele>74</ele>
        <time>2013-03-02T15:21:26Z</time>
      </trkpt>
      <trkpt lat="44.78474" lon="-0.33139">
        <ele>74</ele>
        <time>2013-03-02T15:21:27Z</time>
      </trkpt>
      <trkpt lat="44.78474" lon="-0.33143">
        <ele>74</ele>
        <time>2013-03-02T15:21:28Z</time>
      </trkpt>
      <trkpt lat="44.78474" lon="-0.33148">
        <ele>74</ele>
        <time>2013-03-02T15:21:29Z</time>
      </trkpt>
      <trkpt lat="44.78474" lon="-0.33152">
        <ele>74</ele>
        <time>2013-03-02T15:21:30Z</time>
      </trkpt>
      <trkpt lat="44.78474" lon="-0.33157">
        <ele>74</ele>
        <time>2013-03-02T15:21:31Z</time>
      </trkpt>
      <trkpt lat="44.78474" lon="-0.33161">
        <ele>75</ele>
        <time>2013-03-02T15:21:32Z</time>
      </trkpt>
      <trkpt lat="44.78473" lon="-0.33166">
        <ele>75</ele>
        <time>2013-03-02T15:21:33Z</time>
      </trkpt>
      <trkpt lat="44.7847" lon="-0.33191">
        <ele>76</ele>
        <time>2013-03-02T15:21:39Z</time>
      </trkpt>
      <trkpt lat="44.78469" lon="-0.33219">
        <ele>77</ele>
        <time>2013-03-02T15:21:45Z</time>
      </trkpt>
      <trkpt lat="44.78469" lon="-0.33244">
        <ele>78</ele>
        <time>2013-03-02T15:21:51Z</time>
      </trkpt>
      <trkpt lat="44.78469" lon="-0.33266">
        <ele>79</ele>
        <time>2013-03-02T15:21:56Z</time>
      </trkpt>
      <trkpt lat="44.78467" lon="-0.33288">
        <ele>79</ele>
        <time>2013-03-02T15:22:01Z</time>
      </trkpt>
      <trkpt lat="44.78467" lon="-0.33292">
        <ele>79</ele>
        <time>2013-03-02T15:22:02Z</time>
      </trkpt>
      <trkpt lat="44.78466" lon="-0.33296">
        <ele>79</ele>
        <time>2013-03-02T15:22:03Z</time>
      </trkpt>
      <trkpt lat="44.78466" lon="-0.3333">
        <ele>80</ele>
        <time>2013-03-02T15:22:10Z</time>
      </trkpt>
      <trkpt lat="44.78463" lon="-0.33357">
        <ele>80</ele>
        <time>2013-03-02T15:22:16Z</time>
      </trkpt>
      <trkpt lat="44.78458" lon="-0.33392">
        <ele>80</ele>
        <time>2013-03-02T15:22:24Z</time>
      </trkpt>
      <trkpt lat="44.78456" lon="-0.3342">
        <ele>79</ele>
        <time>2013-03-02T15:22:30Z</time>
      </trkpt>
      <trkpt lat="44.78453" lon="-0.33451">
        <ele>79</ele>
        <time>2013-03-02T15:22:37Z</time>
      </trkpt>
      <trkpt lat="44.78449" lon="-0.33485">
        <ele>79</ele>
        <time>2013-03-02T15:22:44Z</time>
      </trkpt>
      <trkpt lat="44.78445" lon="-0.33518">
        <ele>79</ele>
        <time>2013-03-02T15:22:51Z</time>
      </trkpt>
      <trkpt lat="44.78439" lon="-0.33545">
        <ele>80</ele>
        <time>2013-03-02T15:22:57Z</time>
      </trkpt>
      <trkpt lat="44.78432" lon="-0.33576">
        <ele>80</ele>
        <time>2013-03-02T15:23:04Z</time>
      </trkpt>
      <trkpt lat="44.78425" lon="-0.33607">
        <ele>80</ele>
        <time>2013-03-02T15:23:11Z</time>
      </trkpt>
      <trkpt lat="44.78419" lon="-0.33636">
        <ele>79</ele>
        <time>2013-03-02T15:23:17Z</time>
      </trkpt>
      <trkpt lat="44.78409" lon="-0.33673">
        <ele>78</ele>
        <time>2013-03-02T15:23:25Z</time>
      </trkpt>
      <trkpt lat="44.784" lon="-0.33704">
        <ele>78</ele>
        <time>2013-03-02T15:23:32Z</time>
      </trkpt>
      <trkpt lat="44.7839" lon="-0.33733">
        <ele>80</ele>
        <time>2013-03-02T15:23:39Z</time>
      </trkpt>
      <trkpt lat="44.78378" lon="-0.33762">
        <ele>82</ele>
        <time>2013-03-02T15:23:46Z</time>
      </trkpt>
      <trkpt lat="44.78364" lon="-0.33794">
        <ele>84</ele>
        <time>2013-03-02T15:23:54Z</time>
      </trkpt>
      <trkpt lat="44.78352" lon="-0.33826">
        <ele>86</ele>
        <time>2013-03-02T15:24:01Z</time>
      </trkpt>
      <trkpt lat="44.78339" lon="-0.33855">
        <ele>87</ele>
        <time>2013-03-02T15:24:08Z</time>
      </trkpt>
      <trkpt lat="44.78326" lon="-0.3388">
        <ele>88</ele>
        <time>2013-03-02T15:24:14Z</time>
      </trkpt>
      <trkpt lat="44.78312" lon="-0.33908">
        <ele>87</ele>
        <time>2013-03-02T15:24:21Z</time>
      </trkpt>
      <trkpt lat="44.78293" lon="-0.33941">
        <ele>87</ele>
        <time>2013-03-02T15:24:30Z</time>
      </trkpt>
      <trkpt lat="44.78275" lon="-0.3397">
        <ele>86</ele>
        <time>2013-03-02T15:24:38Z</time>
      </trkpt>
      <trkpt lat="44.78258" lon="-0.33995">
        <ele>85</ele>
        <time>2013-03-02T15:24:45Z</time>
      </trkpt>
      <trkpt lat="44.78238" lon="-0.34023">
        <ele>85</ele>
        <time>2013-03-02T15:24:53Z</time>
      </trkpt>
      <trkpt lat="44.78213" lon="-0.34054">
        <ele>86</ele>
        <time>2013-03-02T15:25:02Z</time>
      </trkpt>
      <trkpt lat="44.78197" lon="-0.34073">
        <ele>87</ele>
        <time>2013-03-02T15:25:08Z</time>
      </trkpt>
      <trkpt lat="44.7818" lon="-0.3409">
        <ele>88</ele>
        <time>2013-03-02T15:25:14Z</time>
      </trkpt>
      <trkpt lat="44.78158" lon="-0.34114">
        <ele>90</ele>
        <time>2013-03-02T15:25:22Z</time>
      </trkpt>
      <trkpt lat="44.78131" lon="-0.34139">
        <ele>92</ele>
        <time>2013-03-02T15:25:31Z</time>
      </trkpt>
      <trkpt lat="44.78106" lon="-0.3416">
        <ele>93</ele>
        <time>2013-03-02T15:25:39Z</time>
      </trkpt>
      <trkpt lat="44.78084" lon="-0.34178">
        <ele>94</ele>
        <time>2013-03-02T15:25:46Z</time>
      </trkpt>
      <trkpt lat="44.7806" lon="-0.34196">
        <ele>94</ele>
        <time>2013-03-02T15:25:54Z</time>
      </trkpt>
      <trkpt lat="44.78037" lon="-0.34213">
        <ele>93</ele>
        <time>2013-03-02T15:26:01Z</time>
      </trkpt>
      <trkpt lat="44.78012" lon="-0.3423">
        <ele>93</ele>
        <time>2013-03-02T15:26:08Z</time>
      </trkpt>
      <trkpt lat="44.77996" lon="-0.34247">
        <ele>92</ele>
        <time>2013-03-02T15:26:15Z</time>
      </trkpt>
      <trkpt lat="44.77992" lon="-0.3425">
        <ele>92</ele>
        <time>2013-03-02T15:26:16Z</time>
      </trkpt>
      <trkpt lat="44.77964" lon="-0.34265">
        <ele>93</ele>
        <time>2013-03-02T15:26:23Z</time>
      </trkpt>
      <trkpt lat="44.77942" lon="-0.34279">
        <ele>94</ele>
        <time>2013-03-02T15:26:29Z</time>
      </trkpt>
      <trkpt lat="44.77926" lon="-0.3429">
        <ele>95</ele>
        <time>2013-03-02T15:26:35Z</time>
      </trkpt>
      <trkpt lat="44.77916" lon="-0.34298">
        <ele>94</ele>
        <time>2013-03-02T15:26:41Z</time>
      </trkpt>
      <trkpt lat="44.77906" lon="-0.34306">
        <ele>94</ele>
        <time>2013-03-02T15:26:46Z</time>
      </trkpt>
      <trkpt lat="44.77896" lon="-0.34314">
        <ele>94</ele>
        <time>2013-03-02T15:26:52Z</time>
      </trkpt>
      <trkpt lat="44.77883" lon="-0.34324">
        <ele>94</ele>
        <time>2013-03-02T15:26:59Z</time>
      </trkpt>
      <trkpt lat="44.77867" lon="-0.34336">
        <ele>93</ele>
        <time>2013-03-02T15:27:07Z</time>
      </trkpt>
      <trkpt lat="44.77853" lon="-0.34348">
        <ele>93</ele>
        <time>2013-03-02T15:27:13Z</time>
      </trkpt>
      <trkpt lat="44.77842" lon="-0.3436">
        <ele>93</ele>
        <time>2013-03-02T15:27:19Z</time>
      </trkpt>
      <trkpt lat="44.77829" lon="-0.34373">
        <ele>93</ele>
        <time>2013-03-02T15:27:25Z</time>
      </trkpt>
      <trkpt lat="44.77814" lon="-0.34393">
        <ele>95</ele>
        <time>2013-03-02T15:27:32Z</time>
      </trkpt>
      <trkpt lat="44.77798" lon="-0.34415">
        <ele>97</ele>
        <time>2013-03-02T15:27:39Z</time>
      </trkpt>
      <trkpt lat="44.77784" lon="-0.34437">
        <ele>99</ele>
        <time>2013-03-02T15:27:45Z</time>
      </trkpt>
      <trkpt lat="44.77761" lon="-0.34476">
        <ele>102</ele>
        <time>2013-03-02T15:27:54Z</time>
      </trkpt>
      <trkpt lat="44.77747" lon="-0.34508">
        <ele>103</ele>
        <time>2013-03-02T15:28:01Z</time>
      </trkpt>
      <trkpt lat="44.77737" lon="-0.34539">
        <ele>104</ele>
        <time>2013-03-02T15:28:08Z</time>
      </trkpt>
      <trkpt lat="44.77727" lon="-0.34572">
        <ele>104</ele>
        <time>2013-03-02T15:28:15Z</time>
      </trkpt>
      <trkpt lat="44.77718" lon="-0.3461">
        <ele>104</ele>
        <time>2013-03-02T15:28:23Z</time>
      </trkpt>
      <trkpt lat="44.7771" lon="-0.34647">
        <ele>104</ele>
        <time>2013-03-02T15:28:31Z</time>
      </trkpt>
      <trkpt lat="44.77703" lon="-0.34677">
        <ele>103</ele>
        <time>2013-03-02T15:28:37Z</time>
      </trkpt>
      <trkpt lat="44.77693" lon="-0.34723">
        <ele>102</ele>
        <time>2013-03-02T15:28:46Z</time>
      </trkpt>
      <trkpt lat="44.77682" lon="-0.34771">
        <ele>101</ele>
        <time>2013-03-02T15:28:55Z</time>
      </trkpt>
      <trkpt lat="44.77674" lon="-0.3481">
        <ele>100</ele>
        <time>2013-03-02T15:29:02Z</time>
      </trkpt>
      <trkpt lat="44.77665" lon="-0.34848">
        <ele>100</ele>
        <time>2013-03-02T15:29:10Z</time>
      </trkpt>
      <trkpt lat="44.77662" lon="-0.34872">
        <ele>100</ele>
        <time>2013-03-02T15:29:16Z</time>
      </trkpt>
      <trkpt lat="44.77661" lon="-0.34876">
        <ele>100</ele>
        <time>2013-03-02T15:29:17Z</time>
      </trkpt>
      <trkpt lat="44.77659" lon="-0.34883">
        <ele>99</ele>
        <time>2013-03-02T15:29:23Z</time>
      </trkpt>
      <trkpt lat="44.77659" lon="-0.34882">
        <ele>99</ele>
        <time>2013-03-02T15:29:37Z</time>
      </trkpt>
      <trkpt lat="44.77659" lon="-0.34884">
        <ele>99</ele>
        <time>2013-03-02T15:29:52Z</time>
      </trkpt>
      <trkpt lat="44.77659" lon="-0.34884">
        <ele>99</ele>
        <time>2013-03-02T15:30:03Z</time>
      </trkpt>
      <trkpt lat="44.77659" lon="-0.34884">
        <ele>99</ele>
        <time>2013-03-02T15:30:14Z</time>
      </trkpt>
      <trkpt lat="44.77659" lon="-0.34884">
        <ele>99</ele>
        <time>2013-03-02T15:30:27Z</time>
      </trkpt>
      <trkpt lat="44.77659" lon="-0.34885">
        <ele>99</ele>
        <time>2013-03-02T15:30:42Z</time>
      </trkpt>
      <trkpt lat="44.77659" lon="-0.34885">
        <ele>99</ele>
        <time>2013-03-02T15:30:56Z</time>
      </trkpt>
      <trkpt lat="44.77659" lon="-0.34885">
        <ele>99</ele>
        <time>2013-03-02T15:31:06Z</time>
      </trkpt>
      <trkpt lat="44.77659" lon="-0.34886">
        <ele>99</ele>
        <time>2013-03-02T15:31:16Z</time>
      </trkpt>
      <trkpt lat="44.77658" lon="-0.34886">
        <ele>99</ele>
        <time>2013-03-02T15:31:33Z</time>
      </trkpt>
      <trkpt lat="44.77658" lon="-0.34889">
        <ele>99</ele>
        <time>2013-03-02T15:31:44Z</time>
      </trkpt>
      <trkpt lat="44.77658" lon="-0.3489">
        <ele>99</ele>
        <time>2013-03-02T15:31:55Z</time>
      </trkpt>
      <trkpt lat="44.77657" lon="-0.34894">
        <ele>99</ele>
        <time>2013-03-02T15:32:05Z</time>
      </trkpt>
      <trkpt lat="44.77655" lon="-0.34909">
        <ele>99</ele>
        <time>2013-03-02T15:32:11Z</time>
      </trkpt>
      <trkpt lat="44.77651" lon="-0.3493">
        <ele>98</ele>
        <time>2013-03-02T15:32:18Z</time>
      </trkpt>
      <trkpt lat="44.77646" lon="-0.34954">
        <ele>97</ele>
        <time>2013-03-02T15:32:26Z</time>
      </trkpt>
      <trkpt lat="44.77639" lon="-0.34964">
        <ele>97</ele>
        <time>2013-03-02T15:32:31Z</time>
      </trkpt>
      <trkpt lat="44.77638" lon="-0.34965">
        <ele>97</ele>
        <time>2013-03-02T15:32:32Z</time>
      </trkpt>
      <trkpt lat="44.77637" lon="-0.34967">
        <ele>97</ele>
        <time>2013-03-02T15:32:33Z</time>
      </trkpt>
      <trkpt lat="44.77636" lon="-0.34969">
        <ele>96</ele>
        <time>2013-03-02T15:32:34Z</time>
      </trkpt>
      <trkpt lat="44.77632" lon="-0.34987">
        <ele>96</ele>
        <time>2013-03-02T15:32:42Z</time>
      </trkpt>
      <trkpt lat="44.77627" lon="-0.3501">
        <ele>96</ele>
        <time>2013-03-02T15:32:49Z</time>
      </trkpt>
      <trkpt lat="44.77626" lon="-0.35016">
        <ele>96</ele>
        <time>2013-03-02T15:32:50Z</time>
      </trkpt>
      <trkpt lat="44.77619" lon="-0.35059">
        <ele>96</ele>
        <time>2013-03-02T15:32:56Z</time>
      </trkpt>
      <trkpt lat="44.77611" lon="-0.35101">
        <ele>95</ele>
        <time>2013-03-02T15:33:02Z</time>
      </trkpt>
      <trkpt lat="44.7761" lon="-0.35106">
        <ele>95</ele>
        <time>2013-03-02T15:33:03Z</time>
      </trkpt>
      <trkpt lat="44.77609" lon="-0.35109">
        <ele>95</ele>
        <time>2013-03-02T15:33:04Z</time>
      </trkpt>
      <trkpt lat="44.77609" lon="-0.35112">
        <ele>95</ele>
        <time>2013-03-02T15:33:09Z</time>
      </trkpt>
      <trkpt lat="44.77609" lon="-0.35112">
        <ele>95</ele>
        <time>2013-03-02T15:33:22Z</time>
      </trkpt>
      <trkpt lat="44.77609" lon="-0.35113">
        <ele>95</ele>
        <time>2013-03-02T15:33:31Z</time>
      </trkpt>
      <trkpt lat="44.77608" lon="-0.35115">
        <ele>95</ele>
        <time>2013-03-02T15:33:43Z</time>
      </trkpt>
      <trkpt lat="44.77602" lon="-0.3513">
        <ele>95</ele>
        <time>2013-03-02T15:33:49Z</time>
      </trkpt>
      <trkpt lat="44.77602" lon="-0.35133">
        <ele>95</ele>
        <time>2013-03-02T15:33:50Z</time>
      </trkpt>
      <trkpt lat="44.77602" lon="-0.35137">
        <ele>95</ele>
        <time>2013-03-02T15:33:51Z</time>
      </trkpt>
      <trkpt lat="44.77602" lon="-0.3514">
        <ele>95</ele>
        <time>2013-03-02T15:33:52Z</time>
      </trkpt>
      <trkpt lat="44.77602" lon="-0.35142">
        <ele>95</ele>
        <time>2013-03-02T15:33:53Z</time>
      </trkpt>
      <trkpt lat="44.77602" lon="-0.35143">
        <ele>95</ele>
        <time>2013-03-02T15:33:58Z</time>
      </trkpt>
      <trkpt lat="44.77601" lon="-0.3514">
        <ele>95</ele>
        <time>2013-03-02T15:34:00Z</time>
      </trkpt>
      <trkpt lat="44.77602" lon="-0.35133">
        <ele>95</ele>
        <time>2013-03-02T15:34:05Z</time>
      </trkpt>
      <trkpt lat="44.77602" lon="-0.3513">
        <ele>95</ele>
        <time>2013-03-02T15:34:11Z</time>
      </trkpt>
      <trkpt lat="44.77602" lon="-0.35129">
        <ele>95</ele>
        <time>2013-03-02T15:34:18Z</time>
      </trkpt>
      <trkpt lat="44.77602" lon="-0.35129">
        <ele>95</ele>
        <time>2013-03-02T15:34:21Z</time>
      </trkpt>
      <trkpt lat="44.77595" lon="-0.35115">
        <ele>94</ele>
        <time>2013-03-02T15:34:28Z</time>
      </trkpt>
      <trkpt lat="44.77581" lon="-0.3509">
        <ele>94</ele>
        <time>2013-03-02T15:34:35Z</time>
      </trkpt>
      <trkpt lat="44.7757" lon="-0.35077">
        <ele>95</ele>
        <time>2013-03-02T15:34:39Z</time>
      </trkpt>
      <trkpt lat="44.77566" lon="-0.35078">
        <ele>95</ele>
        <time>2013-03-02T15:34:40Z</time>
      </trkpt>
      <trkpt lat="44.77563" lon="-0.35082">
        <ele>95</ele>
        <time>2013-03-02T15:34:41Z</time>
      </trkpt>
      <trkpt lat="44.77547" lon="-0.3511">
        <ele>95</ele>
        <time>2013-03-02T15:34:46Z</time>
      </trkpt>
      <trkpt lat="44.77543" lon="-0.35114">
        <ele>95</ele>
        <time>2013-03-02T15:34:47Z</time>
      </trkpt>
      <trkpt lat="44.77519" lon="-0.35139">
        <ele>96</ele>
        <time>2013-03-02T15:34:54Z</time>
      </trkpt>
      <trkpt lat="44.77491" lon="-0.35163">
        <ele>99</ele>
        <time>2013-03-02T15:35:03Z</time>
      </trkpt>
      <trkpt lat="44.77469" lon="-0.35181">
        <ele>101</ele>
        <time>2013-03-02T15:35:11Z</time>
      </trkpt>
      <trkpt lat="44.77453" lon="-0.35193">
        <ele>102</ele>
        <time>2013-03-02T15:35:18Z</time>
      </trkpt>
      <trkpt lat="44.77438" lon="-0.35206">
        <ele>102</ele>
        <time>2013-03-02T15:35:24Z</time>
      </trkpt>
      <trkpt lat="44.77426" lon="-0.35214">
        <ele>103</ele>
        <time>2013-03-02T15:35:29Z</time>
      </trkpt>
      <trkpt lat="44.7741" lon="-0.35228">
        <ele>103</ele>
        <time>2013-03-02T15:35:36Z</time>
      </trkpt>
      <trkpt lat="44.774" lon="-0.35241">
        <ele>103</ele>
        <time>2013-03-02T15:35:42Z</time>
      </trkpt>
      <trkpt lat="44.774" lon="-0.35244">
        <ele>103</ele>
        <time>2013-03-02T15:35:43Z</time>
      </trkpt>
      <trkpt lat="44.77401" lon="-0.35246">
        <ele>103</ele>
        <time>2013-03-02T15:35:44Z</time>
      </trkpt>
      <trkpt lat="44.7741" lon="-0.35271">
        <ele>103</ele>
        <time>2013-03-02T15:35:50Z</time>
      </trkpt>
      <trkpt lat="44.77419" lon="-0.3529">
        <ele>103</ele>
        <time>2013-03-02T15:35:54Z</time>
      </trkpt>
      <trkpt lat="44.77422" lon="-0.35301">
        <ele>102</ele>
        <time>2013-03-02T15:35:56Z</time>
      </trkpt>
      <trkpt lat="44.77423" lon="-0.35307">
        <ele>102</ele>
        <time>2013-03-02T15:35:57Z</time>
      </trkpt>
      <trkpt lat="44.77425" lon="-0.35313">
        <ele>102</ele>
        <time>2013-03-02T15:35:58Z</time>
      </trkpt>
      <trkpt lat="44.77426" lon="-0.35318">
        <ele>102</ele>
        <time>2013-03-02T15:35:59Z</time>
      </trkpt>
      <trkpt lat="44.77428" lon="-0.35324">
        <ele>102</ele>
        <time>2013-03-02T15:36:00Z</time>
      </trkpt>
      <trkpt lat="44.77431" lon="-0.35334">
        <ele>102</ele>
        <time>2013-03-02T15:36:02Z</time>
      </trkpt>
      <trkpt lat="44.77437" lon="-0.35357">
        <ele>101</ele>
        <time>2013-03-02T15:36:06Z</time>
      </trkpt>
      <trkpt lat="44.77438" lon="-0.35363">
        <ele>101</ele>
        <time>2013-03-02T15:36:07Z</time>
      </trkpt>
      <trkpt lat="44.77438" lon="-0.35374">
        <ele>101</ele>
        <time>2013-03-02T15:36:09Z</time>
      </trkpt>
      <trkpt lat="44.77438" lon="-0.35379">
        <ele>100</ele>
        <time>2013-03-02T15:36:10Z</time>
      </trkpt>
      <trkpt lat="44.77438" lon="-0.35384">
        <ele>100</ele>
        <time>2013-03-02T15:36:11Z</time>
      </trkpt>
      <trkpt lat="44.77438" lon="-0.35387">
        <ele>100</ele>
        <time>2013-03-02T15:36:12Z</time>
      </trkpt>
      <trkpt lat="44.77437" lon="-0.35389">
        <ele>100</ele>
        <time>2013-03-02T15:36:16Z</time>
      </trkpt>
      <trkpt lat="44.77436" lon="-0.35394">
        <ele>100</ele>
        <time>2013-03-02T15:36:22Z</time>
      </trkpt>
      <trkpt lat="44.77435" lon="-0.35395">
        <ele>100</ele>
        <time>2013-03-02T15:36:30Z</time>
      </trkpt>
      <trkpt lat="44.77435" lon="-0.35395">
        <ele>100</ele>
        <time>2013-03-02T15:36:36Z</time>
      </trkpt>
      <trkpt lat="44.77434" lon="-0.35395">
        <ele>100</ele>
        <time>2013-03-02T15:36:37Z</time>
      </trkpt>
      <trkpt lat="44.77421" lon="-0.354">
        <ele>100</ele>
        <time>2013-03-02T15:36:44Z</time>
      </trkpt>
      <trkpt lat="44.77405" lon="-0.35406">
        <ele>101</ele>
        <time>2013-03-02T15:36:50Z</time>
      </trkpt>
      <trkpt lat="44.77383" lon="-0.35413">
        <ele>101</ele>
        <time>2013-03-02T15:36:58Z</time>
      </trkpt>
      <trkpt lat="44.77365" lon="-0.3542">
        <ele>101</ele>
        <time>2013-03-02T15:37:05Z</time>
      </trkpt>
      <trkpt lat="44.77346" lon="-0.35426">
        <ele>101</ele>
        <time>2013-03-02T15:37:13Z</time>
      </trkpt>
      <trkpt lat="44.77329" lon="-0.35431">
        <ele>101</ele>
        <time>2013-03-02T15:37:20Z</time>
      </trkpt>
      <trkpt lat="44.77309" lon="-0.35438">
        <ele>102</ele>
        <time>2013-03-02T15:37:28Z</time>
      </trkpt>
      <trkpt lat="44.77286" lon="-0.35446">
        <ele>102</ele>
        <time>2013-03-02T15:37:35Z</time>
      </trkpt>
      <trkpt lat="44.77259" lon="-0.35455">
        <ele>102</ele>
        <time>2013-03-02T15:37:43Z</time>
      </trkpt>
      <trkpt lat="44.77241" lon="-0.3546">
        <ele>102</ele>
        <time>2013-03-02T15:37:50Z</time>
      </trkpt>
      <trkpt lat="44.77236" lon="-0.35461">
        <ele>102</ele>
        <time>2013-03-02T15:37:56Z</time>
      </trkpt>
      <trkpt lat="44.77236" lon="-0.35461">
        <ele>102</ele>
        <time>2013-03-02T15:37:58Z</time>
      </trkpt>
      <trkpt lat="44.77235" lon="-0.35462">
        <ele>102</ele>
        <time>2013-03-02T15:37:59Z</time>
      </trkpt>
      <trkpt lat="44.77234" lon="-0.35462">
        <ele>102</ele>
        <time>2013-03-02T15:38:00Z</time>
      </trkpt>
      <trkpt lat="44.77233" lon="-0.35462">
        <ele>102</ele>
        <time>2013-03-02T15:38:01Z</time>
      </trkpt>
      <trkpt lat="44.77231" lon="-0.35461">
        <ele>102</ele>
        <time>2013-03-02T15:38:02Z</time>
      </trkpt>
      <trkpt lat="44.7723" lon="-0.35461">
        <ele>102</ele>
        <time>2013-03-02T15:38:03Z</time>
      </trkpt>
      <trkpt lat="44.7723" lon="-0.35459">
        <ele>102</ele>
        <time>2013-03-02T15:38:04Z</time>
      </trkpt>
      <trkpt lat="44.7723" lon="-0.35457">
        <ele>102</ele>
        <time>2013-03-02T15:38:05Z</time>
      </trkpt>
      <trkpt lat="44.77229" lon="-0.35456">
        <ele>102</ele>
        <time>2013-03-02T15:38:06Z</time>
      </trkpt>
      <trkpt lat="44.77229" lon="-0.35455">
        <ele>102</ele>
        <time>2013-03-02T15:38:07Z</time>
      </trkpt>
      <trkpt lat="44.77227" lon="-0.35453">
        <ele>102</ele>
        <time>2013-03-02T15:38:08Z</time>
      </trkpt>
      <trkpt lat="44.77226" lon="-0.35453">
        <ele>102</ele>
        <time>2013-03-02T15:38:09Z</time>
      </trkpt>
      <trkpt lat="44.77215" lon="-0.35457">
        <ele>102</ele>
        <time>2013-03-02T15:38:15Z</time>
      </trkpt>
      <trkpt lat="44.77203" lon="-0.35468">
        <ele>102</ele>
        <time>2013-03-02T15:38:23Z</time>
      </trkpt>
      <trkpt lat="44.77203" lon="-0.3547">
        <ele>102</ele>
        <time>2013-03-02T15:38:24Z</time>
      </trkpt>
      <trkpt lat="44.77203" lon="-0.35473">
        <ele>102</ele>
        <time>2013-03-02T15:38:25Z</time>
      </trkpt>
      <trkpt lat="44.77203" lon="-0.3549">
        <ele>102</ele>
        <time>2013-03-02T15:38:32Z</time>
      </trkpt>
      <trkpt lat="44.77203" lon="-0.35492">
        <ele>102</ele>
        <time>2013-03-02T15:38:37Z</time>
      </trkpt>
      <trkpt lat="44.77203" lon="-0.35491">
        <ele>102</ele>
        <time>2013-03-02T15:38:46Z</time>
      </trkpt>
      <trkpt lat="44.77203" lon="-0.35491">
        <ele>102</ele>
        <time>2013-03-02T15:39:00Z</time>
      </trkpt>
      <trkpt lat="44.77204" lon="-0.35492">
        <ele>102</ele>
        <time>2013-03-02T15:39:06Z</time>
      </trkpt>
      <trkpt lat="44.77204" lon="-0.35491">
        <ele>102</ele>
        <time>2013-03-02T15:39:19Z</time>
      </trkpt>
      <trkpt lat="44.77204" lon="-0.35491">
        <ele>102</ele>
        <time>2013-03-02T15:39:34Z</time>
      </trkpt>
      <trkpt lat="44.77205" lon="-0.35493">
        <ele>102</ele>
        <time>2013-03-02T15:39:38Z</time>
      </trkpt>
      <trkpt lat="44.77206" lon="-0.35494">
        <ele>102</ele>
        <time>2013-03-02T15:39:40Z</time>
      </trkpt>
      <trkpt lat="44.77207" lon="-0.35496">
        <ele>102</ele>
        <time>2013-03-02T15:39:41Z</time>
      </trkpt>
      <trkpt lat="44.77208" lon="-0.35498">
        <ele>102</ele>
        <time>2013-03-02T15:39:42Z</time>
      </trkpt>
      <trkpt lat="44.77208" lon="-0.35499">
        <ele>102</ele>
        <time>2013-03-02T15:39:43Z</time>
      </trkpt>
      <trkpt lat="44.77207" lon="-0.35511">
        <ele>102</ele>
        <time>2013-03-02T15:39:50Z</time>
      </trkpt>
      <trkpt lat="44.77209" lon="-0.35535">
        <ele>101</ele>
        <time>2013-03-02T15:39:57Z</time>
      </trkpt>
      <trkpt lat="44.77211" lon="-0.35567">
        <ele>101</ele>
        <time>2013-03-02T15:40:04Z</time>
      </trkpt>
      <trkpt lat="44.77213" lon="-0.35609">
        <ele>100</ele>
        <time>2013-03-02T15:40:12Z</time>
      </trkpt>
      <trkpt lat="44.77214" lon="-0.35655">
        <ele>100</ele>
        <time>2013-03-02T15:40:20Z</time>
      </trkpt>
      <trkpt lat="44.77216" lon="-0.35695">
        <ele>100</ele>
        <time>2013-03-02T15:40:27Z</time>
      </trkpt>
      <trkpt lat="44.77218" lon="-0.3575">
        <ele>100</ele>
        <time>2013-03-02T15:40:37Z</time>
      </trkpt>
      <trkpt lat="44.77221" lon="-0.35807">
        <ele>100</ele>
        <time>2013-03-02T15:40:47Z</time>
      </trkpt>
      <trkpt lat="44.77222" lon="-0.35812">
        <ele>100</ele>
        <time>2013-03-02T15:40:48Z</time>
      </trkpt>
      <trkpt lat="44.77222" lon="-0.35818">
        <ele>100</ele>
        <time>2013-03-02T15:40:49Z</time>
      </trkpt>
      <trkpt lat="44.77222" lon="-0.35823">
        <ele>100</ele>
        <time>2013-03-02T15:40:50Z</time>
      </trkpt>
      <trkpt lat="44.77223" lon="-0.35828">
        <ele>100</ele>
        <time>2013-03-02T15:40:51Z</time>
      </trkpt>
      <trkpt lat="44.77223" lon="-0.35834">
        <ele>100</ele>
        <time>2013-03-02T15:40:52Z</time>
      </trkpt>
      <trkpt lat="44.77223" lon="-0.3584">
        <ele>100</ele>
        <time>2013-03-02T15:40:53Z</time>
      </trkpt>
      <trkpt lat="44.77223" lon="-0.35857">
        <ele>100</ele>
        <time>2013-03-02T15:40:56Z</time>
      </trkpt>
      <trkpt lat="44.77222" lon="-0.35863">
        <ele>100</ele>
        <time>2013-03-02T15:40:57Z</time>
      </trkpt>
      <trkpt lat="44.77222" lon="-0.35868">
        <ele>100</ele>
        <time>2013-03-02T15:40:58Z</time>
      </trkpt>
      <trkpt lat="44.77221" lon="-0.35874">
        <ele>100</ele>
        <time>2013-03-02T15:40:59Z</time>
      </trkpt>
      <trkpt lat="44.7722" lon="-0.35881">
        <ele>100</ele>
        <time>2013-03-02T15:41:00Z</time>
      </trkpt>
      <trkpt lat="44.77219" lon="-0.35887">
        <ele>100</ele>
        <time>2013-03-02T15:41:01Z</time>
      </trkpt>
      <trkpt lat="44.77219" lon="-0.35893">
        <ele>100</ele>
        <time>2013-03-02T15:41:02Z</time>
      </trkpt>
      <trkpt lat="44.77218" lon="-0.359">
        <ele>100</ele>
        <time>2013-03-02T15:41:03Z</time>
      </trkpt>
      <trkpt lat="44.77217" lon="-0.35906">
        <ele>100</ele>
        <time>2013-03-02T15:41:04Z</time>
      </trkpt>
      <trkpt lat="44.77216" lon="-0.35912">
        <ele>100</ele>
        <time>2013-03-02T15:41:05Z</time>
      </trkpt>
      <trkpt lat="44.77215" lon="-0.35918">
        <ele>100</ele>
        <time>2013-03-02T15:41:06Z</time>
      </trkpt>
      <trkpt lat="44.77211" lon="-0.35936">
        <ele>100</ele>
        <time>2013-03-02T15:41:09Z</time>
      </trkpt>
      <trkpt lat="44.77199" lon="-0.35987">
        <ele>100</ele>
        <time>2013-03-02T15:41:18Z</time>
      </trkpt>
      <trkpt lat="44.77192" lon="-0.36015">
        <ele>100</ele>
        <time>2013-03-02T15:41:23Z</time>
      </trkpt>
      <trkpt lat="44.77191" lon="-0.3602">
        <ele>100</ele>
        <time>2013-03-02T15:41:24Z</time>
      </trkpt>
      <trkpt lat="44.77185" lon="-0.36062">
        <ele>100</ele>
        <time>2013-03-02T15:41:31Z</time>
      </trkpt>
      <trkpt lat="44.77182" lon="-0.3612">
        <ele>100</ele>
        <time>2013-03-02T15:41:41Z</time>
      </trkpt>
      <trkpt lat="44.7718" lon="-0.36166">
        <ele>100</ele>
        <time>2013-03-02T15:41:49Z</time>
      </trkpt>
      <trkpt lat="44.77174" lon="-0.36215">
        <ele>100</ele>
        <time>2013-03-02T15:41:58Z</time>
      </trkpt>
      <trkpt lat="44.77169" lon="-0.36248">
        <ele>100</ele>
        <time>2013-03-02T15:42:04Z</time>
      </trkpt>
      <trkpt lat="44.77166" lon="-0.36265">
        <ele>100</ele>
        <time>2013-03-02T15:42:07Z</time>
      </trkpt>
      <trkpt lat="44.7716" lon="-0.36313">
        <ele>100</ele>
        <time>2013-03-02T15:42:15Z</time>
      </trkpt>
      <trkpt lat="44.77154" lon="-0.36359">
        <ele>100</ele>
        <time>2013-03-02T15:42:22Z</time>
      </trkpt>
      <trkpt lat="44.77147" lon="-0.36409">
        <ele>99</ele>
        <time>2013-03-02T15:42:30Z</time>
      </trkpt>
      <trkpt lat="44.77145" lon="-0.36414">
        <ele>99</ele>
        <time>2013-03-02T15:42:31Z</time>
      </trkpt>
      <trkpt lat="44.77143" lon="-0.36419">
        <ele>99</ele>
        <time>2013-03-02T15:42:32Z</time>
      </trkpt>
      <trkpt lat="44.77135" lon="-0.36449">
        <ele>98</ele>
        <time>2013-03-02T15:42:38Z</time>
      </trkpt>
      <trkpt lat="44.77129" lon="-0.36491">
        <ele>97</ele>
        <time>2013-03-02T15:42:46Z</time>
      </trkpt>
      <trkpt lat="44.77125" lon="-0.36517">
        <ele>96</ele>
        <time>2013-03-02T15:42:51Z</time>
      </trkpt>
      <trkpt lat="44.77124" lon="-0.36523">
        <ele>96</ele>
        <time>2013-03-02T15:42:52Z</time>
      </trkpt>
      <trkpt lat="44.77122" lon="-0.36528">
        <ele>96</ele>
        <time>2013-03-02T15:42:53Z</time>
      </trkpt>
      <trkpt lat="44.77119" lon="-0.36534">
        <ele>95</ele>
        <time>2013-03-02T15:42:54Z</time>
      </trkpt>
      <trkpt lat="44.77116" lon="-0.3654">
        <ele>95</ele>
        <time>2013-03-02T15:42:55Z</time>
      </trkpt>
      <trkpt lat="44.77108" lon="-0.36551">
        <ele>95</ele>
        <time>2013-03-02T15:42:57Z</time>
      </trkpt>
      <trkpt lat="44.77096" lon="-0.36567">
        <ele>95</ele>
        <time>2013-03-02T15:43:00Z</time>
      </trkpt>
      <trkpt lat="44.77092" lon="-0.36573">
        <ele>95</ele>
        <time>2013-03-02T15:43:01Z</time>
      </trkpt>
      <trkpt lat="44.77089" lon="-0.36579">
        <ele>94</ele>
        <time>2013-03-02T15:43:02Z</time>
      </trkpt>
      <trkpt lat="44.77086" lon="-0.36586">
        <ele>94</ele>
        <time>2013-03-02T15:43:03Z</time>
      </trkpt>
      <trkpt lat="44.77084" lon="-0.36592">
        <ele>94</ele>
        <time>2013-03-02T15:43:04Z</time>
      </trkpt>
      <trkpt lat="44.77076" lon="-0.36611">
        <ele>94</ele>
        <time>2013-03-02T15:43:07Z</time>
      </trkpt>
      <trkpt lat="44.77071" lon="-0.36625">
        <ele>94</ele>
        <time>2013-03-02T15:43:09Z</time>
      </trkpt>
      <trkpt lat="44.77068" lon="-0.36631">
        <ele>94</ele>
        <time>2013-03-02T15:43:10Z</time>
      </trkpt>
      <trkpt lat="44.77065" lon="-0.36638">
        <ele>94</ele>
        <time>2013-03-02T15:43:11Z</time>
      </trkpt>
      <trkpt lat="44.77062" lon="-0.36644">
        <ele>95</ele>
        <time>2013-03-02T15:43:12Z</time>
      </trkpt>
      <trkpt lat="44.77059" lon="-0.36649">
        <ele>95</ele>
        <time>2013-03-02T15:43:13Z</time>
      </trkpt>
      <trkpt lat="44.77049" lon="-0.36667">
        <ele>95</ele>
        <time>2013-03-02T15:43:17Z</time>
      </trkpt>
      <trkpt lat="44.77042" lon="-0.36681">
        <ele>95</ele>
        <time>2013-03-02T15:43:20Z</time>
      </trkpt>
      <trkpt lat="44.7704" lon="-0.36686">
        <ele>95</ele>
        <time>2013-03-02T15:43:21Z</time>
      </trkpt>
      <trkpt lat="44.77038" lon="-0.36689">
        <ele>95</ele>
        <time>2013-03-02T15:43:22Z</time>
      </trkpt>
      <trkpt lat="44.77035" lon="-0.36693">
        <ele>96</ele>
        <time>2013-03-02T15:43:23Z</time>
      </trkpt>
      <trkpt lat="44.77033" lon="-0.36697">
        <ele>96</ele>
        <time>2013-03-02T15:43:24Z</time>
      </trkpt>
      <trkpt lat="44.77023" lon="-0.36717">
        <ele>96</ele>
        <time>2013-03-02T15:43:29Z</time>
      </trkpt>
      <trkpt lat="44.7702" lon="-0.36739">
        <ele>96</ele>
        <time>2013-03-02T15:43:35Z</time>
      </trkpt>
      <trkpt lat="44.7702" lon="-0.36745">
        <ele>96</ele>
        <time>2013-03-02T15:43:37Z</time>
      </trkpt>
      <trkpt lat="44.7702" lon="-0.36747">
        <ele>96</ele>
        <time>2013-03-02T15:43:38Z</time>
      </trkpt>
      <trkpt lat="44.77022" lon="-0.36749">
        <ele>96</ele>
        <time>2013-03-02T15:43:42Z</time>
      </trkpt>
      <trkpt lat="44.77021" lon="-0.3675">
        <ele>96</ele>
        <time>2013-03-02T15:43:50Z</time>
      </trkpt>
      <trkpt lat="44.77023" lon="-0.3675">
        <ele>96</ele>
        <time>2013-03-02T15:43:56Z</time>
      </trkpt>
      <trkpt lat="44.77024" lon="-0.36752">
        <ele>96</ele>
        <time>2013-03-02T15:44:02Z</time>
      </trkpt>
      <trkpt lat="44.77025" lon="-0.36753">
        <ele>96</ele>
        <time>2013-03-02T15:44:08Z</time>
      </trkpt>
      <trkpt lat="44.77025" lon="-0.36753">
        <ele>96</ele>
        <time>2013-03-02T15:44:20Z</time>
      </trkpt>
      <trkpt lat="44.77026" lon="-0.36755">
        <ele>95</ele>
        <time>2013-03-02T15:44:27Z</time>
      </trkpt>
      <trkpt lat="44.77029" lon="-0.36757">
        <ele>95</ele>
        <time>2013-03-02T15:44:31Z</time>
      </trkpt>
      <trkpt lat="44.7704" lon="-0.36766">
        <ele>95</ele>
        <time>2013-03-02T15:44:38Z</time>
      </trkpt>
      <trkpt lat="44.7706" lon="-0.36783">
        <ele>93</ele>
        <time>2013-03-02T15:44:44Z</time>
      </trkpt>
      <trkpt lat="44.77079" lon="-0.36803">
        <ele>91</ele>
        <time>2013-03-02T15:44:50Z</time>
      </trkpt>
      <trkpt lat="44.77086" lon="-0.36815">
        <ele>90</ele>
        <time>2013-03-02T15:44:53Z</time>
      </trkpt>
      <trkpt lat="44.77094" lon="-0.36832">
        <ele>89</ele>
        <time>2013-03-02T15:44:56Z</time>
      </trkpt>
      <trkpt lat="44.77106" lon="-0.36859">
        <ele>87</ele>
        <time>2013-03-02T15:45:01Z</time>
      </trkpt>
      <trkpt lat="44.77114" lon="-0.36876">
        <ele>86</ele>
        <time>2013-03-02T15:45:04Z</time>
      </trkpt>
      <trkpt lat="44.77119" lon="-0.36891">
        <ele>86</ele>
        <time>2013-03-02T15:45:06Z</time>
      </trkpt>
      <trkpt lat="44.77122" lon="-0.36897">
        <ele>85</ele>
        <time>2013-03-02T15:45:07Z</time>
      </trkpt>
      <trkpt lat="44.77133" lon="-0.36932">
        <ele>84</ele>
        <time>2013-03-02T15:45:12Z</time>
      </trkpt>
      <trkpt lat="44.77136" lon="-0.36939">
        <ele>84</ele>
        <time>2013-03-02T15:45:13Z</time>
      </trkpt>
      <trkpt lat="44.77148" lon="-0.36977">
        <ele>82</ele>
        <time>2013-03-02T15:45:19Z</time>
      </trkpt>
      <trkpt lat="44.77157" lon="-0.37004">
        <ele>81</ele>
        <time>2013-03-02T15:45:24Z</time>
      </trkpt>
      <trkpt lat="44.77167" lon="-0.37031">
        <ele>80</ele>
        <time>2013-03-02T15:45:30Z</time>
      </trkpt>
      <trkpt lat="44.77173" lon="-0.37053">
        <ele>79</ele>
        <time>2013-03-02T15:45:35Z</time>
      </trkpt>
      <trkpt lat="44.77174" lon="-0.37057">
        <ele>79</ele>
        <time>2013-03-02T15:45:36Z</time>
      </trkpt>
      <trkpt lat="44.77179" lon="-0.37068">
        <ele>79</ele>
        <time>2013-03-02T15:45:39Z</time>
      </trkpt>
      <trkpt lat="44.77198" lon="-0.37096">
        <ele>78</ele>
        <time>2013-03-02T15:45:46Z</time>
      </trkpt>
      <trkpt lat="44.77209" lon="-0.37107">
        <ele>77</ele>
        <time>2013-03-02T15:45:50Z</time>
      </trkpt>
      <trkpt lat="44.77228" lon="-0.37129">
        <ele>75</ele>
        <time>2013-03-02T15:45:56Z</time>
      </trkpt>
      <trkpt lat="44.77232" lon="-0.37133">
        <ele>75</ele>
        <time>2013-03-02T15:45:57Z</time>
      </trkpt>
      <trkpt lat="44.77238" lon="-0.37143">
        <ele>75</ele>
        <time>2013-03-02T15:45:59Z</time>
      </trkpt>
      <trkpt lat="44.77254" lon="-0.37162">
        <ele>74</ele>
        <time>2013-03-02T15:46:04Z</time>
      </trkpt>
      <trkpt lat="44.77271" lon="-0.37186">
        <ele>72</ele>
        <time>2013-03-02T15:46:10Z</time>
      </trkpt>
      <trkpt lat="44.77283" lon="-0.37198">
        <ele>72</ele>
        <time>2013-03-02T15:46:16Z</time>
      </trkpt>
      <trkpt lat="44.77304" lon="-0.37216">
        <ele>70</ele>
        <time>2013-03-02T15:46:22Z</time>
      </trkpt>
      <trkpt lat="44.77328" lon="-0.37236">
        <ele>69</ele>
        <time>2013-03-02T15:46:28Z</time>
      </trkpt>
      <trkpt lat="44.77339" lon="-0.37244">
        <ele>68</ele>
        <time>2013-03-02T15:46:32Z</time>
      </trkpt>
      <trkpt lat="44.77353" lon="-0.37255">
        <ele>68</ele>
        <time>2013-03-02T15:46:37Z</time>
      </trkpt>
      <trkpt lat="44.77363" lon="-0.37264">
        <ele>68</ele>
        <time>2013-03-02T15:46:42Z</time>
      </trkpt>
      <trkpt lat="44.77371" lon="-0.37268">
        <ele>68</ele>
        <time>2013-03-02T15:46:48Z</time>
      </trkpt>
      <trkpt lat="44.77374" lon="-0.3727">
        <ele>68</ele>
        <time>2013-03-02T15:47:00Z</time>
      </trkpt>
      <trkpt lat="44.77374" lon="-0.37271">
        <ele>68</ele>
        <time>2013-03-02T15:47:07Z</time>
      </trkpt>
      <trkpt lat="44.77373" lon="-0.37272">
        <ele>68</ele>
        <time>2013-03-02T15:47:12Z</time>
      </trkpt>
      <trkpt lat="44.77373" lon="-0.37274">
        <ele>68</ele>
        <time>2013-03-02T15:47:22Z</time>
      </trkpt>
      <trkpt lat="44.77375" lon="-0.37279">
        <ele>68</ele>
        <time>2013-03-02T15:47:29Z</time>
      </trkpt>
      <trkpt lat="44.77376" lon="-0.3728">
        <ele>68</ele>
        <time>2013-03-02T15:47:36Z</time>
      </trkpt>
      <trkpt lat="44.77382" lon="-0.37281">
        <ele>68</ele>
        <time>2013-03-02T15:47:43Z</time>
      </trkpt>
      <trkpt lat="44.77386" lon="-0.37283">
        <ele>68</ele>
        <time>2013-03-02T15:47:47Z</time>
      </trkpt>
      <trkpt lat="44.77388" lon="-0.37284">
        <ele>68</ele>
        <time>2013-03-02T15:47:48Z</time>
      </trkpt>
      <trkpt lat="44.7739" lon="-0.37284">
        <ele>68</ele>
        <time>2013-03-02T15:47:49Z</time>
      </trkpt>
      <trkpt lat="44.77401" lon="-0.37288">
        <ele>68</ele>
        <time>2013-03-02T15:47:55Z</time>
      </trkpt>
      <trkpt lat="44.77404" lon="-0.3729">
        <ele>68</ele>
        <time>2013-03-02T15:47:56Z</time>
      </trkpt>
      <trkpt lat="44.77412" lon="-0.37297">
        <ele>68</ele>
        <time>2013-03-02T15:48:02Z</time>
      </trkpt>
      <trkpt lat="44.77417" lon="-0.373">
        <ele>68</ele>
        <time>2013-03-02T15:48:05Z</time>
      </trkpt>
      <trkpt lat="44.77419" lon="-0.37302">
        <ele>69</ele>
        <time>2013-03-02T15:48:06Z</time>
      </trkpt>
      <trkpt lat="44.77421" lon="-0.37303">
        <ele>69</ele>
        <time>2013-03-02T15:48:07Z</time>
      </trkpt>
      <trkpt lat="44.77423" lon="-0.37305">
        <ele>69</ele>
        <time>2013-03-02T15:48:08Z</time>
      </trkpt>
      <trkpt lat="44.77426" lon="-0.37306">
        <ele>69</ele>
        <time>2013-03-02T15:48:09Z</time>
      </trkpt>
      <trkpt lat="44.77429" lon="-0.37308">
        <ele>69</ele>
        <time>2013-03-02T15:48:10Z</time>
      </trkpt>
      <trkpt lat="44.77431" lon="-0.3731">
        <ele>69</ele>
        <time>2013-03-02T15:48:11Z</time>
      </trkpt>
      <trkpt lat="44.77433" lon="-0.37312">
        <ele>69</ele>
        <time>2013-03-02T15:48:12Z</time>
      </trkpt>
      <trkpt lat="44.77437" lon="-0.37316">
        <ele>69</ele>
        <time>2013-03-02T15:48:17Z</time>
      </trkpt>
      <trkpt lat="44.77438" lon="-0.37318">
        <ele>69</ele>
        <time>2013-03-02T15:48:25Z</time>
      </trkpt>
      <trkpt lat="44.77438" lon="-0.37318">
        <ele>69</ele>
        <time>2013-03-02T15:48:35Z</time>
      </trkpt>
      <trkpt lat="44.77439" lon="-0.37318">
        <ele>69</ele>
        <time>2013-03-02T15:48:43Z</time>
      </trkpt>
      <trkpt lat="44.77439" lon="-0.37318">
        <ele>69</ele>
        <time>2013-03-02T15:48:52Z</time>
      </trkpt>
      <trkpt lat="44.77439" lon="-0.37317">
        <ele>69</ele>
        <time>2013-03-02T15:49:06Z</time>
      </trkpt>
      <trkpt lat="44.77439" lon="-0.37317">
        <ele>69</ele>
        <time>2013-03-02T15:49:18Z</time>
      </trkpt>
      <trkpt lat="44.77439" lon="-0.37317">
        <ele>69</ele>
        <time>2013-03-02T15:49:24Z</time>
      </trkpt>
      <trkpt lat="44.7744" lon="-0.37316">
        <ele>69</ele>
        <time>2013-03-02T15:49:28Z</time>
      </trkpt>
      <trkpt lat="44.77442" lon="-0.37314">
        <ele>69</ele>
        <time>2013-03-02T15:49:30Z</time>
      </trkpt>
      <trkpt lat="44.77445" lon="-0.37306">
        <ele>69</ele>
        <time>2013-03-02T15:49:34Z</time>
      </trkpt>
      <trkpt lat="44.77447" lon="-0.37305">
        <ele>69</ele>
        <time>2013-03-02T15:49:35Z</time>
      </trkpt>
      <trkpt lat="44.77447" lon="-0.37303">
        <ele>69</ele>
        <time>2013-03-02T15:49:36Z</time>
      </trkpt>
      <trkpt lat="44.77447" lon="-0.37301">
        <ele>69</ele>
        <time>2013-03-02T15:49:37Z</time>
      </trkpt>
      <trkpt lat="44.77447" lon="-0.37298">
        <ele>69</ele>
        <time>2013-03-02T15:49:38Z</time>
      </trkpt>
      <trkpt lat="44.77448" lon="-0.37296">
        <ele>69</ele>
        <time>2013-03-02T15:49:39Z</time>
      </trkpt>
      <trkpt lat="44.77449" lon="-0.37293">
        <ele>69</ele>
        <time>2013-03-02T15:49:40Z</time>
      </trkpt>
      <trkpt lat="44.77449" lon="-0.37291">
        <ele>70</ele>
        <time>2013-03-02T15:49:41Z</time>
      </trkpt>
      <trkpt lat="44.7745" lon="-0.37288">
        <ele>70</ele>
        <time>2013-03-02T15:49:42Z</time>
      </trkpt>
      <trkpt lat="44.77451" lon="-0.37285">
        <ele>70</ele>
        <time>2013-03-02T15:49:43Z</time>
      </trkpt>
      <trkpt lat="44.77453" lon="-0.37283">
        <ele>70</ele>
        <time>2013-03-02T15:49:44Z</time>
      </trkpt>
      <trkpt lat="44.77453" lon="-0.3728">
        <ele>70</ele>
        <time>2013-03-02T15:49:45Z</time>
      </trkpt>
      <trkpt lat="44.77454" lon="-0.37277">
        <ele>70</ele>
        <time>2013-03-02T15:49:46Z</time>
      </trkpt>
      <trkpt lat="44.77456" lon="-0.37274">
        <ele>70</ele>
        <time>2013-03-02T15:49:47Z</time>
      </trkpt>
      <trkpt lat="44.77458" lon="-0.37271">
        <ele>70</ele>
        <time>2013-03-02T15:49:48Z</time>
      </trkpt>
      <trkpt lat="44.77458" lon="-0.37268">
        <ele>70</ele>
        <time>2013-03-02T15:49:49Z</time>
      </trkpt>
      <trkpt lat="44.77459" lon="-0.37265">
        <ele>71</ele>
        <time>2013-03-02T15:49:50Z</time>
      </trkpt>
      <trkpt lat="44.7746" lon="-0.37262">
        <ele>71</ele>
        <time>2013-03-02T15:49:51Z</time>
      </trkpt>
      <trkpt lat="44.77461" lon="-0.37259">
        <ele>71</ele>
        <time>2013-03-02T15:49:52Z</time>
      </trkpt>
      <trkpt lat="44.77463" lon="-0.37256">
        <ele>71</ele>
        <time>2013-03-02T15:49:53Z</time>
      </trkpt>
      <trkpt lat="44.77464" lon="-0.37253">
        <ele>71</ele>
        <time>2013-03-02T15:49:54Z</time>
      </trkpt>
      <trkpt lat="44.77466" lon="-0.3725">
        <ele>71</ele>
        <time>2013-03-02T15:49:55Z</time>
      </trkpt>
      <trkpt lat="44.77474" lon="-0.37229">
        <ele>72</ele>
        <time>2013-03-02T15:50:02Z</time>
      </trkpt>
      <trkpt lat="44.77486" lon="-0.37203">
        <ele>73</ele>
        <time>2013-03-02T15:50:09Z</time>
      </trkpt>
      <trkpt lat="44.77493" lon="-0.37184">
        <ele>74</ele>
        <time>2013-03-02T15:50:15Z</time>
      </trkpt>
      <trkpt lat="44.77499" lon="-0.37163">
        <ele>75</ele>
        <time>2013-03-02T15:50:21Z</time>
      </trkpt>
      <trkpt lat="44.77502" lon="-0.37155">
        <ele>75</ele>
        <time>2013-03-02T15:50:23Z</time>
      </trkpt>
      <trkpt lat="44.77504" lon="-0.37152">
        <ele>75</ele>
        <time>2013-03-02T15:50:24Z</time>
      </trkpt>
      <trkpt lat="44.77505" lon="-0.37147">
        <ele>75</ele>
        <time>2013-03-02T15:50:25Z</time>
      </trkpt>
      <trkpt lat="44.77506" lon="-0.37143">
        <ele>75</ele>
        <time>2013-03-02T15:50:26Z</time>
      </trkpt>
      <trkpt lat="44.77508" lon="-0.37139">
        <ele>75</ele>
        <time>2013-03-02T15:50:27Z</time>
      </trkpt>
      <trkpt lat="44.77511" lon="-0.37135">
        <ele>75</ele>
        <time>2013-03-02T15:50:28Z</time>
      </trkpt>
      <trkpt lat="44.77512" lon="-0.37132">
        <ele>75</ele>
        <time>2013-03-02T15:50:29Z</time>
      </trkpt>
      <trkpt lat="44.77514" lon="-0.37128">
        <ele>75</ele>
        <time>2013-03-02T15:50:30Z</time>
      </trkpt>
      <trkpt lat="44.77526" lon="-0.37101">
        <ele>76</ele>
        <time>2013-03-02T15:50:37Z</time>
      </trkpt>
      <trkpt lat="44.77528" lon="-0.37093">
        <ele>76</ele>
        <time>2013-03-02T15:50:39Z</time>
      </trkpt>
      <trkpt lat="44.77528" lon="-0.37089">
        <ele>76</ele>
        <time>2013-03-02T15:50:40Z</time>
      </trkpt>
      <trkpt lat="44.77529" lon="-0.37086">
        <ele>76</ele>
        <time>2013-03-02T15:50:41Z</time>
      </trkpt>
      <trkpt lat="44.77531" lon="-0.37082">
        <ele>76</ele>
        <time>2013-03-02T15:50:42Z</time>
      </trkpt>
      <trkpt lat="44.77533" lon="-0.37079">
        <ele>76</ele>
        <time>2013-03-02T15:50:43Z</time>
      </trkpt>
      <trkpt lat="44.77544" lon="-0.37052">
        <ele>76</ele>
        <time>2013-03-02T15:50:50Z</time>
      </trkpt>
      <trkpt lat="44.77556" lon="-0.37026">
        <ele>77</ele>
        <time>2013-03-02T15:50:57Z</time>
      </trkpt>
      <trkpt lat="44.77566" lon="-0.37003">
        <ele>77</ele>
        <time>2013-03-02T15:51:03Z</time>
      </trkpt>
      <trkpt lat="44.77579" lon="-0.36967">
        <ele>77</ele>
        <time>2013-03-02T15:51:11Z</time>
      </trkpt>
      <trkpt lat="44.77593" lon="-0.3693">
        <ele>76</ele>
        <time>2013-03-02T15:51:20Z</time>
      </trkpt>
      <trkpt lat="44.77607" lon="-0.36897">
        <ele>77</ele>
        <time>2013-03-02T15:51:28Z</time>
      </trkpt>
      <trkpt lat="44.77618" lon="-0.36863">
        <ele>78</ele>
        <time>2013-03-02T15:51:36Z</time>
      </trkpt>
      <trkpt lat="44.77627" lon="-0.36829">
        <ele>78</ele>
        <time>2013-03-02T15:51:44Z</time>
      </trkpt>
      <trkpt lat="44.77634" lon="-0.3679">
        <ele>78</ele>
        <time>2013-03-02T15:51:53Z</time>
      </trkpt>
      <trkpt lat="44.77639" lon="-0.36757">
        <ele>78</ele>
        <time>2013-03-02T15:52:00Z</time>
      </trkpt>
      <trkpt lat="44.77645" lon="-0.36715">
        <ele>79</ele>
        <time>2013-03-02T15:52:09Z</time>
      </trkpt>
      <trkpt lat="44.77648" lon="-0.36683">
        <ele>79</ele>
        <time>2013-03-02T15:52:16Z</time>
      </trkpt>
      <trkpt lat="44.77652" lon="-0.36651">
        <ele>80</ele>
        <time>2013-03-02T15:52:23Z</time>
      </trkpt>
      <trkpt lat="44.77654" lon="-0.36623">
        <ele>81</ele>
        <time>2013-03-02T15:52:29Z</time>
      </trkpt>
      <trkpt lat="44.77656" lon="-0.36599">
        <ele>81</ele>
        <time>2013-03-02T15:52:34Z</time>
      </trkpt>
      <trkpt lat="44.77659" lon="-0.36566">
        <ele>81</ele>
        <time>2013-03-02T15:52:41Z</time>
      </trkpt>
      <trkpt lat="44.77664" lon="-0.36529">
        <ele>82</ele>
        <time>2013-03-02T15:52:49Z</time>
      </trkpt>
      <trkpt lat="44.77664" lon="-0.365">
        <ele>82</ele>
        <time>2013-03-02T15:52:55Z</time>
      </trkpt>
      <trkpt lat="44.77669" lon="-0.36475">
        <ele>81</ele>
        <time>2013-03-02T15:53:00Z</time>
      </trkpt>
      <trkpt lat="44.77673" lon="-0.36434">
        <ele>80</ele>
        <time>2013-03-02T15:53:08Z</time>
      </trkpt>
      <trkpt lat="44.77677" lon="-0.364">
        <ele>78</ele>
        <time>2013-03-02T15:53:15Z</time>
      </trkpt>
      <trkpt lat="44.7768" lon="-0.36365">
        <ele>77</ele>
        <time>2013-03-02T15:53:22Z</time>
      </trkpt>
      <trkpt lat="44.77684" lon="-0.36327">
        <ele>78</ele>
        <time>2013-03-02T15:53:29Z</time>
      </trkpt>
      <trkpt lat="44.77688" lon="-0.36289">
        <ele>80</ele>
        <time>2013-03-02T15:53:36Z</time>
      </trkpt>
      <trkpt lat="44.77692" lon="-0.36247">
        <ele>82</ele>
        <time>2013-03-02T15:53:44Z</time>
      </trkpt>
      <trkpt lat="44.77698" lon="-0.36202">
        <ele>84</ele>
        <time>2013-03-02T15:53:53Z</time>
      </trkpt>
      <trkpt lat="44.77701" lon="-0.36169">
        <ele>84</ele>
        <time>2013-03-02T15:54:00Z</time>
      </trkpt>
      <trkpt lat="44.77703" lon="-0.36143">
        <ele>83</ele>
        <time>2013-03-02T15:54:06Z</time>
      </trkpt>
      <trkpt lat="44.77703" lon="-0.36113">
        <ele>82</ele>
        <time>2013-03-02T15:54:13Z</time>
      </trkpt>
      <trkpt lat="44.77701" lon="-0.36079">
        <ele>83</ele>
        <time>2013-03-02T15:54:20Z</time>
      </trkpt>
      <trkpt lat="44.77701" lon="-0.36075">
        <ele>83</ele>
        <time>2013-03-02T15:54:21Z</time>
      </trkpt>
      <trkpt lat="44.777" lon="-0.36071">
        <ele>84</ele>
        <time>2013-03-02T15:54:22Z</time>
      </trkpt>
      <trkpt lat="44.77699" lon="-0.36066">
        <ele>84</ele>
        <time>2013-03-02T15:54:23Z</time>
      </trkpt>
      <trkpt lat="44.77699" lon="-0.36062">
        <ele>84</ele>
        <time>2013-03-02T15:54:24Z</time>
      </trkpt>
      <trkpt lat="44.77699" lon="-0.36058">
        <ele>84</ele>
        <time>2013-03-02T15:54:25Z</time>
      </trkpt>
      <trkpt lat="44.77699" lon="-0.36054">
        <ele>85</ele>
        <time>2013-03-02T15:54:26Z</time>
      </trkpt>
      <trkpt lat="44.77699" lon="-0.36051">
        <ele>85</ele>
        <time>2013-03-02T15:54:27Z</time>
      </trkpt>
      <trkpt lat="44.77698" lon="-0.36047">
        <ele>85</ele>
        <time>2013-03-02T15:54:28Z</time>
      </trkpt>
      <trkpt lat="44.77694" lon="-0.36017">
        <ele>88</ele>
        <time>2013-03-02T15:54:34Z</time>
      </trkpt>
      <trkpt lat="44.77689" lon="-0.35994">
        <ele>89</ele>
        <time>2013-03-02T15:54:39Z</time>
      </trkpt>
      <trkpt lat="44.77681" lon="-0.35957">
        <ele>90</ele>
        <time>2013-03-02T15:54:47Z</time>
      </trkpt>
      <trkpt lat="44.77671" lon="-0.35916">
        <ele>90</ele>
        <time>2013-03-02T15:54:56Z</time>
      </trkpt>
      <trkpt lat="44.77664" lon="-0.35885">
        <ele>90</ele>
        <time>2013-03-02T15:55:05Z</time>
      </trkpt>
      <trkpt lat="44.77661" lon="-0.35866">
        <ele>90</ele>
        <time>2013-03-02T15:55:11Z</time>
      </trkpt>
      <trkpt lat="44.7766" lon="-0.35858">
        <ele>90</ele>
        <time>2013-03-02T15:55:15Z</time>
      </trkpt>
      <trkpt lat="44.77656" lon="-0.35842">
        <ele>91</ele>
        <time>2013-03-02T15:55:22Z</time>
      </trkpt>
      <trkpt lat="44.77652" lon="-0.35822">
        <ele>91</ele>
        <time>2013-03-02T15:55:29Z</time>
      </trkpt>
      <trkpt lat="44.77647" lon="-0.35799">
        <ele>92</ele>
        <time>2013-03-02T15:55:36Z</time>
      </trkpt>
      <trkpt lat="44.7764" lon="-0.35769">
        <ele>92</ele>
        <time>2013-03-02T15:55:44Z</time>
      </trkpt>
      <trkpt lat="44.77634" lon="-0.35743">
        <ele>93</ele>
        <time>2013-03-02T15:55:51Z</time>
      </trkpt>
      <trkpt lat="44.77628" lon="-0.35715">
        <ele>93</ele>
        <time>2013-03-02T15:55:58Z</time>
      </trkpt>
      <trkpt lat="44.77621" lon="-0.35685">
        <ele>93</ele>
        <time>2013-03-02T15:56:05Z</time>
      </trkpt>
      <trkpt lat="44.77615" lon="-0.35653">
        <ele>92</ele>
        <time>2013-03-02T15:56:13Z</time>
      </trkpt>
      <trkpt lat="44.77611" lon="-0.3562">
        <ele>91</ele>
        <time>2013-03-02T15:56:20Z</time>
      </trkpt>
      <trkpt lat="44.77609" lon="-0.35587">
        <ele>90</ele>
        <time>2013-03-02T15:56:27Z</time>
      </trkpt>
      <trkpt lat="44.77608" lon="-0.35554">
        <ele>90</ele>
        <time>2013-03-02T15:56:34Z</time>
      </trkpt>
      <trkpt lat="44.77608" lon="-0.35514">
        <ele>90</ele>
        <time>2013-03-02T15:56:42Z</time>
      </trkpt>
      <trkpt lat="44.77608" lon="-0.35477">
        <ele>90</ele>
        <time>2013-03-02T15:56:50Z</time>
      </trkpt>
      <trkpt lat="44.77606" lon="-0.35446">
        <ele>90</ele>
        <time>2013-03-02T15:56:57Z</time>
      </trkpt>
      <trkpt lat="44.77606" lon="-0.35412">
        <ele>91</ele>
        <time>2013-03-02T15:57:05Z</time>
      </trkpt>
      <trkpt lat="44.77605" lon="-0.35372">
        <ele>91</ele>
        <time>2013-03-02T15:57:14Z</time>
      </trkpt>
      <trkpt lat="44.77605" lon="-0.35326">
        <ele>93</ele>
        <time>2013-03-02T15:57:24Z</time>
      </trkpt>
      <trkpt lat="44.77604" lon="-0.35295">
        <ele>94</ele>
        <time>2013-03-02T15:57:31Z</time>
      </trkpt>
      <trkpt lat="44.77602" lon="-0.35259">
        <ele>94</ele>
        <time>2013-03-02T15:57:39Z</time>
      </trkpt>
      <trkpt lat="44.77602" lon="-0.35234">
        <ele>95</ele>
        <time>2013-03-02T15:57:44Z</time>
      </trkpt>
      <trkpt lat="44.77602" lon="-0.35228">
        <ele>95</ele>
        <time>2013-03-02T15:57:45Z</time>
      </trkpt>
      <trkpt lat="44.77602" lon="-0.35223">
        <ele>95</ele>
        <time>2013-03-02T15:57:46Z</time>
      </trkpt>
      <trkpt lat="44.77602" lon="-0.35217">
        <ele>95</ele>
        <time>2013-03-02T15:57:47Z</time>
      </trkpt>
      <trkpt lat="44.77601" lon="-0.35211">
        <ele>95</ele>
        <time>2013-03-02T15:57:48Z</time>
      </trkpt>
      <trkpt lat="44.77602" lon="-0.35204">
        <ele>95</ele>
        <time>2013-03-02T15:57:49Z</time>
      </trkpt>
      <trkpt lat="44.77601" lon="-0.35166">
        <ele>95</ele>
        <time>2013-03-02T15:57:55Z</time>
      </trkpt>
      <trkpt lat="44.77601" lon="-0.3516">
        <ele>95</ele>
        <time>2013-03-02T15:57:56Z</time>
      </trkpt>
      <trkpt lat="44.77601" lon="-0.35149">
        <ele>95</ele>
        <time>2013-03-02T15:57:58Z</time>
      </trkpt>
      <trkpt lat="44.776" lon="-0.35145">
        <ele>95</ele>
        <time>2013-03-02T15:57:59Z</time>
      </trkpt>
      <trkpt lat="44.776" lon="-0.3514">
        <ele>95</ele>
        <time>2013-03-02T15:58:00Z</time>
      </trkpt>
      <trkpt lat="44.77597" lon="-0.35118">
        <ele>94</ele>
        <time>2013-03-02T15:58:06Z</time>
      </trkpt>
      <trkpt lat="44.77583" lon="-0.35094">
        <ele>94</ele>
        <time>2013-03-02T15:58:14Z</time>
      </trkpt>
      <trkpt lat="44.77571" lon="-0.35077">
        <ele>94</ele>
        <time>2013-03-02T15:58:20Z</time>
      </trkpt>
      <trkpt lat="44.77564" lon="-0.35059">
        <ele>95</ele>
        <time>2013-03-02T15:58:26Z</time>
      </trkpt>
      <trkpt lat="44.77564" lon="-0.35057">
        <ele>95</ele>
        <time>2013-03-02T15:58:27Z</time>
      </trkpt>
      <trkpt lat="44.77565" lon="-0.35054">
        <ele>95</ele>
        <time>2013-03-02T15:58:28Z</time>
      </trkpt>
      <trkpt lat="44.77564" lon="-0.35052">
        <ele>95</ele>
        <time>2013-03-02T15:58:29Z</time>
      </trkpt>
      <trkpt lat="44.77563" lon="-0.35049">
        <ele>95</ele>
        <time>2013-03-02T15:58:30Z</time>
      </trkpt>
      <trkpt lat="44.77561" lon="-0.35047">
        <ele>96</ele>
        <time>2013-03-02T15:58:31Z</time>
      </trkpt>
      <trkpt lat="44.7756" lon="-0.35045">
        <ele>96</ele>
        <time>2013-03-02T15:58:32Z</time>
      </trkpt>
      <trkpt lat="44.77559" lon="-0.35042">
        <ele>96</ele>
        <time>2013-03-02T15:58:33Z</time>
      </trkpt>
      <trkpt lat="44.7755" lon="-0.35025">
        <ele>96</ele>
        <time>2013-03-02T15:58:39Z</time>
      </trkpt>
      <trkpt lat="44.77537" lon="-0.35003">
        <ele>97</ele>
        <time>2013-03-02T15:58:46Z</time>
      </trkpt>
      <trkpt lat="44.77522" lon="-0.34972">
        <ele>98</ele>
        <time>2013-03-02T15:58:55Z</time>
      </trkpt>
      <trkpt lat="44.77508" lon="-0.34949">
        <ele>99</ele>
        <time>2013-03-02T15:59:03Z</time>
      </trkpt>
      <trkpt lat="44.77496" lon="-0.34927">
        <ele>100</ele>
        <time>2013-03-02T15:59:10Z</time>
      </trkpt>
      <trkpt lat="44.77477" lon="-0.34897">
        <ele>101</ele>
        <time>2013-03-02T15:59:19Z</time>
      </trkpt>
      <trkpt lat="44.77463" lon="-0.3487">
        <ele>102</ele>
        <time>2013-03-02T15:59:27Z</time>
      </trkpt>
      <trkpt lat="44.77463" lon="-0.34866">
        <ele>102</ele>
        <time>2013-03-02T15:59:28Z</time>
      </trkpt>
      <trkpt lat="44.77463" lon="-0.34862">
        <ele>103</ele>
        <time>2013-03-02T15:59:29Z</time>
      </trkpt>
      <trkpt lat="44.77463" lon="-0.34844">
        <ele>103</ele>
        <time>2013-03-02T15:59:36Z</time>
      </trkpt>
      <trkpt lat="44.77462" lon="-0.34842">
        <ele>103</ele>
        <time>2013-03-02T15:59:37Z</time>
      </trkpt>
      <trkpt lat="44.77456" lon="-0.34829">
        <ele>103</ele>
        <time>2013-03-02T15:59:43Z</time>
      </trkpt>
      <trkpt lat="44.77456" lon="-0.34827">
        <ele>103</ele>
        <time>2013-03-02T15:59:44Z</time>
      </trkpt>
      <trkpt lat="44.77457" lon="-0.34825">
        <ele>103</ele>
        <time>2013-03-02T15:59:45Z</time>
      </trkpt>
      <trkpt lat="44.77458" lon="-0.34823">
        <ele>103</ele>
        <time>2013-03-02T15:59:46Z</time>
      </trkpt>
      <trkpt lat="44.7746" lon="-0.34821">
        <ele>103</ele>
        <time>2013-03-02T15:59:47Z</time>
      </trkpt>
      <trkpt lat="44.77461" lon="-0.34819">
        <ele>103</ele>
        <time>2013-03-02T15:59:48Z</time>
      </trkpt>
      <trkpt lat="44.77462" lon="-0.34817">
        <ele>103</ele>
        <time>2013-03-02T15:59:49Z</time>
      </trkpt>
      <trkpt lat="44.77466" lon="-0.34811">
        <ele>104</ele>
        <time>2013-03-02T15:59:52Z</time>
      </trkpt>
      <trkpt lat="44.77467" lon="-0.34808">
        <ele>104</ele>
        <time>2013-03-02T15:59:53Z</time>
      </trkpt>
      <trkpt lat="44.77467" lon="-0.34805">
        <ele>104</ele>
        <time>2013-03-02T15:59:54Z</time>
      </trkpt>
      <trkpt lat="44.77468" lon="-0.34802">
        <ele>104</ele>
        <time>2013-03-02T15:59:55Z</time>
      </trkpt>
      <trkpt lat="44.77468" lon="-0.34799">
        <ele>104</ele>
        <time>2013-03-02T15:59:56Z</time>
      </trkpt>
      <trkpt lat="44.77469" lon="-0.34796">
        <ele>104</ele>
        <time>2013-03-02T15:59:57Z</time>
      </trkpt>
      <trkpt lat="44.77469" lon="-0.34793">
        <ele>104</ele>
        <time>2013-03-02T15:59:58Z</time>
      </trkpt>
      <trkpt lat="44.77466" lon="-0.3478">
        <ele>104</ele>
        <time>2013-03-02T16:00:03Z</time>
      </trkpt>
      <trkpt lat="44.77467" lon="-0.34777">
        <ele>104</ele>
        <time>2013-03-02T16:00:04Z</time>
      </trkpt>
      <trkpt lat="44.77469" lon="-0.34774">
        <ele>104</ele>
        <time>2013-03-02T16:00:05Z</time>
      </trkpt>
      <trkpt lat="44.7747" lon="-0.34772">
        <ele>104</ele>
        <time>2013-03-02T16:00:06Z</time>
      </trkpt>
      <trkpt lat="44.77472" lon="-0.3477">
        <ele>104</ele>
        <time>2013-03-02T16:00:07Z</time>
      </trkpt>
      <trkpt lat="44.77474" lon="-0.34768">
        <ele>104</ele>
        <time>2013-03-02T16:00:08Z</time>
      </trkpt>
      <trkpt lat="44.77488" lon="-0.34752">
        <ele>104</ele>
        <time>2013-03-02T16:00:14Z</time>
      </trkpt>
      <trkpt lat="44.77503" lon="-0.34733">
        <ele>104</ele>
        <time>2013-03-02T16:00:21Z</time>
      </trkpt>
      <trkpt lat="44.77521" lon="-0.34711">
        <ele>104</ele>
        <time>2013-03-02T16:00:29Z</time>
      </trkpt>
      <trkpt lat="44.77538" lon="-0.34689">
        <ele>104</ele>
        <time>2013-03-02T16:00:36Z</time>
      </trkpt>
      <trkpt lat="44.77557" lon="-0.34667">
        <ele>104</ele>
        <time>2013-03-02T16:00:44Z</time>
      </trkpt>
      <trkpt lat="44.77566" lon="-0.34656">
        <ele>104</ele>
        <time>2013-03-02T16:00:48Z</time>
      </trkpt>
      <trkpt lat="44.77567" lon="-0.34653">
        <ele>104</ele>
        <time>2013-03-02T16:00:49Z</time>
      </trkpt>
      <trkpt lat="44.77567" lon="-0.34649">
        <ele>104</ele>
        <time>2013-03-02T16:00:50Z</time>
      </trkpt>
      <trkpt lat="44.77568" lon="-0.34639">
        <ele>104</ele>
        <time>2013-03-02T16:00:52Z</time>
      </trkpt>
      <trkpt lat="44.77569" lon="-0.34635">
        <ele>104</ele>
        <time>2013-03-02T16:00:53Z</time>
      </trkpt>
      <trkpt lat="44.77572" lon="-0.34632">
        <ele>104</ele>
        <time>2013-03-02T16:00:54Z</time>
      </trkpt>
      <trkpt lat="44.77575" lon="-0.3463">
        <ele>104</ele>
        <time>2013-03-02T16:00:55Z</time>
      </trkpt>
      <trkpt lat="44.77579" lon="-0.34629">
        <ele>104</ele>
        <time>2013-03-02T16:00:56Z</time>
      </trkpt>
      <trkpt lat="44.77583" lon="-0.34628">
        <ele>104</ele>
        <time>2013-03-02T16:00:57Z</time>
      </trkpt>
      <trkpt lat="44.77587" lon="-0.34627">
        <ele>104</ele>
        <time>2013-03-02T16:00:58Z</time>
      </trkpt>
      <trkpt lat="44.77591" lon="-0.34625">
        <ele>104</ele>
        <time>2013-03-02T16:00:59Z</time>
      </trkpt>
      <trkpt lat="44.77594" lon="-0.34622">
        <ele>104</ele>
        <time>2013-03-02T16:01:00Z</time>
      </trkpt>
      <trkpt lat="44.7762" lon="-0.3459">
        <ele>104</ele>
        <time>2013-03-02T16:01:09Z</time>
      </trkpt>
      <trkpt lat="44.77631" lon="-0.3456">
        <ele>104</ele>
        <time>2013-03-02T16:01:16Z</time>
      </trkpt>
      <trkpt lat="44.77641" lon="-0.34509">
        <ele>104</ele>
        <time>2013-03-02T16:01:25Z</time>
      </trkpt>
      <trkpt lat="44.77644" lon="-0.34497">
        <ele>104</ele>
        <time>2013-03-02T16:01:27Z</time>
      </trkpt>
      <trkpt lat="44.77645" lon="-0.34491">
        <ele>104</ele>
        <time>2013-03-02T16:01:28Z</time>
      </trkpt>
      <trkpt lat="44.7765" lon="-0.34454">
        <ele>103</ele>
        <time>2013-03-02T16:01:34Z</time>
      </trkpt>
      <trkpt lat="44.77657" lon="-0.34417">
        <ele>102</ele>
        <time>2013-03-02T16:01:40Z</time>
      </trkpt>
      <trkpt lat="44.77674" lon="-0.34364">
        <ele>99</ele>
        <time>2013-03-02T16:01:49Z</time>
      </trkpt>
      <trkpt lat="44.77695" lon="-0.34323">
        <ele>100</ele>
        <time>2013-03-02T16:01:57Z</time>
      </trkpt>
      <trkpt lat="44.77698" lon="-0.34319">
        <ele>100</ele>
        <time>2013-03-02T16:01:58Z</time>
      </trkpt>
      <trkpt lat="44.777" lon="-0.34314">
        <ele>100</ele>
        <time>2013-03-02T16:01:59Z</time>
      </trkpt>
      <trkpt lat="44.77717" lon="-0.34278">
        <ele>102</ele>
        <time>2013-03-02T16:02:08Z</time>
      </trkpt>
      <trkpt lat="44.77723" lon="-0.34252">
        <ele>102</ele>
        <time>2013-03-02T16:02:15Z</time>
      </trkpt>
      <trkpt lat="44.77721" lon="-0.34249">
        <ele>102</ele>
        <time>2013-03-02T16:02:16Z</time>
      </trkpt>
      <trkpt lat="44.77719" lon="-0.34246">
        <ele>102</ele>
        <time>2013-03-02T16:02:17Z</time>
      </trkpt>
      <trkpt lat="44.7771" lon="-0.34239">
        <ele>102</ele>
        <time>2013-03-02T16:02:23Z</time>
      </trkpt>
      <trkpt lat="44.77704" lon="-0.34235">
        <ele>103</ele>
        <time>2013-03-02T16:02:29Z</time>
      </trkpt>
      <trkpt lat="44.77697" lon="-0.34232">
        <ele>103</ele>
        <time>2013-03-02T16:02:32Z</time>
      </trkpt>
      <trkpt lat="44.77695" lon="-0.34231">
        <ele>103</ele>
        <time>2013-03-02T16:02:33Z</time>
      </trkpt>
      <trkpt lat="44.77672" lon="-0.34215">
        <ele>104</ele>
        <time>2013-03-02T16:02:41Z</time>
      </trkpt>
      <trkpt lat="44.77659" lon="-0.34206">
        <ele>104</ele>
        <time>2013-03-02T16:02:46Z</time>
      </trkpt>
      <trkpt lat="44.77648" lon="-0.34198">
        <ele>104</ele>
        <time>2013-03-02T16:02:51Z</time>
      </trkpt>
      <trkpt lat="44.77628" lon="-0.34187">
        <ele>104</ele>
        <time>2013-03-02T16:02:58Z</time>
      </trkpt>
      <trkpt lat="44.77608" lon="-0.34177">
        <ele>105</ele>
        <time>2013-03-02T16:03:05Z</time>
      </trkpt>
      <trkpt lat="44.77592" lon="-0.34169">
        <ele>105</ele>
        <time>2013-03-02T16:03:12Z</time>
      </trkpt>
      <trkpt lat="44.77578" lon="-0.34162">
        <ele>105</ele>
        <time>2013-03-02T16:03:20Z</time>
      </trkpt>
      <trkpt lat="44.77576" lon="-0.34162">
        <ele>105</ele>
        <time>2013-03-02T16:03:21Z</time>
      </trkpt>
      <trkpt lat="44.77575" lon="-0.34163">
        <ele>105</ele>
        <time>2013-03-02T16:03:22Z</time>
      </trkpt>
      <trkpt lat="44.77572" lon="-0.34166">
        <ele>105</ele>
        <time>2013-03-02T16:03:25Z</time>
      </trkpt>
      <trkpt lat="44.77572" lon="-0.34168">
        <ele>105</ele>
        <time>2013-03-02T16:03:26Z</time>
      </trkpt>
      <trkpt lat="44.77571" lon="-0.3417">
        <ele>105</ele>
        <time>2013-03-02T16:03:27Z</time>
      </trkpt>
      <trkpt lat="44.77565" lon="-0.34189">
        <ele>105</ele>
        <time>2013-03-02T16:03:34Z</time>
      </trkpt>
      <trkpt lat="44.77559" lon="-0.34211">
        <ele>104</ele>
        <time>2013-03-02T16:03:41Z</time>
      </trkpt>
      <trkpt lat="44.77551" lon="-0.3424">
        <ele>104</ele>
        <time>2013-03-02T16:03:49Z</time>
      </trkpt>
      <trkpt lat="44.77547" lon="-0.34245">
        <ele>104</ele>
        <time>2013-03-02T16:03:52Z</time>
      </trkpt>
      <trkpt lat="44.77546" lon="-0.34246">
        <ele>104</ele>
        <time>2013-03-02T16:03:53Z</time>
      </trkpt>
      <trkpt lat="44.77534" lon="-0.34248">
        <ele>105</ele>
        <time>2013-03-02T16:03:59Z</time>
      </trkpt>
      <trkpt lat="44.77521" lon="-0.34241">
        <ele>105</ele>
        <time>2013-03-02T16:04:03Z</time>
      </trkpt>
      <trkpt lat="44.77506" lon="-0.34231">
        <ele>105</ele>
        <time>2013-03-02T16:04:09Z</time>
      </trkpt>
      <trkpt lat="44.77493" lon="-0.34226">
        <ele>105</ele>
        <time>2013-03-02T16:04:15Z</time>
      </trkpt>
      <trkpt lat="44.77477" lon="-0.34215">
        <ele>105</ele>
        <time>2013-03-02T16:04:22Z</time>
      </trkpt>
      <trkpt lat="44.77459" lon="-0.34203">
        <ele>105</ele>
        <time>2013-03-02T16:04:29Z</time>
      </trkpt>
      <trkpt lat="44.77441" lon="-0.34193">
        <ele>106</ele>
        <time>2013-03-02T16:04:36Z</time>
      </trkpt>
      <trkpt lat="44.77422" lon="-0.34176">
        <ele>106</ele>
        <time>2013-03-02T16:04:42Z</time>
      </trkpt>
      <trkpt lat="44.77419" lon="-0.34174">
        <ele>106</ele>
        <time>2013-03-02T16:04:43Z</time>
      </trkpt>
      <trkpt lat="44.77416" lon="-0.34172">
        <ele>106</ele>
        <time>2013-03-02T16:04:44Z</time>
      </trkpt>
      <trkpt lat="44.77401" lon="-0.34156">
        <ele>106</ele>
        <time>2013-03-02T16:04:51Z</time>
      </trkpt>
      <trkpt lat="44.77387" lon="-0.34136">
        <ele>106</ele>
        <time>2013-03-02T16:04:58Z</time>
      </trkpt>
      <trkpt lat="44.7738" lon="-0.34127">
        <ele>106</ele>
        <time>2013-03-02T16:05:02Z</time>
      </trkpt>
      <trkpt lat="44.77379" lon="-0.34125">
        <ele>106</ele>
        <time>2013-03-02T16:05:03Z</time>
      </trkpt>
      <trkpt lat="44.77375" lon="-0.34123">
        <ele>106</ele>
        <time>2013-03-02T16:05:09Z</time>
      </trkpt>
      <trkpt lat="44.77373" lon="-0.34121">
        <ele>106</ele>
        <time>2013-03-02T16:05:21Z</time>
      </trkpt>
      <trkpt lat="44.77372" lon="-0.34121">
        <ele>106</ele>
        <time>2013-03-02T16:05:39Z</time>
      </trkpt>
      <trkpt lat="44.77372" lon="-0.34121">
        <ele>106</ele>
        <time>2013-03-02T16:05:53Z</time>
      </trkpt>
      <trkpt lat="44.77372" lon="-0.34121">
        <ele>106</ele>
        <time>2013-03-02T16:06:00Z</time>
      </trkpt>
      <trkpt lat="44.77371" lon="-0.3412">
        <ele>106</ele>
        <time>2013-03-02T16:06:01Z</time>
      </trkpt>
      <trkpt lat="44.7737" lon="-0.34119">
        <ele>106</ele>
        <time>2013-03-02T16:06:02Z</time>
      </trkpt>
      <trkpt lat="44.77369" lon="-0.34117">
        <ele>106</ele>
        <time>2013-03-02T16:06:03Z</time>
      </trkpt>
      <trkpt lat="44.77367" lon="-0.34116">
        <ele>106</ele>
        <time>2013-03-02T16:06:04Z</time>
      </trkpt>
      <trkpt lat="44.77366" lon="-0.34115">
        <ele>106</ele>
        <time>2013-03-02T16:06:05Z</time>
      </trkpt>
      <trkpt lat="44.77352" lon="-0.34099">
        <ele>106</ele>
        <time>2013-03-02T16:06:13Z</time>
      </trkpt>
      <trkpt lat="44.77342" lon="-0.34087">
        <ele>106</ele>
        <time>2013-03-02T16:06:19Z</time>
      </trkpt>
      <trkpt lat="44.77341" lon="-0.34086">
        <ele>106</ele>
        <time>2013-03-02T16:06:20Z</time>
      </trkpt>
      <trkpt lat="44.77338" lon="-0.34081">
        <ele>106</ele>
        <time>2013-03-02T16:06:27Z</time>
      </trkpt>
      <trkpt lat="44.77335" lon="-0.34077">
        <ele>106</ele>
        <time>2013-03-02T16:06:39Z</time>
      </trkpt>
      <trkpt lat="44.77333" lon="-0.34073">
        <ele>106</ele>
        <time>2013-03-02T16:06:42Z</time>
      </trkpt>
      <trkpt lat="44.77333" lon="-0.34071">
        <ele>106</ele>
        <time>2013-03-02T16:06:43Z</time>
      </trkpt>
      <trkpt lat="44.77327" lon="-0.34064">
        <ele>106</ele>
        <time>2013-03-02T16:06:49Z</time>
      </trkpt>
      <trkpt lat="44.77316" lon="-0.3405">
        <ele>106</ele>
        <time>2013-03-02T16:06:56Z</time>
      </trkpt>
      <trkpt lat="44.77315" lon="-0.34048">
        <ele>106</ele>
        <time>2013-03-02T16:06:57Z</time>
      </trkpt>
      <trkpt lat="44.77307" lon="-0.34036">
        <ele>106</ele>
        <time>2013-03-02T16:07:03Z</time>
      </trkpt>
      <trkpt lat="44.77304" lon="-0.34035">
        <ele>106</ele>
        <time>2013-03-02T16:07:05Z</time>
      </trkpt>
      <trkpt lat="44.77303" lon="-0.34034">
        <ele>106</ele>
        <time>2013-03-02T16:07:06Z</time>
      </trkpt>
      <trkpt lat="44.77302" lon="-0.34032">
        <ele>106</ele>
        <time>2013-03-02T16:07:07Z</time>
      </trkpt>
      <trkpt lat="44.77301" lon="-0.34029">
        <ele>106</ele>
        <time>2013-03-02T16:07:08Z</time>
      </trkpt>
      <trkpt lat="44.773" lon="-0.34027">
        <ele>106</ele>
        <time>2013-03-02T16:07:09Z</time>
      </trkpt>
      <trkpt lat="44.77298" lon="-0.34024">
        <ele>106</ele>
        <time>2013-03-02T16:07:10Z</time>
      </trkpt>
      <trkpt lat="44.77297" lon="-0.34021">
        <ele>106</ele>
        <time>2013-03-02T16:07:11Z</time>
      </trkpt>
      <trkpt lat="44.77296" lon="-0.34019">
        <ele>106</ele>
        <time>2013-03-02T16:07:12Z</time>
      </trkpt>
      <trkpt lat="44.77295" lon="-0.34017">
        <ele>106</ele>
        <time>2013-03-02T16:07:13Z</time>
      </trkpt>
      <trkpt lat="44.77293" lon="-0.34015">
        <ele>106</ele>
        <time>2013-03-02T16:07:14Z</time>
      </trkpt>
      <trkpt lat="44.77291" lon="-0.34012">
        <ele>106</ele>
        <time>2013-03-02T16:07:15Z</time>
      </trkpt>
      <trkpt lat="44.77289" lon="-0.34009">
        <ele>106</ele>
        <time>2013-03-02T16:07:16Z</time>
      </trkpt>
      <trkpt lat="44.77274" lon="-0.33989">
        <ele>105</ele>
        <time>2013-03-02T16:07:23Z</time>
      </trkpt>
      <trkpt lat="44.7726" lon="-0.33964">
        <ele>105</ele>
        <time>2013-03-02T16:07:31Z</time>
      </trkpt>
      <trkpt lat="44.77258" lon="-0.33961">
        <ele>105</ele>
        <time>2013-03-02T16:07:32Z</time>
      </trkpt>
      <trkpt lat="44.77252" lon="-0.33954">
        <ele>105</ele>
        <time>2013-03-02T16:07:35Z</time>
      </trkpt>
      <trkpt lat="44.7725" lon="-0.33953">
        <ele>105</ele>
        <time>2013-03-02T16:07:36Z</time>
      </trkpt>
      <trkpt lat="44.77248" lon="-0.33953">
        <ele>105</ele>
        <time>2013-03-02T16:07:37Z</time>
      </trkpt>
      <trkpt lat="44.77245" lon="-0.33953">
        <ele>105</ele>
        <time>2013-03-02T16:07:38Z</time>
      </trkpt>
      <trkpt lat="44.77243" lon="-0.33953">
        <ele>105</ele>
        <time>2013-03-02T16:07:39Z</time>
      </trkpt>
      <trkpt lat="44.77241" lon="-0.33953">
        <ele>105</ele>
        <time>2013-03-02T16:07:40Z</time>
      </trkpt>
      <trkpt lat="44.77238" lon="-0.3395">
        <ele>105</ele>
        <time>2013-03-02T16:07:45Z</time>
      </trkpt>
      <trkpt lat="44.77237" lon="-0.33949">
        <ele>105</ele>
        <time>2013-03-02T16:07:54Z</time>
      </trkpt>
      <trkpt lat="44.77236" lon="-0.33949">
        <ele>105</ele>
        <time>2013-03-02T16:08:10Z</time>
      </trkpt>
      <trkpt lat="44.77236" lon="-0.33947">
        <ele>105</ele>
        <time>2013-03-02T16:08:23Z</time>
      </trkpt>
      <trkpt lat="44.77235" lon="-0.33947">
        <ele>105</ele>
        <time>2013-03-02T16:08:37Z</time>
      </trkpt>
      <trkpt lat="44.77235" lon="-0.33947">
        <ele>105</ele>
        <time>2013-03-02T16:08:49Z</time>
      </trkpt>
      <trkpt lat="44.77234" lon="-0.33948">
        <ele>105</ele>
        <time>2013-03-02T16:08:50Z</time>
      </trkpt>
      <trkpt lat="44.77232" lon="-0.33949">
        <ele>104</ele>
        <time>2013-03-02T16:08:51Z</time>
      </trkpt>
      <trkpt lat="44.7723" lon="-0.33948">
        <ele>104</ele>
        <time>2013-03-02T16:08:52Z</time>
      </trkpt>
      <trkpt lat="44.77229" lon="-0.33945">
        <ele>104</ele>
        <time>2013-03-02T16:08:53Z</time>
      </trkpt>
      <trkpt lat="44.77228" lon="-0.33942">
        <ele>104</ele>
        <time>2013-03-02T16:08:54Z</time>
      </trkpt>
      <trkpt lat="44.77229" lon="-0.33938">
        <ele>104</ele>
        <time>2013-03-02T16:08:55Z</time>
      </trkpt>
      <trkpt lat="44.77228" lon="-0.33935">
        <ele>104</ele>
        <time>2013-03-02T16:08:56Z</time>
      </trkpt>
      <trkpt lat="44.77228" lon="-0.33932">
        <ele>104</ele>
        <time>2013-03-02T16:08:57Z</time>
      </trkpt>
      <trkpt lat="44.77229" lon="-0.33915">
        <ele>105</ele>
        <time>2013-03-02T16:09:02Z</time>
      </trkpt>
      <trkpt lat="44.77231" lon="-0.33894">
        <ele>105</ele>
        <time>2013-03-02T16:09:08Z</time>
      </trkpt>
      <trkpt lat="44.77234" lon="-0.33864">
        <ele>105</ele>
        <time>2013-03-02T16:09:16Z</time>
      </trkpt>
      <trkpt lat="44.77235" lon="-0.33831">
        <ele>105</ele>
        <time>2013-03-02T16:09:24Z</time>
      </trkpt>
      <trkpt lat="44.77232" lon="-0.33794">
        <ele>104</ele>
        <time>2013-03-02T16:09:32Z</time>
      </trkpt>
      <trkpt lat="44.77225" lon="-0.33754">
        <ele>104</ele>
        <time>2013-03-02T16:09:40Z</time>
      </trkpt>
      <trkpt lat="44.77216" lon="-0.33706">
        <ele>104</ele>
        <time>2013-03-02T16:09:50Z</time>
      </trkpt>
      <trkpt lat="44.77206" lon="-0.33667">
        <ele>104</ele>
        <time>2013-03-02T16:09:58Z</time>
      </trkpt>
      <trkpt lat="44.77199" lon="-0.33629">
        <ele>104</ele>
        <time>2013-03-02T16:10:06Z</time>
      </trkpt>
      <trkpt lat="44.77201" lon="-0.33616">
        <ele>104</ele>
        <time>2013-03-02T16:10:09Z</time>
      </trkpt>
      <trkpt lat="44.77204" lon="-0.33613">
        <ele>104</ele>
        <time>2013-03-02T16:10:10Z</time>
      </trkpt>
      <trkpt lat="44.77207" lon="-0.33611">
        <ele>104</ele>
        <time>2013-03-02T16:10:11Z</time>
      </trkpt>
      <trkpt lat="44.7721" lon="-0.3361">
        <ele>104</ele>
        <time>2013-03-02T16:10:12Z</time>
      </trkpt>
      <trkpt lat="44.77213" lon="-0.3361">
        <ele>104</ele>
        <time>2013-03-02T16:10:13Z</time>
      </trkpt>
      <trkpt lat="44.77216" lon="-0.3361">
        <ele>104</ele>
        <time>2013-03-02T16:10:14Z</time>
      </trkpt>
      <trkpt lat="44.77218" lon="-0.33612">
        <ele>104</ele>
        <time>2013-03-02T16:10:15Z</time>
      </trkpt>
      <trkpt lat="44.77219" lon="-0.33614">
        <ele>104</ele>
        <time>2013-03-02T16:10:16Z</time>
      </trkpt>
      <trkpt lat="44.77221" lon="-0.33615">
        <ele>104</ele>
        <time>2013-03-02T16:10:17Z</time>
      </trkpt>
      <trkpt lat="44.77223" lon="-0.33616">
        <ele>104</ele>
        <time>2013-03-02T16:10:18Z</time>
      </trkpt>
      <trkpt lat="44.77225" lon="-0.33616">
        <ele>104</ele>
        <time>2013-03-02T16:10:19Z</time>
      </trkpt>
      <trkpt lat="44.77227" lon="-0.33615">
        <ele>104</ele>
        <time>2013-03-02T16:10:20Z</time>
      </trkpt>
      <trkpt lat="44.77235" lon="-0.33606">
        <ele>104</ele>
        <time>2013-03-02T16:10:26Z</time>
      </trkpt>
      <trkpt lat="44.77237" lon="-0.33605">
        <ele>104</ele>
        <time>2013-03-02T16:10:27Z</time>
      </trkpt>
      <trkpt lat="44.77238" lon="-0.33604">
        <ele>104</ele>
        <time>2013-03-02T16:10:28Z</time>
      </trkpt>
      <trkpt lat="44.77249" lon="-0.33594">
        <ele>103</ele>
        <time>2013-03-02T16:10:33Z</time>
      </trkpt>
      <trkpt lat="44.77251" lon="-0.33591">
        <ele>103</ele>
        <time>2013-03-02T16:10:34Z</time>
      </trkpt>
      <trkpt lat="44.77254" lon="-0.33589">
        <ele>103</ele>
        <time>2013-03-02T16:10:35Z</time>
      </trkpt>
      <trkpt lat="44.77256" lon="-0.33586">
        <ele>103</ele>
        <time>2013-03-02T16:10:36Z</time>
      </trkpt>
      <trkpt lat="44.77258" lon="-0.33582">
        <ele>103</ele>
        <time>2013-03-02T16:10:37Z</time>
      </trkpt>
      <trkpt lat="44.7726" lon="-0.33577">
        <ele>103</ele>
        <time>2013-03-02T16:10:38Z</time>
      </trkpt>
      <trkpt lat="44.7726" lon="-0.33572">
        <ele>103</ele>
        <time>2013-03-02T16:10:39Z</time>
      </trkpt>
      <trkpt lat="44.7726" lon="-0.33566">
        <ele>103</ele>
        <time>2013-03-02T16:10:40Z</time>
      </trkpt>
      <trkpt lat="44.7726" lon="-0.33561">
        <ele>103</ele>
        <time>2013-03-02T16:10:41Z</time>
      </trkpt>
      <trkpt lat="44.77255" lon="-0.33536">
        <ele>103</ele>
        <time>2013-03-02T16:10:47Z</time>
      </trkpt>
      <trkpt lat="44.77249" lon="-0.33505">
        <ele>103</ele>
        <time>2013-03-02T16:10:55Z</time>
      </trkpt>
      <trkpt lat="44.77242" lon="-0.33475">
        <ele>103</ele>
        <time>2013-03-02T16:11:03Z</time>
      </trkpt>
      <trkpt lat="44.77236" lon="-0.33454">
        <ele>103</ele>
        <time>2013-03-02T16:11:09Z</time>
      </trkpt>
      <trkpt lat="44.77226" lon="-0.3342">
        <ele>103</ele>
        <time>2013-03-02T16:11:17Z</time>
      </trkpt>
      <trkpt lat="44.77224" lon="-0.33382">
        <ele>103</ele>
        <time>2013-03-02T16:11:25Z</time>
      </trkpt>
      <trkpt lat="44.77223" lon="-0.33377">
        <ele>103</ele>
        <time>2013-03-02T16:11:26Z</time>
      </trkpt>
      <trkpt lat="44.7721" lon="-0.3337">
        <ele>103</ele>
        <time>2013-03-02T16:11:31Z</time>
      </trkpt>
      <trkpt lat="44.77195" lon="-0.3337">
        <ele>103</ele>
        <time>2013-03-02T16:11:36Z</time>
      </trkpt>
      <trkpt lat="44.77184" lon="-0.33372">
        <ele>103</ele>
        <time>2013-03-02T16:11:40Z</time>
      </trkpt>
      <trkpt lat="44.77182" lon="-0.33354">
        <ele>103</ele>
        <time>2013-03-02T16:11:45Z</time>
      </trkpt>
      <trkpt lat="44.77187" lon="-0.33312">
        <ele>103</ele>
        <time>2013-03-02T16:11:53Z</time>
      </trkpt>
      <trkpt lat="44.77187" lon="-0.33255">
        <ele>102</ele>
        <time>2013-03-02T16:12:04Z</time>
      </trkpt>
      <trkpt lat="44.77185" lon="-0.33238">
        <ele>102</ele>
        <time>2013-03-02T16:12:09Z</time>
      </trkpt>
      <trkpt lat="44.77184" lon="-0.33235">
        <ele>102</ele>
        <time>2013-03-02T16:12:11Z</time>
      </trkpt>
      <trkpt lat="44.77183" lon="-0.33231">
        <ele>102</ele>
        <time>2013-03-02T16:12:13Z</time>
      </trkpt>
      <trkpt lat="44.77194" lon="-0.33227">
        <ele>102</ele>
        <time>2013-03-02T16:12:19Z</time>
      </trkpt>
      <trkpt lat="44.77217" lon="-0.33227">
        <ele>103</ele>
        <time>2013-03-02T16:12:27Z</time>
      </trkpt>
      <trkpt lat="44.77235" lon="-0.33224">
        <ele>103</ele>
        <time>2013-03-02T16:12:34Z</time>
      </trkpt>
      <trkpt lat="44.77252" lon="-0.33223">
        <ele>103</ele>
        <time>2013-03-02T16:12:41Z</time>
      </trkpt>
      <trkpt lat="44.77272" lon="-0.33222">
        <ele>103</ele>
        <time>2013-03-02T16:12:48Z</time>
      </trkpt>
      <trkpt lat="44.77297" lon="-0.3322">
        <ele>103</ele>
        <time>2013-03-02T16:12:55Z</time>
      </trkpt>
      <trkpt lat="44.7731" lon="-0.3321">
        <ele>103</ele>
        <time>2013-03-02T16:13:00Z</time>
      </trkpt>
      <trkpt lat="44.77315" lon="-0.33188">
        <ele>103</ele>
        <time>2013-03-02T16:13:06Z</time>
      </trkpt>
      <trkpt lat="44.77319" lon="-0.33163">
        <ele>102</ele>
        <time>2013-03-02T16:13:12Z</time>
      </trkpt>
      <trkpt lat="44.77324" lon="-0.33139">
        <ele>101</ele>
        <time>2013-03-02T16:13:17Z</time>
      </trkpt>
      <trkpt lat="44.77331" lon="-0.33112">
        <ele>100</ele>
        <time>2013-03-02T16:13:23Z</time>
      </trkpt>
      <trkpt lat="44.77334" lon="-0.3308">
        <ele>100</ele>
        <time>2013-03-02T16:13:29Z</time>
      </trkpt>
      <trkpt lat="44.77339" lon="-0.33043">
        <ele>99</ele>
        <time>2013-03-02T16:13:36Z</time>
      </trkpt>
      <trkpt lat="44.77346" lon="-0.3301">
        <ele>98</ele>
        <time>2013-03-02T16:13:43Z</time>
      </trkpt>
      <trkpt lat="44.77348" lon="-0.33006">
        <ele>98</ele>
        <time>2013-03-02T16:13:44Z</time>
      </trkpt>
      <trkpt lat="44.77364" lon="-0.33002">
        <ele>98</ele>
        <time>2013-03-02T16:13:49Z</time>
      </trkpt>
      <trkpt lat="44.77373" lon="-0.33">
        <ele>98</ele>
        <time>2013-03-02T16:13:52Z</time>
      </trkpt>
      <trkpt lat="44.77378" lon="-0.33">
        <ele>98</ele>
        <time>2013-03-02T16:13:53Z</time>
      </trkpt>
      <trkpt lat="44.77382" lon="-0.33">
        <ele>98</ele>
        <time>2013-03-02T16:13:54Z</time>
      </trkpt>
      <trkpt lat="44.77398" lon="-0.32993">
        <ele>98</ele>
        <time>2013-03-02T16:13:59Z</time>
      </trkpt>
      <trkpt lat="44.77402" lon="-0.32987">
        <ele>98</ele>
        <time>2013-03-02T16:14:05Z</time>
      </trkpt>
      <trkpt lat="44.77402" lon="-0.32987">
        <ele>98</ele>
        <time>2013-03-02T16:14:14Z</time>
      </trkpt>
      <trkpt lat="44.77404" lon="-0.32988">
        <ele>98</ele>
        <time>2013-03-02T16:14:28Z</time>
      </trkpt>
      <trkpt lat="44.77404" lon="-0.32989">
        <ele>98</ele>
        <time>2013-03-02T16:14:44Z</time>
      </trkpt>
      <trkpt lat="44.77405" lon="-0.32989">
        <ele>98</ele>
        <time>2013-03-02T16:14:55Z</time>
      </trkpt>
      <trkpt lat="44.77405" lon="-0.32989">
        <ele>98</ele>
        <time>2013-03-02T16:15:01Z</time>
      </trkpt>
      <trkpt lat="44.77405" lon="-0.32989">
        <ele>98</ele>
        <time>2013-03-02T16:15:14Z</time>
      </trkpt>
      <trkpt lat="44.77406" lon="-0.32986">
        <ele>98</ele>
        <time>2013-03-02T16:15:21Z</time>
      </trkpt>
      <trkpt lat="44.77407" lon="-0.32984">
        <ele>98</ele>
        <time>2013-03-02T16:15:28Z</time>
      </trkpt>
      <trkpt lat="44.77413" lon="-0.32978">
        <ele>98</ele>
        <time>2013-03-02T16:15:34Z</time>
      </trkpt>
      <trkpt lat="44.77419" lon="-0.3297">
        <ele>98</ele>
        <time>2013-03-02T16:15:38Z</time>
      </trkpt>
      <trkpt lat="44.7743" lon="-0.32957">
        <ele>97</ele>
        <time>2013-03-02T16:15:44Z</time>
      </trkpt>
      <trkpt lat="44.77444" lon="-0.32941">
        <ele>97</ele>
        <time>2013-03-02T16:15:50Z</time>
      </trkpt>
      <trkpt lat="44.7746" lon="-0.32925">
        <ele>98</ele>
        <time>2013-03-02T16:15:56Z</time>
      </trkpt>
      <trkpt lat="44.77472" lon="-0.32913">
        <ele>98</ele>
        <time>2013-03-02T16:16:01Z</time>
      </trkpt>
      <trkpt lat="44.77475" lon="-0.32911">
        <ele>98</ele>
        <time>2013-03-02T16:16:02Z</time>
      </trkpt>
      <trkpt lat="44.77478" lon="-0.32908">
        <ele>98</ele>
        <time>2013-03-02T16:16:03Z</time>
      </trkpt>
      <trkpt lat="44.77481" lon="-0.32907">
        <ele>98</ele>
        <time>2013-03-02T16:16:04Z</time>
      </trkpt>
      <trkpt lat="44.77484" lon="-0.32905">
        <ele>98</ele>
        <time>2013-03-02T16:16:05Z</time>
      </trkpt>
      <trkpt lat="44.77487" lon="-0.32902">
        <ele>98</ele>
        <time>2013-03-02T16:16:06Z</time>
      </trkpt>
      <trkpt lat="44.7749" lon="-0.32899">
        <ele>98</ele>
        <time>2013-03-02T16:16:07Z</time>
      </trkpt>
      <trkpt lat="44.77506" lon="-0.32882">
        <ele>99</ele>
        <time>2013-03-02T16:16:14Z</time>
      </trkpt>
      <trkpt lat="44.77521" lon="-0.32871">
        <ele>99</ele>
        <time>2013-03-02T16:16:20Z</time>
      </trkpt>
      <trkpt lat="44.77524" lon="-0.32871">
        <ele>99</ele>
        <time>2013-03-02T16:16:21Z</time>
      </trkpt>
      <trkpt lat="44.77539" lon="-0.32861">
        <ele>98</ele>
        <time>2013-03-02T16:16:27Z</time>
      </trkpt>
      <trkpt lat="44.77555" lon="-0.32856">
        <ele>98</ele>
        <time>2013-03-02T16:16:33Z</time>
      </trkpt>
      <trkpt lat="44.77575" lon="-0.32848">
        <ele>98</ele>
        <time>2013-03-02T16:16:39Z</time>
      </trkpt>
      <trkpt lat="44.77596" lon="-0.32838">
        <ele>97</ele>
        <time>2013-03-02T16:16:45Z</time>
      </trkpt>
      <trkpt lat="44.77604" lon="-0.32813">
        <ele>97</ele>
        <time>2013-03-02T16:16:50Z</time>
      </trkpt>
      <trkpt lat="44.77602" lon="-0.32797">
        <ele>97</ele>
        <time>2013-03-02T16:16:55Z</time>
      </trkpt>
      <trkpt lat="44.77601" lon="-0.32785">
        <ele>97</ele>
        <time>2013-03-02T16:16:57Z</time>
      </trkpt>
      <trkpt lat="44.77594" lon="-0.32748">
        <ele>96</ele>
        <time>2013-03-02T16:17:04Z</time>
      </trkpt>
      <trkpt lat="44.7759" lon="-0.32717">
        <ele>96</ele>
        <time>2013-03-02T16:17:10Z</time>
      </trkpt>
      <trkpt lat="44.77587" lon="-0.32697">
        <ele>95</ele>
        <time>2013-03-02T16:17:15Z</time>
      </trkpt>
      <trkpt lat="44.77584" lon="-0.32665">
        <ele>93</ele>
        <time>2013-03-02T16:17:21Z</time>
      </trkpt>
      <trkpt lat="44.77586" lon="-0.32627">
        <ele>91</ele>
        <time>2013-03-02T16:17:27Z</time>
      </trkpt>
      <trkpt lat="44.77585" lon="-0.32619">
        <ele>90</ele>
        <time>2013-03-02T16:17:28Z</time>
      </trkpt>
      <trkpt lat="44.77579" lon="-0.32541">
        <ele>87</ele>
        <time>2013-03-02T16:17:36Z</time>
      </trkpt>
      <trkpt lat="44.77576" lon="-0.32488">
        <ele>85</ele>
        <time>2013-03-02T16:17:41Z</time>
      </trkpt>
      <trkpt lat="44.77568" lon="-0.32461">
        <ele>85</ele>
        <time>2013-03-02T16:17:44Z</time>
      </trkpt>
      <trkpt lat="44.77559" lon="-0.32436">
        <ele>84</ele>
        <time>2013-03-02T16:17:47Z</time>
      </trkpt>
      <trkpt lat="44.77549" lon="-0.32402">
        <ele>82</ele>
        <time>2013-03-02T16:17:52Z</time>
      </trkpt>
      <trkpt lat="44.77547" lon="-0.32398">
        <ele>82</ele>
        <time>2013-03-02T16:17:53Z</time>
      </trkpt>
      <trkpt lat="44.77543" lon="-0.32391">
        <ele>81</ele>
        <time>2013-03-02T16:17:56Z</time>
      </trkpt>
      <trkpt lat="44.77544" lon="-0.32388">
        <ele>81</ele>
        <time>2013-03-02T16:18:01Z</time>
      </trkpt>
      <trkpt lat="44.77545" lon="-0.32388">
        <ele>81</ele>
        <time>2013-03-02T16:18:09Z</time>
      </trkpt>
      <trkpt lat="44.77546" lon="-0.32388">
        <ele>81</ele>
        <time>2013-03-02T16:18:19Z</time>
      </trkpt>
      <trkpt lat="44.77546" lon="-0.32387">
        <ele>81</ele>
        <time>2013-03-02T16:18:25Z</time>
      </trkpt>
      <trkpt lat="44.77545" lon="-0.32386">
        <ele>81</ele>
        <time>2013-03-02T16:18:40Z</time>
      </trkpt>
      <trkpt lat="44.77544" lon="-0.32387">
        <ele>81</ele>
        <time>2013-03-02T16:18:55Z</time>
      </trkpt>
      <trkpt lat="44.77546" lon="-0.32387">
        <ele>81</ele>
        <time>2013-03-02T16:18:58Z</time>
      </trkpt>
      <trkpt lat="44.77554" lon="-0.32385">
        <ele>81</ele>
        <time>2013-03-02T16:19:03Z</time>
      </trkpt>
      <trkpt lat="44.77567" lon="-0.32386">
        <ele>82</ele>
        <time>2013-03-02T16:19:06Z</time>
      </trkpt>
      <trkpt lat="44.77586" lon="-0.32388">
        <ele>81</ele>
        <time>2013-03-02T16:19:10Z</time>
      </trkpt>
      <trkpt lat="44.7762" lon="-0.32391">
        <ele>79</ele>
        <time>2013-03-02T16:19:18Z</time>
      </trkpt>
      <trkpt lat="44.77657" lon="-0.32394">
        <ele>78</ele>
        <time>2013-03-02T16:19:27Z</time>
      </trkpt>
      <trkpt lat="44.77673" lon="-0.32396">
        <ele>77</ele>
        <time>2013-03-02T16:19:31Z</time>
      </trkpt>
      <trkpt lat="44.77687" lon="-0.32398">
        <ele>77</ele>
        <time>2013-03-02T16:19:34Z</time>
      </trkpt>
      <trkpt lat="44.77698" lon="-0.32398">
        <ele>76</ele>
        <time>2013-03-02T16:19:37Z</time>
      </trkpt>
      <trkpt lat="44.7771" lon="-0.32389">
        <ele>75</ele>
        <time>2013-03-02T16:19:44Z</time>
      </trkpt>
      <trkpt lat="44.77711" lon="-0.32388">
        <ele>75</ele>
        <time>2013-03-02T16:19:50Z</time>
      </trkpt>
      <trkpt lat="44.77712" lon="-0.32388">
        <ele>75</ele>
        <time>2013-03-02T16:19:56Z</time>
      </trkpt>
      <trkpt lat="44.77721" lon="-0.32392">
        <ele>75</ele>
        <time>2013-03-02T16:20:02Z</time>
      </trkpt>
      <trkpt lat="44.77733" lon="-0.32394">
        <ele>74</ele>
        <time>2013-03-02T16:20:07Z</time>
      </trkpt>
      <trkpt lat="44.77757" lon="-0.32402">
        <ele>74</ele>
        <time>2013-03-02T16:20:14Z</time>
      </trkpt>
      <trkpt lat="44.77775" lon="-0.32404">
        <ele>74</ele>
        <time>2013-03-02T16:20:20Z</time>
      </trkpt>
      <trkpt lat="44.77795" lon="-0.32405">
        <ele>73</ele>
        <time>2013-03-02T16:20:26Z</time>
      </trkpt>
      <trkpt lat="44.77809" lon="-0.32407">
        <ele>73</ele>
        <time>2013-03-02T16:20:32Z</time>
      </trkpt>
      <trkpt lat="44.7781" lon="-0.32406">
        <ele>73</ele>
        <time>2013-03-02T16:20:38Z</time>
      </trkpt>
      <trkpt lat="44.77813" lon="-0.32403">
        <ele>73</ele>
        <time>2013-03-02T16:20:47Z</time>
      </trkpt>
      <trkpt lat="44.77816" lon="-0.32402">
        <ele>72</ele>
        <time>2013-03-02T16:20:49Z</time>
      </trkpt>
      <trkpt lat="44.77818" lon="-0.32398">
        <ele>72</ele>
        <time>2013-03-02T16:20:55Z</time>
      </trkpt>
      <trkpt lat="44.77819" lon="-0.32396">
        <ele>72</ele>
        <time>2013-03-02T16:21:04Z</time>
      </trkpt>
      <trkpt lat="44.77819" lon="-0.32395">
        <ele>72</ele>
        <time>2013-03-02T16:21:10Z</time>
      </trkpt>
      <trkpt lat="44.77819" lon="-0.32395">
        <ele>72</ele>
        <time>2013-03-02T16:21:27Z</time>
      </trkpt>
      <trkpt lat="44.77821" lon="-0.32393">
        <ele>72</ele>
        <time>2013-03-02T16:21:29Z</time>
      </trkpt>
      <trkpt lat="44.77822" lon="-0.32388">
        <ele>72</ele>
        <time>2013-03-02T16:21:31Z</time>
      </trkpt>
      <trkpt lat="44.77825" lon="-0.32377">
        <ele>71</ele>
        <time>2013-03-02T16:21:35Z</time>
      </trkpt>
      <trkpt lat="44.77831" lon="-0.32347">
        <ele>70</ele>
        <time>2013-03-02T16:21:41Z</time>
      </trkpt>
      <trkpt lat="44.77835" lon="-0.32319">
        <ele>70</ele>
        <time>2013-03-02T16:21:47Z</time>
      </trkpt>
      <trkpt lat="44.77836" lon="-0.32292">
        <ele>69</ele>
        <time>2013-03-02T16:21:52Z</time>
      </trkpt>
      <trkpt lat="44.77837" lon="-0.32286">
        <ele>69</ele>
        <time>2013-03-02T16:21:53Z</time>
      </trkpt>
      <trkpt lat="44.7785" lon="-0.32272">
        <ele>68</ele>
        <time>2013-03-02T16:21:58Z</time>
      </trkpt>
      <trkpt lat="44.77857" lon="-0.32272">
        <ele>67</ele>
        <time>2013-03-02T16:22:00Z</time>
      </trkpt>
      <trkpt lat="44.7787" lon="-0.32274">
        <ele>67</ele>
        <time>2013-03-02T16:22:03Z</time>
      </trkpt>
      <trkpt lat="44.77887" lon="-0.32278">
        <ele>66</ele>
        <time>2013-03-02T16:22:08Z</time>
      </trkpt>
      <trkpt lat="44.77905" lon="-0.32285">
        <ele>66</ele>
        <time>2013-03-02T16:22:14Z</time>
      </trkpt>
      <trkpt lat="44.7793" lon="-0.32293">
        <ele>66</ele>
        <time>2013-03-02T16:22:23Z</time>
      </trkpt>
      <trkpt lat="44.77944" lon="-0.32276">
        <ele>65</ele>
        <time>2013-03-02T16:22:28Z</time>
      </trkpt>
      <trkpt lat="44.77958" lon="-0.32267">
        <ele>65</ele>
        <time>2013-03-02T16:22:31Z</time>
      </trkpt>
      <trkpt lat="44.77987" lon="-0.32272">
        <ele>64</ele>
        <time>2013-03-02T16:22:36Z</time>
      </trkpt>
      <trkpt lat="44.78004" lon="-0.3225">
        <ele>63</ele>
        <time>2013-03-02T16:22:40Z</time>
      </trkpt>
      <trkpt lat="44.78012" lon="-0.32212">
        <ele>62</ele>
        <time>2013-03-02T16:22:45Z</time>
      </trkpt>
      <trkpt lat="44.78015" lon="-0.32187">
        <ele>61</ele>
        <time>2013-03-02T16:22:51Z</time>
      </trkpt>
      <trkpt lat="44.78016" lon="-0.32181">
        <ele>61</ele>
        <time>2013-03-02T16:22:53Z</time>
      </trkpt>
      <trkpt lat="44.78023" lon="-0.32163">
        <ele>60</ele>
        <time>2013-03-02T16:23:00Z</time>
      </trkpt>
      <trkpt lat="44.78024" lon="-0.32158">
        <ele>60</ele>
        <time>2013-03-02T16:23:02Z</time>
      </trkpt>
      <trkpt lat="44.78023" lon="-0.3215">
        <ele>60</ele>
        <time>2013-03-02T16:23:09Z</time>
      </trkpt>
      <trkpt lat="44.78023" lon="-0.32147">
        <ele>60</ele>
        <time>2013-03-02T16:23:19Z</time>
      </trkpt>
      <trkpt lat="44.78024" lon="-0.32147">
        <ele>60</ele>
        <time>2013-03-02T16:23:33Z</time>
      </trkpt>
      <trkpt lat="44.78024" lon="-0.32146">
        <ele>60</ele>
        <time>2013-03-02T16:23:48Z</time>
      </trkpt>
      <trkpt lat="44.78023" lon="-0.32146">
        <ele>60</ele>
        <time>2013-03-02T16:23:57Z</time>
      </trkpt>
      <trkpt lat="44.78022" lon="-0.32143">
        <ele>60</ele>
        <time>2013-03-02T16:24:16Z</time>
      </trkpt>
      <trkpt lat="44.78022" lon="-0.32143">
        <ele>60</ele>
        <time>2013-03-02T16:24:28Z</time>
      </trkpt>
      <trkpt lat="44.78023" lon="-0.32143">
        <ele>60</ele>
        <time>2013-03-02T16:24:41Z</time>
      </trkpt>
      <trkpt lat="44.78024" lon="-0.32143">
        <ele>60</ele>
        <time>2013-03-02T16:24:52Z</time>
      </trkpt>
      <trkpt lat="44.78023" lon="-0.32141">
        <ele>60</ele>
        <time>2013-03-02T16:24:56Z</time>
      </trkpt>
      <trkpt lat="44.78011" lon="-0.3214">
        <ele>60</ele>
        <time>2013-03-02T16:25:02Z</time>
      </trkpt>
      <trkpt lat="44.77995" lon="-0.32131">
        <ele>60</ele>
        <time>2013-03-02T16:25:09Z</time>
      </trkpt>
      <trkpt lat="44.77976" lon="-0.3212">
        <ele>60</ele>
        <time>2013-03-02T16:25:17Z</time>
      </trkpt>
      <trkpt lat="44.77962" lon="-0.32115">
        <ele>61</ele>
        <time>2013-03-02T16:25:24Z</time>
      </trkpt>
      <trkpt lat="44.77957" lon="-0.3211">
        <ele>61</ele>
        <time>2013-03-02T16:25:28Z</time>
      </trkpt>
      <trkpt lat="44.77944" lon="-0.32099">
        <ele>61</ele>
        <time>2013-03-02T16:25:34Z</time>
      </trkpt>
      <trkpt lat="44.77946" lon="-0.32088">
        <ele>61</ele>
        <time>2013-03-02T16:25:37Z</time>
      </trkpt>
      <trkpt lat="44.77956" lon="-0.32049">
        <ele>60</ele>
        <time>2013-03-02T16:25:45Z</time>
      </trkpt>
      <trkpt lat="44.77961" lon="-0.32019">
        <ele>60</ele>
        <time>2013-03-02T16:25:51Z</time>
      </trkpt>
      <trkpt lat="44.77954" lon="-0.31987">
        <ele>60</ele>
        <time>2013-03-02T16:25:57Z</time>
      </trkpt>
      <trkpt lat="44.7794" lon="-0.31957">
        <ele>60</ele>
        <time>2013-03-02T16:26:04Z</time>
      </trkpt>
      <trkpt lat="44.77933" lon="-0.31935">
        <ele>60</ele>
        <time>2013-03-02T16:26:09Z</time>
      </trkpt>
      <trkpt lat="44.7793" lon="-0.31902">
        <ele>61</ele>
        <time>2013-03-02T16:26:16Z</time>
      </trkpt>
      <trkpt lat="44.77935" lon="-0.3187">
        <ele>62</ele>
        <time>2013-03-02T16:26:23Z</time>
      </trkpt>
      <trkpt lat="44.77941" lon="-0.31838">
        <ele>63</ele>
        <time>2013-03-02T16:26:30Z</time>
      </trkpt>
      <trkpt lat="44.77946" lon="-0.31809">
        <ele>64</ele>
        <time>2013-03-02T16:26:37Z</time>
      </trkpt>
      <trkpt lat="44.77953" lon="-0.31773">
        <ele>65</ele>
        <time>2013-03-02T16:26:45Z</time>
      </trkpt>
      <trkpt lat="44.77959" lon="-0.31746">
        <ele>66</ele>
        <time>2013-03-02T16:26:51Z</time>
      </trkpt>
      <trkpt lat="44.77962" lon="-0.31724">
        <ele>66</ele>
        <time>2013-03-02T16:26:57Z</time>
      </trkpt>
      <trkpt lat="44.77967" lon="-0.31698">
        <ele>67</ele>
        <time>2013-03-02T16:27:04Z</time>
      </trkpt>
      <trkpt lat="44.77968" lon="-0.31676">
        <ele>68</ele>
        <time>2013-03-02T16:27:11Z</time>
      </trkpt>
      <trkpt lat="44.77967" lon="-0.31674">
        <ele>68</ele>
        <time>2013-03-02T16:27:12Z</time>
      </trkpt>
      <trkpt lat="44.77958" lon="-0.31673">
        <ele>68</ele>
        <time>2013-03-02T16:27:17Z</time>
      </trkpt>
      <trkpt lat="44.77955" lon="-0.31672">
        <ele>68</ele>
        <time>2013-03-02T16:27:18Z</time>
      </trkpt>
      <trkpt lat="44.7794" lon="-0.31666">
        <ele>68</ele>
        <time>2013-03-02T16:27:24Z</time>
      </trkpt>
      <trkpt lat="44.77922" lon="-0.31656">
        <ele>69</ele>
        <time>2013-03-02T16:27:31Z</time>
      </trkpt>
      <trkpt lat="44.77907" lon="-0.31647">
        <ele>70</ele>
        <time>2013-03-02T16:27:37Z</time>
      </trkpt>
      <trkpt lat="44.77885" lon="-0.31642">
        <ele>71</ele>
        <time>2013-03-02T16:27:44Z</time>
      </trkpt>
      <trkpt lat="44.77869" lon="-0.31639">
        <ele>71</ele>
        <time>2013-03-02T16:27:51Z</time>
      </trkpt>
      <trkpt lat="44.77854" lon="-0.31635">
        <ele>72</ele>
        <time>2013-03-02T16:27:57Z</time>
      </trkpt>
      <trkpt lat="44.77838" lon="-0.31628">
        <ele>71</ele>
        <time>2013-03-02T16:28:04Z</time>
      </trkpt>
      <trkpt lat="44.77815" lon="-0.31618">
        <ele>71</ele>
        <time>2013-03-02T16:28:12Z</time>
      </trkpt>
      <trkpt lat="44.77793" lon="-0.31613">
        <ele>70</ele>
        <time>2013-03-02T16:28:19Z</time>
      </trkpt>
      <trkpt lat="44.77775" lon="-0.31607">
        <ele>69</ele>
        <time>2013-03-02T16:28:26Z</time>
      </trkpt>
      <trkpt lat="44.77758" lon="-0.31601">
        <ele>68</ele>
        <time>2013-03-02T16:28:34Z</time>
      </trkpt>
      <trkpt lat="44.77744" lon="-0.31599">
        <ele>68</ele>
        <time>2013-03-02T16:28:41Z</time>
      </trkpt>
      <trkpt lat="44.77734" lon="-0.31601">
        <ele>68</ele>
        <time>2013-03-02T16:28:46Z</time>
      </trkpt>
      <trkpt lat="44.77722" lon="-0.31606">
        <ele>68</ele>
        <time>2013-03-02T16:28:52Z</time>
      </trkpt>
      <trkpt lat="44.77704" lon="-0.31613">
        <ele>68</ele>
        <time>2013-03-02T16:29:00Z</time>
      </trkpt>
      <trkpt lat="44.77687" lon="-0.31616">
        <ele>69</ele>
        <time>2013-03-02T16:29:06Z</time>
      </trkpt>
      <trkpt lat="44.77672" lon="-0.31617">
        <ele>70</ele>
        <time>2013-03-02T16:29:13Z</time>
      </trkpt>
      <trkpt lat="44.77664" lon="-0.31621">
        <ele>70</ele>
        <time>2013-03-02T16:29:18Z</time>
      </trkpt>
      <trkpt lat="44.77655" lon="-0.31624">
        <ele>70</ele>
        <time>2013-03-02T16:29:24Z</time>
      </trkpt>
      <trkpt lat="44.77643" lon="-0.31624">
        <ele>70</ele>
        <time>2013-03-02T16:29:31Z</time>
      </trkpt>
      <trkpt lat="44.77637" lon="-0.31623">
        <ele>71</ele>
        <time>2013-03-02T16:29:37Z</time>
      </trkpt>
      <trkpt lat="44.77635" lon="-0.31623">
        <ele>71</ele>
        <time>2013-03-02T16:29:44Z</time>
      </trkpt>
      <trkpt lat="44.77635" lon="-0.31621">
        <ele>71</ele>
        <time>2013-03-02T16:29:53Z</time>
      </trkpt>
      <trkpt lat="44.77634" lon="-0.31621">
        <ele>71</ele>
        <time>2013-03-02T16:30:03Z</time>
      </trkpt>
      <trkpt lat="44.77634" lon="-0.31622">
        <ele>71</ele>
        <time>2013-03-02T16:30:17Z</time>
      </trkpt>
      <trkpt lat="44.77633" lon="-0.31621">
        <ele>71</ele>
        <time>2013-03-02T16:30:32Z</time>
      </trkpt>
      <trkpt lat="44.77633" lon="-0.3162">
        <ele>71</ele>
        <time>2013-03-02T16:30:42Z</time>
      </trkpt>
      <trkpt lat="44.77633" lon="-0.31619">
        <ele>71</ele>
        <time>2013-03-02T16:30:53Z</time>
      </trkpt>
      <trkpt lat="44.77633" lon="-0.31619">
        <ele>71</ele>
        <time>2013-03-02T16:31:05Z</time>
      </trkpt>
      <trkpt lat="44.77633" lon="-0.31619">
        <ele>71</ele>
        <time>2013-03-02T16:31:17Z</time>
      </trkpt>
      <trkpt lat="44.77633" lon="-0.31619">
        <ele>71</ele>
        <time>2013-03-02T16:31:30Z</time>
      </trkpt>
      <trkpt lat="44.77633" lon="-0.3162">
        <ele>71</ele>
        <time>2013-03-02T16:31:44Z</time>
      </trkpt>
      <trkpt lat="44.77631" lon="-0.3162">
        <ele>71</ele>
        <time>2013-03-02T16:31:45Z</time>
      </trkpt>
      <trkpt lat="44.77621" lon="-0.3162">
        <ele>71</ele>
        <time>2013-03-02T16:31:52Z</time>
      </trkpt>
      <trkpt lat="44.77611" lon="-0.31621">
        <ele>71</ele>
        <time>2013-03-02T16:31:56Z</time>
      </trkpt>
      <trkpt lat="44.77594" lon="-0.31623">
        <ele>70</ele>
        <time>2013-03-02T16:32:02Z</time>
      </trkpt>
      <trkpt lat="44.77571" lon="-0.31628">
        <ele>69</ele>
        <time>2013-03-02T16:32:09Z</time>
      </trkpt>
      <trkpt lat="44.77552" lon="-0.31629">
        <ele>68</ele>
        <time>2013-03-02T16:32:14Z</time>
      </trkpt>
      <trkpt lat="44.77526" lon="-0.31623">
        <ele>67</ele>
        <time>2013-03-02T16:32:21Z</time>
      </trkpt>
      <trkpt lat="44.77523" lon="-0.3162">
        <ele>67</ele>
        <time>2013-03-02T16:32:22Z</time>
      </trkpt>
      <trkpt lat="44.77507" lon="-0.31604">
        <ele>68</ele>
        <time>2013-03-02T16:32:28Z</time>
      </trkpt>
      <trkpt lat="44.77504" lon="-0.316">
        <ele>68</ele>
        <time>2013-03-02T16:32:29Z</time>
      </trkpt>
      <trkpt lat="44.77486" lon="-0.31577">
        <ele>69</ele>
        <time>2013-03-02T16:32:36Z</time>
      </trkpt>
      <trkpt lat="44.77465" lon="-0.31561">
        <ele>70</ele>
        <time>2013-03-02T16:32:43Z</time>
      </trkpt>
      <trkpt lat="44.7745" lon="-0.31553">
        <ele>70</ele>
        <time>2013-03-02T16:32:48Z</time>
      </trkpt>
      <trkpt lat="44.77434" lon="-0.31545">
        <ele>70</ele>
        <time>2013-03-02T16:32:54Z</time>
      </trkpt>
      <trkpt lat="44.77409" lon="-0.31531">
        <ele>70</ele>
        <time>2013-03-02T16:33:01Z</time>
      </trkpt>
      <trkpt lat="44.77392" lon="-0.31521">
        <ele>69</ele>
        <time>2013-03-02T16:33:06Z</time>
      </trkpt>
      <trkpt lat="44.77389" lon="-0.31518">
        <ele>69</ele>
        <time>2013-03-02T16:33:07Z</time>
      </trkpt>
      <trkpt lat="44.77386" lon="-0.31516">
        <ele>69</ele>
        <time>2013-03-02T16:33:08Z</time>
      </trkpt>
      <trkpt lat="44.77383" lon="-0.31514">
        <ele>69</ele>
        <time>2013-03-02T16:33:09Z</time>
      </trkpt>
      <trkpt lat="44.7738" lon="-0.31511">
        <ele>68</ele>
        <time>2013-03-02T16:33:10Z</time>
      </trkpt>
      <trkpt lat="44.77377" lon="-0.31508">
        <ele>68</ele>
        <time>2013-03-02T16:33:11Z</time>
      </trkpt>
      <trkpt lat="44.77375" lon="-0.31506">
        <ele>68</ele>
        <time>2013-03-02T16:33:12Z</time>
      </trkpt>
      <trkpt lat="44.77372" lon="-0.31503">
        <ele>68</ele>
        <time>2013-03-02T16:33:13Z</time>
      </trkpt>
      <trkpt lat="44.77369" lon="-0.31499">
        <ele>67</ele>
        <time>2013-03-02T16:33:14Z</time>
      </trkpt>
      <trkpt lat="44.77352" lon="-0.31474">
        <ele>66</ele>
        <time>2013-03-02T16:33:21Z</time>
      </trkpt>
      <trkpt lat="44.77343" lon="-0.31455">
        <ele>66</ele>
        <time>2013-03-02T16:33:26Z</time>
      </trkpt>
      <trkpt lat="44.77334" lon="-0.31422">
        <ele>66</ele>
        <time>2013-03-02T16:33:33Z</time>
      </trkpt>
      <trkpt lat="44.77326" lon="-0.31395">
        <ele>65</ele>
        <time>2013-03-02T16:33:40Z</time>
      </trkpt>
      <trkpt lat="44.77318" lon="-0.31371">
        <ele>64</ele>
        <time>2013-03-02T16:33:46Z</time>
      </trkpt>
      <trkpt lat="44.77307" lon="-0.31338">
        <ele>65</ele>
        <time>2013-03-02T16:33:54Z</time>
      </trkpt>
      <trkpt lat="44.77299" lon="-0.31316">
        <ele>66</ele>
        <time>2013-03-02T16:34:01Z</time>
      </trkpt>
      <trkpt lat="44.77298" lon="-0.31314">
        <ele>66</ele>
        <time>2013-03-02T16:34:02Z</time>
      </trkpt>
      <trkpt lat="44.77285" lon="-0.31314">
        <ele>65</ele>
        <time>2013-03-02T16:34:09Z</time>
      </trkpt>
      <trkpt lat="44.77265" lon="-0.3132">
        <ele>65</ele>
        <time>2013-03-02T16:34:17Z</time>
      </trkpt>
      <trkpt lat="44.77241" lon="-0.31325">
        <ele>66</ele>
        <time>2013-03-02T16:34:24Z</time>
      </trkpt>
      <trkpt lat="44.77218" lon="-0.31336">
        <ele>68</ele>
        <time>2013-03-02T16:34:31Z</time>
      </trkpt>
      <trkpt lat="44.77192" lon="-0.31349">
        <ele>69</ele>
        <time>2013-03-02T16:34:39Z</time>
      </trkpt>
      <trkpt lat="44.77169" lon="-0.3136">
        <ele>71</ele>
        <time>2013-03-02T16:34:46Z</time>
      </trkpt>
      <trkpt lat="44.77151" lon="-0.31367">
        <ele>72</ele>
        <time>2013-03-02T16:34:52Z</time>
      </trkpt>
      <trkpt lat="44.77135" lon="-0.31372">
        <ele>73</ele>
        <time>2013-03-02T16:34:58Z</time>
      </trkpt>
      <trkpt lat="44.77114" lon="-0.3138">
        <ele>74</ele>
        <time>2013-03-02T16:35:06Z</time>
      </trkpt>
      <trkpt lat="44.77102" lon="-0.31385">
        <ele>75</ele>
        <time>2013-03-02T16:35:13Z</time>
      </trkpt>
      <trkpt lat="44.77102" lon="-0.31385">
        <ele>75</ele>
        <time>2013-03-02T16:35:25Z</time>
      </trkpt>
      <trkpt lat="44.77102" lon="-0.31385">
        <ele>75</ele>
        <time>2013-03-02T16:35:29Z</time>
      </trkpt>
      <trkpt lat="44.77093" lon="-0.31394">
        <ele>76</ele>
        <time>2013-03-02T16:35:37Z</time>
      </trkpt>
      <trkpt lat="44.77092" lon="-0.31393">
        <ele>76</ele>
        <time>2013-03-02T16:35:47Z</time>
      </trkpt>
      <trkpt lat="44.77092" lon="-0.31393">
        <ele>76</ele>
        <time>2013-03-02T16:36:02Z</time>
      </trkpt>
      <trkpt lat="44.77091" lon="-0.31394">
        <ele>76</ele>
        <time>2013-03-02T16:36:12Z</time>
      </trkpt>
      <trkpt lat="44.77089" lon="-0.31396">
        <ele>77</ele>
        <time>2013-03-02T16:36:18Z</time>
      </trkpt>
      <trkpt lat="44.77089" lon="-0.31395">
        <ele>77</ele>
        <time>2013-03-02T16:36:28Z</time>
      </trkpt>
      <trkpt lat="44.77089" lon="-0.31395">
        <ele>77</ele>
        <time>2013-03-02T16:36:40Z</time>
      </trkpt>
      <trkpt lat="44.77089" lon="-0.31395">
        <ele>77</ele>
        <time>2013-03-02T16:36:56Z</time>
      </trkpt>
      <trkpt lat="44.77089" lon="-0.31395">
        <ele>77</ele>
        <time>2013-03-02T16:37:06Z</time>
      </trkpt>
      <trkpt lat="44.77089" lon="-0.31395">
        <ele>77</ele>
        <time>2013-03-02T16:37:16Z</time>
      </trkpt>
      <trkpt lat="44.77089" lon="-0.31395">
        <ele>77</ele>
        <time>2013-03-02T16:37:24Z</time>
      </trkpt>
      <trkpt lat="44.77089" lon="-0.31395">
        <ele>77</ele>
        <time>2013-03-02T16:37:39Z</time>
      </trkpt>
      <trkpt lat="44.77089" lon="-0.31394">
        <ele>77</ele>
        <time>2013-03-02T16:37:56Z</time>
      </trkpt>
      <trkpt lat="44.77089" lon="-0.31394">
        <ele>77</ele>
        <time>2013-03-02T16:38:09Z</time>
      </trkpt>
      <trkpt lat="44.77089" lon="-0.31394">
        <ele>77</ele>
        <time>2013-03-02T16:38:20Z</time>
      </trkpt>
      <trkpt lat="44.77089" lon="-0.31399">
        <ele>77</ele>
        <time>2013-03-02T16:38:28Z</time>
      </trkpt>
      <trkpt lat="44.77085" lon="-0.31399">
        <ele>77</ele>
        <time>2013-03-02T16:38:32Z</time>
      </trkpt>
      <trkpt lat="44.77072" lon="-0.314">
        <ele>78</ele>
        <time>2013-03-02T16:38:40Z</time>
      </trkpt>
      <trkpt lat="44.7707" lon="-0.314">
        <ele>78</ele>
        <time>2013-03-02T16:38:41Z</time>
      </trkpt>
      <trkpt lat="44.77063" lon="-0.314">
        <ele>79</ele>
        <time>2013-03-02T16:38:45Z</time>
      </trkpt>
      <trkpt lat="44.77051" lon="-0.31403">
        <ele>80</ele>
        <time>2013-03-02T16:38:52Z</time>
      </trkpt>
      <trkpt lat="44.77038" lon="-0.31406">
        <ele>80</ele>
        <time>2013-03-02T16:38:59Z</time>
      </trkpt>
      <trkpt lat="44.77023" lon="-0.31407">
        <ele>81</ele>
        <time>2013-03-02T16:39:05Z</time>
      </trkpt>
      <trkpt lat="44.77004" lon="-0.31405">
        <ele>81</ele>
        <time>2013-03-02T16:39:13Z</time>
      </trkpt>
      <trkpt lat="44.76987" lon="-0.31407">
        <ele>81</ele>
        <time>2013-03-02T16:39:20Z</time>
      </trkpt>
      <trkpt lat="44.76966" lon="-0.31405">
        <ele>80</ele>
        <time>2013-03-02T16:39:28Z</time>
      </trkpt>
      <trkpt lat="44.76948" lon="-0.31403">
        <ele>80</ele>
        <time>2013-03-02T16:39:34Z</time>
      </trkpt>
      <trkpt lat="44.76928" lon="-0.31397">
        <ele>80</ele>
        <time>2013-03-02T16:39:41Z</time>
      </trkpt>
      <trkpt lat="44.76906" lon="-0.31389">
        <ele>81</ele>
        <time>2013-03-02T16:39:49Z</time>
      </trkpt>
      <trkpt lat="44.76894" lon="-0.31387">
        <ele>82</ele>
        <time>2013-03-02T16:39:53Z</time>
      </trkpt>
      <trkpt lat="44.7689" lon="-0.31389">
        <ele>82</ele>
        <time>2013-03-02T16:39:55Z</time>
      </trkpt>
      <trkpt lat="44.76886" lon="-0.31406">
        <ele>84</ele>
        <time>2013-03-02T16:40:01Z</time>
      </trkpt>
      <trkpt lat="44.76886" lon="-0.31424">
        <ele>85</ele>
        <time>2013-03-02T16:40:08Z</time>
      </trkpt>
      <trkpt lat="44.76886" lon="-0.31437">
        <ele>86</ele>
        <time>2013-03-02T16:40:12Z</time>
      </trkpt>
      <trkpt lat="44.76884" lon="-0.3146">
        <ele>88</ele>
        <time>2013-03-02T16:40:19Z</time>
      </trkpt>
      <trkpt lat="44.76882" lon="-0.31485">
        <ele>89</ele>
        <time>2013-03-02T16:40:26Z</time>
      </trkpt>
      <trkpt lat="44.7688" lon="-0.31512">
        <ele>91</ele>
        <time>2013-03-02T16:40:34Z</time>
      </trkpt>
      <trkpt lat="44.76876" lon="-0.31524">
        <ele>92</ele>
        <time>2013-03-02T16:40:40Z</time>
      </trkpt>
      <trkpt lat="44.76876" lon="-0.3154">
        <ele>93</ele>
        <time>2013-03-02T16:40:48Z</time>
      </trkpt>
      <trkpt lat="44.76875" lon="-0.31552">
        <ele>94</ele>
        <time>2013-03-02T16:40:54Z</time>
      </trkpt>
      <trkpt lat="44.76874" lon="-0.31564">
        <ele>95</ele>
        <time>2013-03-02T16:40:59Z</time>
      </trkpt>
      <trkpt lat="44.76873" lon="-0.31573">
        <ele>96</ele>
        <time>2013-03-02T16:41:03Z</time>
      </trkpt>
      <trkpt lat="44.76872" lon="-0.31594">
        <ele>97</ele>
        <time>2013-03-02T16:41:13Z</time>
      </trkpt>
      <trkpt lat="44.76872" lon="-0.31608">
        <ele>98</ele>
        <time>2013-03-02T16:41:21Z</time>
      </trkpt>
      <trkpt lat="44.76871" lon="-0.31613">
        <ele>98</ele>
        <time>2013-03-02T16:41:25Z</time>
      </trkpt>
      <trkpt lat="44.76872" lon="-0.31623">
        <ele>99</ele>
        <time>2013-03-02T16:41:32Z</time>
      </trkpt>
      <trkpt lat="44.76875" lon="-0.31627">
        <ele>99</ele>
        <time>2013-03-02T16:41:35Z</time>
      </trkpt>
      <trkpt lat="44.76878" lon="-0.31638">
        <ele>99</ele>
        <time>2013-03-02T16:41:40Z</time>
      </trkpt>
      <trkpt lat="44.76881" lon="-0.31647">
        <ele>100</ele>
        <time>2013-03-02T16:41:45Z</time>
      </trkpt>
      <trkpt lat="44.76887" lon="-0.3166">
        <ele>101</ele>
        <time>2013-03-02T16:41:52Z</time>
      </trkpt>
      <trkpt lat="44.7689" lon="-0.31673">
        <ele>101</ele>
        <time>2013-03-02T16:41:59Z</time>
      </trkpt>
      <trkpt lat="44.76895" lon="-0.31695">
        <ele>102</ele>
        <time>2013-03-02T16:42:08Z</time>
      </trkpt>
      <trkpt lat="44.76898" lon="-0.31716">
        <ele>102</ele>
        <time>2013-03-02T16:42:14Z</time>
      </trkpt>
      <trkpt lat="44.76903" lon="-0.31747">
        <ele>101</ele>
        <time>2013-03-02T16:42:22Z</time>
      </trkpt>
      <trkpt lat="44.76906" lon="-0.3177">
        <ele>99</ele>
        <time>2013-03-02T16:42:28Z</time>
      </trkpt>
      <trkpt lat="44.76903" lon="-0.31774">
        <ele>99</ele>
        <time>2013-03-02T16:42:32Z</time>
      </trkpt>
      <trkpt lat="44.76895" lon="-0.31769">
        <ele>99</ele>
        <time>2013-03-02T16:42:39Z</time>
      </trkpt>
      <trkpt lat="44.76887" lon="-0.31761">
        <ele>100</ele>
        <time>2013-03-02T16:42:45Z</time>
      </trkpt>
      <trkpt lat="44.76881" lon="-0.31758">
        <ele>100</ele>
        <time>2013-03-02T16:42:51Z</time>
      </trkpt>
      <trkpt lat="44.76875" lon="-0.31752">
        <ele>100</ele>
        <time>2013-03-02T16:42:57Z</time>
      </trkpt>
      <trkpt lat="44.76869" lon="-0.3175">
        <ele>100</ele>
        <time>2013-03-02T16:43:04Z</time>
      </trkpt>
      <trkpt lat="44.76869" lon="-0.3175">
        <ele>100</ele>
        <time>2013-03-02T16:43:16Z</time>
      </trkpt>
      <trkpt lat="44.76869" lon="-0.31749">
        <ele>100</ele>
        <time>2013-03-02T16:43:35Z</time>
      </trkpt>
      <trkpt lat="44.76869" lon="-0.3175">
        <ele>100</ele>
        <time>2013-03-02T16:43:45Z</time>
      </trkpt>
      <trkpt lat="44.76868" lon="-0.3175">
        <ele>100</ele>
        <time>2013-03-02T16:43:52Z</time>
      </trkpt>
      <trkpt lat="44.76868" lon="-0.3175">
        <ele>100</ele>
        <time>2013-03-02T16:43:58Z</time>
      </trkpt>
      <trkpt lat="44.7686" lon="-0.31742">
        <ele>101</ele>
        <time>2013-03-02T16:44:05Z</time>
      </trkpt>
      <trkpt lat="44.76842" lon="-0.31725">
        <ele>101</ele>
        <time>2013-03-02T16:44:14Z</time>
      </trkpt>
      <trkpt lat="44.7683" lon="-0.31711">
        <ele>101</ele>
        <time>2013-03-02T16:44:21Z</time>
      </trkpt>
      <trkpt lat="44.76815" lon="-0.31702">
        <ele>101</ele>
        <time>2013-03-02T16:44:27Z</time>
      </trkpt>
      <trkpt lat="44.76796" lon="-0.31691">
        <ele>101</ele>
        <time>2013-03-02T16:44:33Z</time>
      </trkpt>
      <trkpt lat="44.76785" lon="-0.31684">
        <ele>100</ele>
        <time>2013-03-02T16:44:36Z</time>
      </trkpt>
      <trkpt lat="44.76781" lon="-0.31682">
        <ele>100</ele>
        <time>2013-03-02T16:44:37Z</time>
      </trkpt>
      <trkpt lat="44.76773" lon="-0.31677">
        <ele>100</ele>
        <time>2013-03-02T16:44:39Z</time>
      </trkpt>
      <trkpt lat="44.76769" lon="-0.31675">
        <ele>100</ele>
        <time>2013-03-02T16:44:40Z</time>
      </trkpt>
      <trkpt lat="44.76762" lon="-0.31671">
        <ele>100</ele>
        <time>2013-03-02T16:44:42Z</time>
      </trkpt>
      <trkpt lat="44.76754" lon="-0.31665">
        <ele>99</ele>
        <time>2013-03-02T16:44:44Z</time>
      </trkpt>
      <trkpt lat="44.76725" lon="-0.31643">
        <ele>99</ele>
        <time>2013-03-02T16:44:52Z</time>
      </trkpt>
      <trkpt lat="44.76699" lon="-0.31625">
        <ele>100</ele>
        <time>2013-03-02T16:44:59Z</time>
      </trkpt>
      <trkpt lat="44.76676" lon="-0.3161">
        <ele>101</ele>
        <time>2013-03-02T16:45:06Z</time>
      </trkpt>
      <trkpt lat="44.76661" lon="-0.31599">
        <ele>102</ele>
        <time>2013-03-02T16:45:13Z</time>
      </trkpt>
      <trkpt lat="44.76646" lon="-0.31588">
        <ele>103</ele>
        <time>2013-03-02T16:45:19Z</time>
      </trkpt>
      <trkpt lat="44.76628" lon="-0.31579">
        <ele>103</ele>
        <time>2013-03-02T16:45:26Z</time>
      </trkpt>
      <trkpt lat="44.76612" lon="-0.31568">
        <ele>104</ele>
        <time>2013-03-02T16:45:31Z</time>
      </trkpt>
      <trkpt lat="44.76598" lon="-0.31559">
        <ele>105</ele>
        <time>2013-03-02T16:45:36Z</time>
      </trkpt>
      <trkpt lat="44.76587" lon="-0.31548">
        <ele>105</ele>
        <time>2013-03-02T16:45:41Z</time>
      </trkpt>
      <trkpt lat="44.76573" lon="-0.31543">
        <ele>105</ele>
        <time>2013-03-02T16:45:46Z</time>
      </trkpt>
      <trkpt lat="44.76563" lon="-0.31538">
        <ele>105</ele>
        <time>2013-03-02T16:45:48Z</time>
      </trkpt>
      <trkpt lat="44.76555" lon="-0.31533">
        <ele>106</ele>
        <time>2013-03-02T16:45:50Z</time>
      </trkpt>
      <trkpt lat="44.76537" lon="-0.31524">
        <ele>106</ele>
        <time>2013-03-02T16:45:55Z</time>
      </trkpt>
      <trkpt lat="44.76533" lon="-0.31522">
        <ele>106</ele>
        <time>2013-03-02T16:45:56Z</time>
      </trkpt>
      <trkpt lat="44.76529" lon="-0.3152">
        <ele>106</ele>
        <time>2013-03-02T16:45:57Z</time>
      </trkpt>
      <trkpt lat="44.76509" lon="-0.31511">
        <ele>105</ele>
        <time>2013-03-02T16:46:03Z</time>
      </trkpt>
      <trkpt lat="44.76483" lon="-0.31501">
        <ele>105</ele>
        <time>2013-03-02T16:46:11Z</time>
      </trkpt>
      <trkpt lat="44.76478" lon="-0.315">
        <ele>105</ele>
        <time>2013-03-02T16:46:13Z</time>
      </trkpt>
      <trkpt lat="44.76458" lon="-0.31497">
        <ele>105</ele>
        <time>2013-03-02T16:46:20Z</time>
      </trkpt>
      <trkpt lat="44.76435" lon="-0.31494">
        <ele>105</ele>
        <time>2013-03-02T16:46:27Z</time>
      </trkpt>
      <trkpt lat="44.76407" lon="-0.31492">
        <ele>105</ele>
        <time>2013-03-02T16:46:35Z</time>
      </trkpt>
      <trkpt lat="44.76385" lon="-0.31493">
        <ele>104</ele>
        <time>2013-03-02T16:46:42Z</time>
      </trkpt>
      <trkpt lat="44.76363" lon="-0.31493">
        <ele>104</ele>
        <time>2013-03-02T16:46:49Z</time>
      </trkpt>
      <trkpt lat="44.76339" lon="-0.3149">
        <ele>103</ele>
        <time>2013-03-02T16:46:56Z</time>
      </trkpt>
      <trkpt lat="44.76312" lon="-0.31475">
        <ele>103</ele>
        <time>2013-03-02T16:47:04Z</time>
      </trkpt>
      <trkpt lat="44.76286" lon="-0.31459">
        <ele>104</ele>
        <time>2013-03-02T16:47:12Z</time>
      </trkpt>
      <trkpt lat="44.76268" lon="-0.31448">
        <ele>104</ele>
        <time>2013-03-02T16:47:18Z</time>
      </trkpt>
      <trkpt lat="44.76242" lon="-0.3144">
        <ele>104</ele>
        <time>2013-03-02T16:47:26Z</time>
      </trkpt>
      <trkpt lat="44.76215" lon="-0.31432">
        <ele>105</ele>
        <time>2013-03-02T16:47:34Z</time>
      </trkpt>
      <trkpt lat="44.76184" lon="-0.31423">
        <ele>106</ele>
        <time>2013-03-02T16:47:43Z</time>
      </trkpt>
      <trkpt lat="44.76158" lon="-0.31415">
        <ele>107</ele>
        <time>2013-03-02T16:47:51Z</time>
      </trkpt>
      <trkpt lat="44.76139" lon="-0.3141">
        <ele>107</ele>
        <time>2013-03-02T16:47:57Z</time>
      </trkpt>
      <trkpt lat="44.76119" lon="-0.31406">
        <ele>107</ele>
        <time>2013-03-02T16:48:03Z</time>
      </trkpt>
      <trkpt lat="44.76095" lon="-0.31399">
        <ele>108</ele>
        <time>2013-03-02T16:48:10Z</time>
      </trkpt>
      <trkpt lat="44.76073" lon="-0.31392">
        <ele>108</ele>
        <time>2013-03-02T16:48:17Z</time>
      </trkpt>
      <trkpt lat="44.7605" lon="-0.31387">
        <ele>109</ele>
        <time>2013-03-02T16:48:24Z</time>
      </trkpt>
      <trkpt lat="44.76033" lon="-0.31382">
        <ele>109</ele>
        <time>2013-03-02T16:48:30Z</time>
      </trkpt>
      <trkpt lat="44.76024" lon="-0.31381">
        <ele>109</ele>
        <time>2013-03-02T16:48:35Z</time>
      </trkpt>
      <trkpt lat="44.7602" lon="-0.3138">
        <ele>110</ele>
        <time>2013-03-02T16:48:37Z</time>
      </trkpt>
      <trkpt lat="44.76019" lon="-0.31378">
        <ele>110</ele>
        <time>2013-03-02T16:48:38Z</time>
      </trkpt>
      <trkpt lat="44.76017" lon="-0.31375">
        <ele>110</ele>
        <time>2013-03-02T16:48:40Z</time>
      </trkpt>
      <trkpt lat="44.76016" lon="-0.31374">
        <ele>110</ele>
        <time>2013-03-02T16:48:41Z</time>
      </trkpt>
      <trkpt lat="44.76015" lon="-0.31372">
        <ele>110</ele>
        <time>2013-03-02T16:48:42Z</time>
      </trkpt>
      <trkpt lat="44.76014" lon="-0.31371">
        <ele>110</ele>
        <time>2013-03-02T16:48:43Z</time>
      </trkpt>
      <trkpt lat="44.76013" lon="-0.3137">
        <ele>110</ele>
        <time>2013-03-02T16:48:44Z</time>
      </trkpt>
      <trkpt lat="44.76011" lon="-0.31369">
        <ele>110</ele>
        <time>2013-03-02T16:48:45Z</time>
      </trkpt>
      <trkpt lat="44.76009" lon="-0.31369">
        <ele>110</ele>
        <time>2013-03-02T16:48:46Z</time>
      </trkpt>
      <trkpt lat="44.75996" lon="-0.31367">
        <ele>110</ele>
        <time>2013-03-02T16:48:53Z</time>
      </trkpt>
      <trkpt lat="44.75987" lon="-0.31366">
        <ele>110</ele>
        <time>2013-03-02T16:48:58Z</time>
      </trkpt>
      <trkpt lat="44.75985" lon="-0.31366">
        <ele>110</ele>
        <time>2013-03-02T16:48:59Z</time>
      </trkpt>
      <trkpt lat="44.75983" lon="-0.31365">
        <ele>110</ele>
        <time>2013-03-02T16:49:00Z</time>
      </trkpt>
      <trkpt lat="44.75981" lon="-0.31365">
        <ele>110</ele>
        <time>2013-03-02T16:49:01Z</time>
      </trkpt>
      <trkpt lat="44.75979" lon="-0.31364">
        <ele>110</ele>
        <time>2013-03-02T16:49:02Z</time>
      </trkpt>
      <trkpt lat="44.75978" lon="-0.31364">
        <ele>110</ele>
        <time>2013-03-02T16:49:03Z</time>
      </trkpt>
      <trkpt lat="44.75976" lon="-0.31364">
        <ele>110</ele>
        <time>2013-03-02T16:49:04Z</time>
      </trkpt>
      <trkpt lat="44.75974" lon="-0.31364">
        <ele>110</ele>
        <time>2013-03-02T16:49:05Z</time>
      </trkpt>
      <trkpt lat="44.75959" lon="-0.31361">
        <ele>110</ele>
        <time>2013-03-02T16:49:12Z</time>
      </trkpt>
      <trkpt lat="44.75939" lon="-0.31357">
        <ele>110</ele>
        <time>2013-03-02T16:49:21Z</time>
      </trkpt>
      <trkpt lat="44.75924" lon="-0.31354">
        <ele>110</ele>
        <time>2013-03-02T16:49:28Z</time>
      </trkpt>
      <trkpt lat="44.75906" lon="-0.3135">
        <ele>110</ele>
        <time>2013-03-02T16:49:35Z</time>
      </trkpt>
      <trkpt lat="44.75879" lon="-0.31346">
        <ele>110</ele>
        <time>2013-03-02T16:49:44Z</time>
      </trkpt>
      <trkpt lat="44.75853" lon="-0.3134">
        <ele>109</ele>
        <time>2013-03-02T16:49:52Z</time>
      </trkpt>
      <trkpt lat="44.7585" lon="-0.3134">
        <ele>109</ele>
        <time>2013-03-02T16:49:53Z</time>
      </trkpt>
      <trkpt lat="44.75846" lon="-0.3134">
        <ele>109</ele>
        <time>2013-03-02T16:49:54Z</time>
      </trkpt>
      <trkpt lat="44.7582" lon="-0.31335">
        <ele>108</ele>
        <time>2013-03-02T16:50:02Z</time>
      </trkpt>
      <trkpt lat="44.75785" lon="-0.31329">
        <ele>107</ele>
        <time>2013-03-02T16:50:11Z</time>
      </trkpt>
      <trkpt lat="44.75773" lon="-0.31327">
        <ele>106</ele>
        <time>2013-03-02T16:50:14Z</time>
      </trkpt>
      <trkpt lat="44.75739" lon="-0.31321">
        <ele>105</ele>
        <time>2013-03-02T16:50:21Z</time>
      </trkpt>
      <trkpt lat="44.75683" lon="-0.31313">
        <ele>103</ele>
        <time>2013-03-02T16:50:29Z</time>
      </trkpt>
      <trkpt lat="44.75656" lon="-0.31311">
        <ele>102</ele>
        <time>2013-03-02T16:50:33Z</time>
      </trkpt>
      <trkpt lat="44.7565" lon="-0.31309">
        <ele>102</ele>
        <time>2013-03-02T16:50:34Z</time>
      </trkpt>
      <trkpt lat="44.75644" lon="-0.31307">
        <ele>102</ele>
        <time>2013-03-02T16:50:35Z</time>
      </trkpt>
      <trkpt lat="44.75639" lon="-0.31304">
        <ele>102</ele>
        <time>2013-03-02T16:50:36Z</time>
      </trkpt>
      <trkpt lat="44.75634" lon="-0.313">
        <ele>102</ele>
        <time>2013-03-02T16:50:37Z</time>
      </trkpt>
      <trkpt lat="44.75611" lon="-0.31286">
        <ele>102</ele>
        <time>2013-03-02T16:50:43Z</time>
      </trkpt>
      <trkpt lat="44.75598" lon="-0.31279">
        <ele>102</ele>
        <time>2013-03-02T16:50:49Z</time>
      </trkpt>
      <trkpt lat="44.75586" lon="-0.31274">
        <ele>102</ele>
        <time>2013-03-02T16:50:55Z</time>
      </trkpt>
      <trkpt lat="44.75575" lon="-0.31272">
        <ele>102</ele>
        <time>2013-03-02T16:51:02Z</time>
      </trkpt>
    </trkseg>
  </trk>
</gpx>